<?xml version='1.0' encoding='UTF-8'?>
<gpx version="1.1" creator="https://www.komoot.de" xmlns="http://www.topografix.com/GPX/1/1" xmlns:xsi="http://www.w3.org/2001/XMLSchema-instance" xsi:schemaLocation="http://www.topografix.com/GPX/1/1 http://www.topografix.com/GPX/1/1/gpx.xsd">
  <metadata>
    <name>55_720RibBrombRuehrb_jas</name>
    <author>
      <link href="https://www.komoot.de">
        <text>komoot</text>
        <type>text/html</type>
      </link>
    </author>
  </metadata>
  <trk>
    <name>55_720RibBrombRuehrb_jas</name>
    <trkseg>
      <trkpt lat="47.542696" lon="7.869257">
        <ele>337.369567</ele>
        <time>2021-08-16T19:56:32.137Z</time>
      </trkpt>
      <trkpt lat="47.542696" lon="7.869257">
        <ele>337.369567</ele>
        <time>2021-08-16T19:56:32.140Z</time>
      </trkpt>
      <trkpt lat="47.542722" lon="7.869201">
        <ele>337.369567</ele>
        <time>2021-08-16T19:56:32.785Z</time>
      </trkpt>
      <trkpt lat="47.543049" lon="7.868759">
        <ele>337.369567</ele>
        <time>2021-08-16T19:56:37.681Z</time>
      </trkpt>
      <trkpt lat="47.543105" lon="7.868711">
        <ele>337.369567</ele>
        <time>2021-08-16T19:56:38.417Z</time>
      </trkpt>
      <trkpt lat="47.543201" lon="7.868657">
        <ele>337.369567</ele>
        <time>2021-08-16T19:56:39.480Z</time>
      </trkpt>
      <trkpt lat="47.543657" lon="7.868359">
        <ele>337.038104</ele>
        <time>2021-08-16T19:56:45.037Z</time>
      </trkpt>
      <trkpt lat="47.543801" lon="7.868269">
        <ele>336.834955</ele>
        <time>2021-08-16T19:56:47.512Z</time>
      </trkpt>
      <trkpt lat="47.544214" lon="7.867988">
        <ele>336.244221</ele>
        <time>2021-08-16T19:56:55.003Z</time>
      </trkpt>
      <trkpt lat="47.544246" lon="7.867967">
        <ele>336.198729</ele>
        <time>2021-08-16T19:56:55.600Z</time>
      </trkpt>
      <trkpt lat="47.544410" lon="7.867825">
        <ele>335.951820</ele>
        <time>2021-08-16T19:56:58.856Z</time>
      </trkpt>
      <trkpt lat="47.544469" lon="7.867776">
        <ele>335.863902</ele>
        <time>2021-08-16T19:56:59.878Z</time>
      </trkpt>
      <trkpt lat="47.544568" lon="7.867693">
        <ele>335.716043</ele>
        <time>2021-08-16T19:57:01.807Z</time>
      </trkpt>
      <trkpt lat="47.545003" lon="7.867278">
        <ele>335.043525</ele>
        <time>2021-08-16T19:57:10.663Z</time>
      </trkpt>
      <trkpt lat="47.545160" lon="7.866985">
        <ele>335.207486</ele>
        <time>2021-08-16T19:57:15.320Z</time>
      </trkpt>
      <trkpt lat="47.545240" lon="7.866887">
        <ele>335.282474</ele>
        <time>2021-08-16T19:57:17.596Z</time>
      </trkpt>
      <trkpt lat="47.546096" lon="7.866147">
        <ele>335.998403</ele>
        <time>2021-08-16T19:57:42.677Z</time>
      </trkpt>
      <trkpt lat="47.546327" lon="7.865959">
        <ele>336.188793</ele>
        <time>2021-08-16T19:57:49.106Z</time>
      </trkpt>
      <trkpt lat="47.546510" lon="7.865766">
        <ele>336.330444</ele>
        <time>2021-08-16T19:57:55.520Z</time>
      </trkpt>
      <trkpt lat="47.546819" lon="7.865489">
        <ele>336.323776</ele>
        <time>2021-08-16T19:58:03.680Z</time>
      </trkpt>
      <trkpt lat="47.546889" lon="7.865225">
        <ele>336.320241</ele>
        <time>2021-08-16T19:58:07.463Z</time>
      </trkpt>
      <trkpt lat="47.546894" lon="7.864837">
        <ele>336.315405</ele>
        <time>2021-08-16T19:58:12.658Z</time>
      </trkpt>
      <trkpt lat="47.546885" lon="7.864500">
        <ele>336.311203</ele>
        <time>2021-08-16T19:58:18.317Z</time>
      </trkpt>
      <trkpt lat="47.546974" lon="7.864423">
        <ele>336.309300</ele>
        <time>2021-08-16T19:58:19.905Z</time>
      </trkpt>
      <trkpt lat="47.547320" lon="7.863864">
        <ele>336.299849</ele>
        <time>2021-08-16T19:58:29.853Z</time>
      </trkpt>
      <trkpt lat="47.547568" lon="7.863151">
        <ele>335.598153</ele>
        <time>2021-08-16T19:58:38.879Z</time>
      </trkpt>
      <trkpt lat="47.547930" lon="7.861711">
        <ele>333.902006</ele>
        <time>2021-08-16T19:58:55.303Z</time>
      </trkpt>
      <trkpt lat="47.548049" lon="7.860929">
        <ele>333.119462</ele>
        <time>2021-08-16T19:59:04.030Z</time>
      </trkpt>
      <trkpt lat="47.548334" lon="7.859801">
        <ele>332.190933</ele>
        <time>2021-08-16T19:59:17.551Z</time>
      </trkpt>
      <trkpt lat="47.548611" lon="7.858381">
        <ele>331.275660</ele>
        <time>2021-08-16T19:59:35.561Z</time>
      </trkpt>
      <trkpt lat="47.548686" lon="7.857973">
        <ele>331.241349</ele>
        <time>2021-08-16T19:59:40.966Z</time>
      </trkpt>
      <trkpt lat="47.548701" lon="7.857893">
        <ele>331.234612</ele>
        <time>2021-08-16T19:59:42.090Z</time>
      </trkpt>
      <trkpt lat="47.548743" lon="7.857692">
        <ele>331.217539</ele>
        <time>2021-08-16T19:59:44.871Z</time>
      </trkpt>
      <trkpt lat="47.548887" lon="7.857308">
        <ele>331.181895</ele>
        <time>2021-08-16T19:59:50.918Z</time>
      </trkpt>
      <trkpt lat="47.549362" lon="7.855774">
        <ele>330.899198</ele>
        <time>2021-08-16T20:00:15.027Z</time>
      </trkpt>
      <trkpt lat="47.549566" lon="7.855225">
        <ele>330.666958</ele>
        <time>2021-08-16T20:00:23.667Z</time>
      </trkpt>
      <trkpt lat="47.549883" lon="7.854434">
        <ele>330.326056</ele>
        <time>2021-08-16T20:00:35.149Z</time>
      </trkpt>
      <trkpt lat="47.550221" lon="7.853833">
        <ele>329.802708</ele>
        <time>2021-08-16T20:00:41.555Z</time>
      </trkpt>
      <trkpt lat="47.551516" lon="7.851950">
        <ele>324.984370</ele>
        <time>2021-08-16T20:01:00.381Z</time>
      </trkpt>
      <trkpt lat="47.551660" lon="7.851725">
        <ele>324.309916</ele>
        <time>2021-08-16T20:01:02.416Z</time>
      </trkpt>
      <trkpt lat="47.551830" lon="7.851603">
        <ele>323.701161</ele>
        <time>2021-08-16T20:01:04.338Z</time>
      </trkpt>
      <trkpt lat="47.551925" lon="7.851845">
        <ele>323.092218</ele>
        <time>2021-08-16T20:01:06.187Z</time>
      </trkpt>
      <trkpt lat="47.552042" lon="7.852007">
        <ele>322.576135</ele>
        <time>2021-08-16T20:01:07.835Z</time>
      </trkpt>
      <trkpt lat="47.552097" lon="7.852063">
        <ele>322.361064</ele>
        <time>2021-08-16T20:01:08.466Z</time>
      </trkpt>
      <trkpt lat="47.552272" lon="7.852167">
        <ele>321.753403</ele>
        <time>2021-08-16T20:01:10.373Z</time>
      </trkpt>
      <trkpt lat="47.552449" lon="7.852231">
        <ele>321.166232</ele>
        <time>2021-08-16T20:01:12.174Z</time>
      </trkpt>
      <trkpt lat="47.552678" lon="7.851709">
        <ele>319.812054</ele>
        <time>2021-08-16T20:01:16.485Z</time>
      </trkpt>
      <trkpt lat="47.552876" lon="7.851300">
        <ele>319.056244</ele>
        <time>2021-08-16T20:01:20.038Z</time>
      </trkpt>
      <trkpt lat="47.553283" lon="7.850634">
        <ele>317.849648</ele>
        <time>2021-08-16T20:01:26.716Z</time>
      </trkpt>
      <trkpt lat="47.553344" lon="7.850525">
        <ele>317.659487</ele>
        <time>2021-08-16T20:01:27.799Z</time>
      </trkpt>
      <trkpt lat="47.553380" lon="7.850453">
        <ele>317.539149</ele>
        <time>2021-08-16T20:01:28.501Z</time>
      </trkpt>
      <trkpt lat="47.553537" lon="7.849904">
        <ele>316.738408</ele>
        <time>2021-08-16T20:01:33.013Z</time>
      </trkpt>
      <trkpt lat="47.553605" lon="7.849629">
        <ele>316.345088</ele>
        <time>2021-08-16T20:01:35.272Z</time>
      </trkpt>
      <trkpt lat="47.553725" lon="7.849291">
        <ele>315.886640</ele>
        <time>2021-08-16T20:01:38.220Z</time>
      </trkpt>
      <trkpt lat="47.554055" lon="7.848586">
        <ele>315.060962</ele>
        <time>2021-08-16T20:01:45.136Z</time>
      </trkpt>
      <trkpt lat="47.554209" lon="7.848300">
        <ele>314.708859</ele>
        <time>2021-08-16T20:01:48.080Z</time>
      </trkpt>
      <trkpt lat="47.554269" lon="7.848188">
        <ele>314.571246</ele>
        <time>2021-08-16T20:01:49.176Z</time>
      </trkpt>
      <trkpt lat="47.554351" lon="7.848049">
        <ele>314.393579</ele>
        <time>2021-08-16T20:01:50.624Z</time>
      </trkpt>
      <trkpt lat="47.554465" lon="7.847858">
        <ele>314.148199</ele>
        <time>2021-08-16T20:01:52.648Z</time>
      </trkpt>
      <trkpt lat="47.554618" lon="7.847626">
        <ele>313.836037</ele>
        <time>2021-08-16T20:01:55.151Z</time>
      </trkpt>
      <trkpt lat="47.554759" lon="7.847388">
        <ele>313.531269</ele>
        <time>2021-08-16T20:01:57.573Z</time>
      </trkpt>
      <trkpt lat="47.554892" lon="7.847148">
        <ele>313.263836</ele>
        <time>2021-08-16T20:02:00.009Z</time>
      </trkpt>
      <trkpt lat="47.554995" lon="7.846915">
        <ele>313.032865</ele>
        <time>2021-08-16T20:02:02.170Z</time>
      </trkpt>
      <trkpt lat="47.555068" lon="7.846672">
        <ele>312.812300</ele>
        <time>2021-08-16T20:02:04.236Z</time>
      </trkpt>
      <trkpt lat="47.555199" lon="7.846687">
        <ele>312.650859</ele>
        <time>2021-08-16T20:02:05.718Z</time>
      </trkpt>
      <trkpt lat="47.555727" lon="7.846715">
        <ele>312.001686</ele>
        <time>2021-08-16T20:02:12.177Z</time>
      </trkpt>
      <trkpt lat="47.555855" lon="7.846815">
        <ele>311.823890</ele>
        <time>2021-08-16T20:02:13.840Z</time>
      </trkpt>
      <trkpt lat="47.555892" lon="7.846856">
        <ele>311.767121</ele>
        <time>2021-08-16T20:02:14.398Z</time>
      </trkpt>
      <trkpt lat="47.555966" lon="7.846932">
        <ele>311.656492</ele>
        <time>2021-08-16T20:02:15.549Z</time>
      </trkpt>
      <trkpt lat="47.555990" lon="7.846965">
        <ele>311.616262</ele>
        <time>2021-08-16T20:02:15.981Z</time>
      </trkpt>
      <trkpt lat="47.556060" lon="7.846859">
        <ele>311.493284</ele>
        <time>2021-08-16T20:02:17.177Z</time>
      </trkpt>
      <trkpt lat="47.556636" lon="7.845928">
        <ele>310.787552</ele>
        <time>2021-08-16T20:02:27.581Z</time>
      </trkpt>
      <trkpt lat="47.557134" lon="7.845095">
        <ele>310.257028</ele>
        <time>2021-08-16T20:02:37.418Z</time>
      </trkpt>
      <trkpt lat="47.557282" lon="7.844832">
        <ele>310.093780</ele>
        <time>2021-08-16T20:02:40.562Z</time>
      </trkpt>
      <trkpt lat="47.557560" lon="7.844433">
        <ele>309.965474</ele>
        <time>2021-08-16T20:02:45.745Z</time>
      </trkpt>
      <trkpt lat="47.557715" lon="7.843940">
        <ele>309.943419</ele>
        <time>2021-08-16T20:02:50.763Z</time>
      </trkpt>
      <trkpt lat="47.557759" lon="7.843839">
        <ele>309.938545</ele>
        <time>2021-08-16T20:02:51.944Z</time>
      </trkpt>
      <trkpt lat="47.557759" lon="7.843839">
        <ele>309.938545</ele>
        <time>2021-08-16T20:02:51.962Z</time>
      </trkpt>
      <trkpt lat="47.557759" lon="7.843839">
        <ele>309.938545</ele>
        <time>2021-08-16T20:02:51.964Z</time>
      </trkpt>
      <trkpt lat="47.557846" lon="7.843756">
        <ele>309.932327</ele>
        <time>2021-08-16T20:02:53.314Z</time>
      </trkpt>
      <trkpt lat="47.557967" lon="7.843683">
        <ele>309.924477</ele>
        <time>2021-08-16T20:02:55.344Z</time>
      </trkpt>
      <trkpt lat="47.558136" lon="7.843582">
        <ele>309.913527</ele>
        <time>2021-08-16T20:02:58.038Z</time>
      </trkpt>
      <trkpt lat="47.558405" lon="7.843371">
        <ele>309.895238</ele>
        <time>2021-08-16T20:03:02.904Z</time>
      </trkpt>
      <trkpt lat="47.558471" lon="7.843365">
        <ele>309.891264</ele>
        <time>2021-08-16T20:03:03.755Z</time>
      </trkpt>
      <trkpt lat="47.558555" lon="7.843392">
        <ele>309.886099</ele>
        <time>2021-08-16T20:03:05.036Z</time>
      </trkpt>
      <trkpt lat="47.558884" lon="7.843836">
        <ele>309.877788</ele>
        <time>2021-08-16T20:03:12.320Z</time>
      </trkpt>
      <trkpt lat="47.559060" lon="7.844197">
        <ele>309.888607</ele>
        <time>2021-08-16T20:03:17.157Z</time>
      </trkpt>
      <trkpt lat="47.559109" lon="7.844229">
        <ele>309.890535</ele>
        <time>2021-08-16T20:03:18.204Z</time>
      </trkpt>
      <trkpt lat="47.559158" lon="7.844233">
        <ele>309.892301</ele>
        <time>2021-08-16T20:03:19.153Z</time>
      </trkpt>
      <trkpt lat="47.559583" lon="7.843813">
        <ele>309.910690</ele>
        <time>2021-08-16T20:03:27.141Z</time>
      </trkpt>
      <trkpt lat="47.559847" lon="7.843604">
        <ele>309.921465</ele>
        <time>2021-08-16T20:03:31.542Z</time>
      </trkpt>
      <trkpt lat="47.560139" lon="7.843433">
        <ele>309.932768</ele>
        <time>2021-08-16T20:03:35.775Z</time>
      </trkpt>
      <trkpt lat="47.560209" lon="7.843393">
        <ele>309.935468</ele>
        <time>2021-08-16T20:03:36.726Z</time>
      </trkpt>
      <trkpt lat="47.560338" lon="7.843341">
        <ele>309.800625</ele>
        <time>2021-08-16T20:03:38.392Z</time>
      </trkpt>
      <trkpt lat="47.560430" lon="7.843341">
        <ele>309.704442</ele>
        <time>2021-08-16T20:03:39.937Z</time>
      </trkpt>
      <trkpt lat="47.560515" lon="7.843379">
        <ele>309.611622</ele>
        <time>2021-08-16T20:03:40.970Z</time>
      </trkpt>
      <trkpt lat="47.560812" lon="7.843560">
        <ele>309.275887</ele>
        <time>2021-08-16T20:03:45.032Z</time>
      </trkpt>
      <trkpt lat="47.560934" lon="7.843550">
        <ele>309.148145</ele>
        <time>2021-08-16T20:03:46.553Z</time>
      </trkpt>
      <trkpt lat="47.561038" lon="7.843502">
        <ele>309.034266</ele>
        <time>2021-08-16T20:03:47.842Z</time>
      </trkpt>
      <trkpt lat="47.561434" lon="7.843181">
        <ele>308.562372</ele>
        <time>2021-08-16T20:03:53.287Z</time>
      </trkpt>
      <trkpt lat="47.561498" lon="7.843130">
        <ele>308.486402</ele>
        <time>2021-08-16T20:03:54.051Z</time>
      </trkpt>
      <trkpt lat="47.562179" lon="7.842500">
        <ele>307.586089</ele>
        <time>2021-08-16T20:04:03.315Z</time>
      </trkpt>
      <trkpt lat="47.562300" lon="7.842326">
        <ele>307.383469</ele>
        <time>2021-08-16T20:04:05.268Z</time>
      </trkpt>
      <trkpt lat="47.562385" lon="7.842183">
        <ele>307.228930</ele>
        <time>2021-08-16T20:04:06.684Z</time>
      </trkpt>
      <trkpt lat="47.562440" lon="7.842083">
        <ele>307.124312</ele>
        <time>2021-08-16T20:04:07.800Z</time>
      </trkpt>
      <trkpt lat="47.562574" lon="7.841873">
        <ele>306.889933</ele>
        <time>2021-08-16T20:04:10.196Z</time>
      </trkpt>
      <trkpt lat="47.562904" lon="7.841632">
        <ele>306.447811</ele>
        <time>2021-08-16T20:04:14.690Z</time>
      </trkpt>
      <trkpt lat="47.562965" lon="7.841597">
        <ele>306.369201</ele>
        <time>2021-08-16T20:04:15.483Z</time>
      </trkpt>
      <trkpt lat="47.563016" lon="7.841568">
        <ele>306.303554</ele>
        <time>2021-08-16T20:04:16.184Z</time>
      </trkpt>
      <trkpt lat="47.563300" lon="7.841391">
        <ele>305.933300</ele>
        <time>2021-08-16T20:04:19.923Z</time>
      </trkpt>
      <trkpt lat="47.563483" lon="7.841269">
        <ele>305.712526</ele>
        <time>2021-08-16T20:04:22.479Z</time>
      </trkpt>
      <trkpt lat="47.563659" lon="7.841150">
        <ele>305.503550</ele>
        <time>2021-08-16T20:04:24.811Z</time>
      </trkpt>
      <trkpt lat="47.563805" lon="7.841046">
        <ele>305.328561</ele>
        <time>2021-08-16T20:04:26.870Z</time>
      </trkpt>
      <trkpt lat="47.563941" lon="7.840948">
        <ele>305.165202</ele>
        <time>2021-08-16T20:04:28.726Z</time>
      </trkpt>
      <trkpt lat="47.563986" lon="7.840916">
        <ele>305.111284</ele>
        <time>2021-08-16T20:04:29.347Z</time>
      </trkpt>
      <trkpt lat="47.564094" lon="7.840838">
        <ele>304.981501</ele>
        <time>2021-08-16T20:04:30.815Z</time>
      </trkpt>
      <trkpt lat="47.564463" lon="7.840580">
        <ele>304.540755</ele>
        <time>2021-08-16T20:04:35.808Z</time>
      </trkpt>
      <trkpt lat="47.564534" lon="7.840532">
        <ele>304.456455</ele>
        <time>2021-08-16T20:04:36.716Z</time>
      </trkpt>
      <trkpt lat="47.564558" lon="7.840516">
        <ele>304.428026</ele>
        <time>2021-08-16T20:04:37.040Z</time>
      </trkpt>
      <trkpt lat="47.564936" lon="7.840261">
        <ele>303.979380</ele>
        <time>2021-08-16T20:04:41.943Z</time>
      </trkpt>
      <trkpt lat="47.565057" lon="7.840213">
        <ele>303.839965</ele>
        <time>2021-08-16T20:04:43.356Z</time>
      </trkpt>
      <trkpt lat="47.565168" lon="7.840179">
        <ele>303.712810</ele>
        <time>2021-08-16T20:04:44.698Z</time>
      </trkpt>
      <trkpt lat="47.565233" lon="7.840176">
        <ele>303.639857</ele>
        <time>2021-08-16T20:04:45.434Z</time>
      </trkpt>
      <trkpt lat="47.565343" lon="7.840185">
        <ele>303.516268</ele>
        <time>2021-08-16T20:04:46.694Z</time>
      </trkpt>
      <trkpt lat="47.565906" lon="7.840272">
        <ele>302.881257</ele>
        <time>2021-08-16T20:04:53.360Z</time>
      </trkpt>
      <trkpt lat="47.566081" lon="7.840309">
        <ele>302.682950</ele>
        <time>2021-08-16T20:04:55.474Z</time>
      </trkpt>
      <trkpt lat="47.566142" lon="7.840322">
        <ele>302.613815</ele>
        <time>2021-08-16T20:04:56.209Z</time>
      </trkpt>
      <trkpt lat="47.566221" lon="7.840340">
        <ele>302.524150</ele>
        <time>2021-08-16T20:04:57.349Z</time>
      </trkpt>
      <trkpt lat="47.566350" lon="7.840350">
        <ele>302.379237</ele>
        <time>2021-08-16T20:04:58.963Z</time>
      </trkpt>
      <trkpt lat="47.566450" lon="7.840326">
        <ele>302.265593</ele>
        <time>2021-08-16T20:05:00.213Z</time>
      </trkpt>
      <trkpt lat="47.566515" lon="7.840312">
        <ele>302.191909</ele>
        <time>2021-08-16T20:05:01.009Z</time>
      </trkpt>
      <trkpt lat="47.566592" lon="7.840279">
        <ele>302.101989</ele>
        <time>2021-08-16T20:05:02.130Z</time>
      </trkpt>
      <trkpt lat="47.566826" lon="7.840179">
        <ele>301.864092</ele>
        <time>2021-08-16T20:05:05.077Z</time>
      </trkpt>
      <trkpt lat="47.567111" lon="7.839998">
        <ele>301.634172</ele>
        <time>2021-08-16T20:05:09.012Z</time>
      </trkpt>
      <trkpt lat="47.567406" lon="7.839778">
        <ele>301.389290</ele>
        <time>2021-08-16T20:05:13.171Z</time>
      </trkpt>
      <trkpt lat="47.567481" lon="7.839664">
        <ele>301.309628</ele>
        <time>2021-08-16T20:05:14.469Z</time>
      </trkpt>
      <trkpt lat="47.567510" lon="7.839548">
        <ele>301.247734</ele>
        <time>2021-08-16T20:05:15.632Z</time>
      </trkpt>
      <trkpt lat="47.567530" lon="7.839459">
        <ele>301.200801</ele>
        <time>2021-08-16T20:05:16.438Z</time>
      </trkpt>
      <trkpt lat="47.567564" lon="7.839283">
        <ele>301.109206</ele>
        <time>2021-08-16T20:05:18.008Z</time>
      </trkpt>
      <trkpt lat="47.567626" lon="7.839064">
        <ele>300.990382</ele>
        <time>2021-08-16T20:05:20.128Z</time>
      </trkpt>
      <trkpt lat="47.567634" lon="7.839037">
        <ele>300.975628</ele>
        <time>2021-08-16T20:05:20.356Z</time>
      </trkpt>
      <trkpt lat="47.567823" lon="7.838648">
        <ele>300.735794</ele>
        <time>2021-08-16T20:05:24.674Z</time>
      </trkpt>
      <trkpt lat="47.567846" lon="7.838609">
        <ele>300.709879</ele>
        <time>2021-08-16T20:05:25.097Z</time>
      </trkpt>
      <trkpt lat="47.567936" lon="7.838380">
        <ele>300.563322</ele>
        <time>2021-08-16T20:05:27.461Z</time>
      </trkpt>
      <trkpt lat="47.568042" lon="7.838436">
        <ele>300.426683</ele>
        <time>2021-08-16T20:05:29.550Z</time>
      </trkpt>
      <trkpt lat="47.568160" lon="7.838415">
        <ele>300.282378</ele>
        <time>2021-08-16T20:05:31.694Z</time>
      </trkpt>
      <trkpt lat="47.568420" lon="7.838300">
        <ele>299.952926</ele>
        <time>2021-08-16T20:05:36.485Z</time>
      </trkpt>
      <trkpt lat="47.568988" lon="7.838054">
        <ele>299.234415</ele>
        <time>2021-08-16T20:05:46.308Z</time>
      </trkpt>
      <trkpt lat="47.569310" lon="7.837922">
        <ele>298.828761</ele>
        <time>2021-08-16T20:05:51.816Z</time>
      </trkpt>
      <trkpt lat="47.569522" lon="7.837844">
        <ele>298.563537</ele>
        <time>2021-08-16T20:05:55.408Z</time>
      </trkpt>
      <trkpt lat="47.569665" lon="7.837789">
        <ele>298.382266</ele>
        <time>2021-08-16T20:05:57.846Z</time>
      </trkpt>
      <trkpt lat="47.569814" lon="7.837733">
        <ele>298.184301</ele>
        <time>2021-08-16T20:06:00.382Z</time>
      </trkpt>
      <trkpt lat="47.569907" lon="7.837696">
        <ele>298.060289</ele>
        <time>2021-08-16T20:06:01.958Z</time>
      </trkpt>
      <trkpt lat="47.570038" lon="7.837643">
        <ele>297.885405</ele>
        <time>2021-08-16T20:06:04.210Z</time>
      </trkpt>
      <trkpt lat="47.570298" lon="7.837528">
        <ele>297.535968</ele>
        <time>2021-08-16T20:06:08.663Z</time>
      </trkpt>
      <trkpt lat="47.570872" lon="7.837307">
        <ele>296.772197</ele>
        <time>2021-08-16T20:06:18.526Z</time>
      </trkpt>
      <trkpt lat="47.570985" lon="7.837265">
        <ele>296.622161</ele>
        <time>2021-08-16T20:06:20.453Z</time>
      </trkpt>
      <trkpt lat="47.571254" lon="7.837161">
        <ele>296.264133</ele>
        <time>2021-08-16T20:06:25.166Z</time>
      </trkpt>
      <trkpt lat="47.571771" lon="7.836971">
        <ele>295.865923</ele>
        <time>2021-08-16T20:06:34.673Z</time>
      </trkpt>
      <trkpt lat="47.571871" lon="7.836932">
        <ele>295.806352</ele>
        <time>2021-08-16T20:06:36.609Z</time>
      </trkpt>
      <trkpt lat="47.572139" lon="7.836834">
        <ele>295.647328</ele>
        <time>2021-08-16T20:06:41.806Z</time>
      </trkpt>
      <trkpt lat="47.572296" lon="7.836777">
        <ele>295.554206</ele>
        <time>2021-08-16T20:06:44.884Z</time>
      </trkpt>
      <trkpt lat="47.572760" lon="7.836606">
        <ele>295.278756</ele>
        <time>2021-08-16T20:06:53.902Z</time>
      </trkpt>
      <trkpt lat="47.573348" lon="7.836386">
        <ele>294.989217</ele>
        <time>2021-08-16T20:07:05.057Z</time>
      </trkpt>
      <trkpt lat="47.573815" lon="7.836215">
        <ele>294.836513</ele>
        <time>2021-08-16T20:07:13.870Z</time>
      </trkpt>
      <trkpt lat="47.574158" lon="7.836106">
        <ele>294.725155</ele>
        <time>2021-08-16T20:07:20.441Z</time>
      </trkpt>
      <trkpt lat="47.574568" lon="7.836025">
        <ele>294.593851</ele>
        <time>2021-08-16T20:07:26.132Z</time>
      </trkpt>
      <trkpt lat="47.575033" lon="7.835907">
        <ele>294.596031</ele>
        <time>2021-08-16T20:07:33.137Z</time>
      </trkpt>
      <trkpt lat="47.575959" lon="7.835718">
        <ele>295.246735</ele>
        <time>2021-08-16T20:07:48.753Z</time>
      </trkpt>
      <trkpt lat="47.576219" lon="7.835650">
        <ele>295.430526</ele>
        <time>2021-08-16T20:07:53.910Z</time>
      </trkpt>
      <trkpt lat="47.579073" lon="7.834987">
        <ele>298.498048</ele>
        <time>2021-08-16T20:08:52.744Z</time>
      </trkpt>
      <trkpt lat="47.580667" lon="7.834627">
        <ele>298.566745</ele>
        <time>2021-08-16T20:09:16.593Z</time>
      </trkpt>
      <trkpt lat="47.580816" lon="7.834599">
        <ele>298.403682</ele>
        <time>2021-08-16T20:09:18.689Z</time>
      </trkpt>
      <trkpt lat="47.582828" lon="7.834117">
        <ele>294.995833</ele>
        <time>2021-08-16T20:09:41.736Z</time>
      </trkpt>
      <trkpt lat="47.583163" lon="7.833942">
        <ele>294.107029</ele>
        <time>2021-08-16T20:09:45.565Z</time>
      </trkpt>
      <trkpt lat="47.583327" lon="7.833750">
        <ele>293.584115</ele>
        <time>2021-08-16T20:09:47.728Z</time>
      </trkpt>
      <trkpt lat="47.583401" lon="7.833658">
        <ele>293.342448</ele>
        <time>2021-08-16T20:09:48.660Z</time>
      </trkpt>
      <trkpt lat="47.583523" lon="7.833509">
        <ele>292.946913</ele>
        <time>2021-08-16T20:09:50.340Z</time>
      </trkpt>
      <trkpt lat="47.583696" lon="7.833171">
        <ele>291.968038</ele>
        <time>2021-08-16T20:09:53.182Z</time>
      </trkpt>
      <trkpt lat="47.583849" lon="7.832883">
        <ele>290.916021</ele>
        <time>2021-08-16T20:09:55.507Z</time>
      </trkpt>
      <trkpt lat="47.584029" lon="7.832543">
        <ele>289.675703</ele>
        <time>2021-08-16T20:09:58.246Z</time>
      </trkpt>
      <trkpt lat="47.584156" lon="7.832334">
        <ele>288.868461</ele>
        <time>2021-08-16T20:10:00.030Z</time>
      </trkpt>
      <trkpt lat="47.584367" lon="7.832247">
        <ele>287.936709</ele>
        <time>2021-08-16T20:10:02.089Z</time>
      </trkpt>
      <trkpt lat="47.584717" lon="7.832264">
        <ele>286.446865</ele>
        <time>2021-08-16T20:10:05.480Z</time>
      </trkpt>
      <trkpt lat="47.585027" lon="7.832425">
        <ele>285.049417</ele>
        <time>2021-08-16T20:10:08.744Z</time>
      </trkpt>
      <trkpt lat="47.585195" lon="7.832588">
        <ele>284.493348</ele>
        <time>2021-08-16T20:10:10.801Z</time>
      </trkpt>
      <trkpt lat="47.585247" lon="7.832651">
        <ele>284.319927</ele>
        <time>2021-08-16T20:10:11.449Z</time>
      </trkpt>
      <trkpt lat="47.585278" lon="7.832688">
        <ele>284.217154</ele>
        <time>2021-08-16T20:10:11.832Z</time>
      </trkpt>
      <trkpt lat="47.586276" lon="7.833601">
        <ele>281.188732</ele>
        <time>2021-08-16T20:10:23.859Z</time>
      </trkpt>
      <trkpt lat="47.586496" lon="7.833050">
        <ele>280.330329</ele>
        <time>2021-08-16T20:10:29.111Z</time>
      </trkpt>
      <trkpt lat="47.587848" lon="7.834235">
        <ele>280.699088</ele>
        <time>2021-08-16T20:10:53.464Z</time>
      </trkpt>
      <trkpt lat="47.587628" lon="7.835942">
        <ele>283.441116</ele>
        <time>2021-08-16T20:11:21.346Z</time>
      </trkpt>
      <trkpt lat="47.587903" lon="7.836007">
        <ele>284.170052</ele>
        <time>2021-08-16T20:11:29.067Z</time>
      </trkpt>
      <trkpt lat="47.588272" lon="7.836090">
        <ele>285.147008</ele>
        <time>2021-08-16T20:11:40.055Z</time>
      </trkpt>
      <trkpt lat="47.589181" lon="7.835983">
        <ele>288.895413</ele>
        <time>2021-08-16T20:12:07.625Z</time>
      </trkpt>
      <trkpt lat="47.590263" lon="7.835856">
        <ele>293.980062</ele>
        <time>2021-08-16T20:12:42.867Z</time>
      </trkpt>
      <trkpt lat="47.590166" lon="7.836338">
        <ele>296.993903</ele>
        <time>2021-08-16T20:12:54.074Z</time>
      </trkpt>
      <trkpt lat="47.591704" lon="7.836354">
        <ele>311.523096</ele>
        <time>2021-08-16T20:14:25.358Z</time>
      </trkpt>
      <trkpt lat="47.591953" lon="7.836379">
        <ele>315.044520</ele>
        <time>2021-08-16T20:14:48.391Z</time>
      </trkpt>
      <trkpt lat="47.592110" lon="7.836372">
        <ele>317.260784</ele>
        <time>2021-08-16T20:14:58.031Z</time>
      </trkpt>
      <trkpt lat="47.592182" lon="7.836371">
        <ele>318.276745</ele>
        <time>2021-08-16T20:15:04.366Z</time>
      </trkpt>
      <trkpt lat="47.592250" lon="7.836371">
        <ele>319.236222</ele>
        <time>2021-08-16T20:15:12.132Z</time>
      </trkpt>
      <trkpt lat="47.592897" lon="7.836379">
        <ele>328.365679</ele>
        <time>2021-08-16T20:16:01.584Z</time>
      </trkpt>
      <trkpt lat="47.593173" lon="7.836468">
        <ele>332.351048</ele>
        <time>2021-08-16T20:16:24.251Z</time>
      </trkpt>
      <trkpt lat="47.593342" lon="7.836538">
        <ele>334.736526</ele>
        <time>2021-08-16T20:16:42.415Z</time>
      </trkpt>
      <trkpt lat="47.593826" lon="7.836849">
        <ele>339.598883</ele>
        <time>2021-08-16T20:17:17.660Z</time>
      </trkpt>
      <trkpt lat="47.594385" lon="7.837297">
        <ele>345.456143</ele>
        <time>2021-08-16T20:17:53.149Z</time>
      </trkpt>
      <trkpt lat="47.594966" lon="7.837645">
        <ele>351.177338</ele>
        <time>2021-08-16T20:18:21.982Z</time>
      </trkpt>
      <trkpt lat="47.595487" lon="7.838131">
        <ele>353.241269</ele>
        <time>2021-08-16T20:18:43.098Z</time>
      </trkpt>
      <trkpt lat="47.595964" lon="7.838747">
        <ele>355.362252</ele>
        <time>2021-08-16T20:19:02.703Z</time>
      </trkpt>
      <trkpt lat="47.596578" lon="7.839929">
        <ele>358.659433</ele>
        <time>2021-08-16T20:19:33.389Z</time>
      </trkpt>
      <trkpt lat="47.596993" lon="7.840544">
        <ele>360.530049</ele>
        <time>2021-08-16T20:19:52.847Z</time>
      </trkpt>
      <trkpt lat="47.597263" lon="7.840840">
        <ele>361.600606</ele>
        <time>2021-08-16T20:20:04.185Z</time>
      </trkpt>
      <trkpt lat="47.597727" lon="7.841333">
        <ele>363.560571</ele>
        <time>2021-08-16T20:20:23.838Z</time>
      </trkpt>
      <trkpt lat="47.597842" lon="7.841614">
        <ele>364.461858</ele>
        <time>2021-08-16T20:20:31.868Z</time>
      </trkpt>
      <trkpt lat="47.598058" lon="7.842175">
        <ele>366.233179</ele>
        <time>2021-08-16T20:20:47.761Z</time>
      </trkpt>
      <trkpt lat="47.598238" lon="7.842763">
        <ele>368.003798</ele>
        <time>2021-08-16T20:21:03.618Z</time>
      </trkpt>
      <trkpt lat="47.598536" lon="7.843376">
        <ele>370.075845</ele>
        <time>2021-08-16T20:21:22.458Z</time>
      </trkpt>
      <trkpt lat="47.598696" lon="7.843499">
        <ele>371.025706</ele>
        <time>2021-08-16T20:21:29.233Z</time>
      </trkpt>
      <trkpt lat="47.598937" lon="7.843561">
        <ele>372.390510</ele>
        <time>2021-08-16T20:21:38.830Z</time>
      </trkpt>
      <trkpt lat="47.599568" lon="7.843496">
        <ele>375.919817</ele>
        <time>2021-08-16T20:22:05.012Z</time>
      </trkpt>
      <trkpt lat="47.599763" lon="7.843535">
        <ele>377.017719</ele>
        <time>2021-08-16T20:22:13.544Z</time>
      </trkpt>
      <trkpt lat="47.600072" lon="7.843673">
        <ele>378.818345</ele>
        <time>2021-08-16T20:22:28.201Z</time>
      </trkpt>
      <trkpt lat="47.600807" lon="7.843916">
        <ele>383.879250</ele>
        <time>2021-08-16T20:23:03.972Z</time>
      </trkpt>
      <trkpt lat="47.602198" lon="7.844937">
        <ele>395.800739</ele>
        <time>2021-08-16T20:24:22.497Z</time>
      </trkpt>
      <trkpt lat="47.602253" lon="7.845252">
        <ele>397.906013</ele>
        <time>2021-08-16T20:24:33.623Z</time>
      </trkpt>
      <trkpt lat="47.602229" lon="7.845655">
        <ele>400.523574</ele>
        <time>2021-08-16T20:24:47.308Z</time>
      </trkpt>
      <trkpt lat="47.602243" lon="7.846717">
        <ele>407.396031</ele>
        <time>2021-08-16T20:25:33.002Z</time>
      </trkpt>
      <trkpt lat="47.602236" lon="7.847007">
        <ele>409.273534</ele>
        <time>2021-08-16T20:25:47.049Z</time>
      </trkpt>
      <trkpt lat="47.602282" lon="7.847374">
        <ele>411.812496</ele>
        <time>2021-08-16T20:26:02.876Z</time>
      </trkpt>
      <trkpt lat="47.602400" lon="7.847680">
        <ele>414.373665</ele>
        <time>2021-08-16T20:26:16.868Z</time>
      </trkpt>
      <trkpt lat="47.602486" lon="7.847821">
        <ele>415.755049</ele>
        <time>2021-08-16T20:26:26.090Z</time>
      </trkpt>
      <trkpt lat="47.602606" lon="7.848016">
        <ele>417.673182</ele>
        <time>2021-08-16T20:26:37.703Z</time>
      </trkpt>
      <trkpt lat="47.603736" lon="7.848907">
        <ele>430.995981</ele>
        <time>2021-08-16T20:28:00.703Z</time>
      </trkpt>
      <trkpt lat="47.604551" lon="7.849629">
        <ele>437.811624</ele>
        <time>2021-08-16T20:28:48.185Z</time>
      </trkpt>
      <trkpt lat="47.604823" lon="7.849877">
        <ele>440.103944</ele>
        <time>2021-08-16T20:29:02.351Z</time>
      </trkpt>
      <trkpt lat="47.605011" lon="7.850048">
        <ele>441.687296</ele>
        <time>2021-08-16T20:29:11.592Z</time>
      </trkpt>
      <trkpt lat="47.605181" lon="7.850167">
        <ele>443.003495</ele>
        <time>2021-08-16T20:29:19.262Z</time>
      </trkpt>
      <trkpt lat="47.605584" lon="7.850507">
        <ele>444.493874</ele>
        <time>2021-08-16T20:29:37.174Z</time>
      </trkpt>
      <trkpt lat="47.605922" lon="7.850724">
        <ele>445.677809</ele>
        <time>2021-08-16T20:29:50.207Z</time>
      </trkpt>
      <trkpt lat="47.606259" lon="7.850845">
        <ele>446.792398</ele>
        <time>2021-08-16T20:30:01.312Z</time>
      </trkpt>
      <trkpt lat="47.606432" lon="7.850826">
        <ele>447.350035</ele>
        <time>2021-08-16T20:30:06.292Z</time>
      </trkpt>
      <trkpt lat="47.606642" lon="7.850761">
        <ele>448.039631</ele>
        <time>2021-08-16T20:30:12.463Z</time>
      </trkpt>
      <trkpt lat="47.606841" lon="7.850541">
        <ele>448.741921</ele>
        <time>2021-08-16T20:30:19.462Z</time>
      </trkpt>
      <trkpt lat="47.607206" lon="7.849906">
        <ele>448.370551</ele>
        <time>2021-08-16T20:30:32.861Z</time>
      </trkpt>
      <trkpt lat="47.607512" lon="7.849734">
        <ele>448.154542</ele>
        <time>2021-08-16T20:30:38.861Z</time>
      </trkpt>
      <trkpt lat="47.607779" lon="7.849458">
        <ele>447.939716</ele>
        <time>2021-08-16T20:30:44.309Z</time>
      </trkpt>
      <trkpt lat="47.608193" lon="7.849027">
        <ele>447.605838</ele>
        <time>2021-08-16T20:30:52.301Z</time>
      </trkpt>
      <trkpt lat="47.608499" lon="7.848767">
        <ele>446.456753</ele>
        <time>2021-08-16T20:30:57.557Z</time>
      </trkpt>
      <trkpt lat="47.608647" lon="7.848750">
        <ele>445.904987</ele>
        <time>2021-08-16T20:30:59.671Z</time>
      </trkpt>
      <trkpt lat="47.608958" lon="7.849213">
        <ele>444.267142</ele>
        <time>2021-08-16T20:31:05.856Z</time>
      </trkpt>
      <trkpt lat="47.609180" lon="7.849407">
        <ele>443.309402</ele>
        <time>2021-08-16T20:31:09.428Z</time>
      </trkpt>
      <trkpt lat="47.609671" lon="7.849581">
        <ele>441.432980</ele>
        <time>2021-08-16T20:31:16.325Z</time>
      </trkpt>
      <trkpt lat="47.609900" lon="7.849721">
        <ele>440.652726</ele>
        <time>2021-08-16T20:31:19.787Z</time>
      </trkpt>
      <trkpt lat="47.610164" lon="7.850132">
        <ele>439.765644</ele>
        <time>2021-08-16T20:31:25.352Z</time>
      </trkpt>
      <trkpt lat="47.610866" lon="7.850970">
        <ele>437.677034</ele>
        <time>2021-08-16T20:31:39.372Z</time>
      </trkpt>
      <trkpt lat="47.611197" lon="7.851511">
        <ele>436.444702</ele>
        <time>2021-08-16T20:31:48.395Z</time>
      </trkpt>
      <trkpt lat="47.611373" lon="7.852022">
        <ele>435.098344</ele>
        <time>2021-08-16T20:31:55.101Z</time>
      </trkpt>
      <trkpt lat="47.611487" lon="7.852197">
        <ele>434.527374</ele>
        <time>2021-08-16T20:31:57.896Z</time>
      </trkpt>
      <trkpt lat="47.611909" lon="7.852604">
        <ele>432.775530</ele>
        <time>2021-08-16T20:32:05.250Z</time>
      </trkpt>
      <trkpt lat="47.612224" lon="7.852925">
        <ele>431.445453</ele>
        <time>2021-08-16T20:32:10.395Z</time>
      </trkpt>
      <trkpt lat="47.612366" lon="7.853056">
        <ele>430.863468</ele>
        <time>2021-08-16T20:32:12.618Z</time>
      </trkpt>
      <trkpt lat="47.612473" lon="7.853153">
        <ele>430.386445</ele>
        <time>2021-08-16T20:32:14.273Z</time>
      </trkpt>
      <trkpt lat="47.612894" lon="7.853499">
        <ele>426.401822</ele>
        <time>2021-08-16T20:32:20.456Z</time>
      </trkpt>
      <trkpt lat="47.613147" lon="7.853586">
        <ele>424.251713</ele>
        <time>2021-08-16T20:32:23.669Z</time>
      </trkpt>
      <trkpt lat="47.613350" lon="7.853629">
        <ele>422.554045</ele>
        <time>2021-08-16T20:32:26.214Z</time>
      </trkpt>
      <trkpt lat="47.613558" lon="7.853788">
        <ele>420.616833</ele>
        <time>2021-08-16T20:32:29.092Z</time>
      </trkpt>
      <trkpt lat="47.613564" lon="7.854464">
        <ele>416.843719</ele>
        <time>2021-08-16T20:32:34.680Z</time>
      </trkpt>
      <trkpt lat="47.613607" lon="7.854572">
        <ele>416.143689</ele>
        <time>2021-08-16T20:32:35.694Z</time>
      </trkpt>
      <trkpt lat="47.613659" lon="7.854700">
        <ele>415.355103</ele>
        <time>2021-08-16T20:32:36.988Z</time>
      </trkpt>
      <trkpt lat="47.613792" lon="7.854776">
        <ele>414.384720</ele>
        <time>2021-08-16T20:32:38.788Z</time>
      </trkpt>
      <trkpt lat="47.613988" lon="7.854392">
        <ele>412.174066</ele>
        <time>2021-08-16T20:32:42.842Z</time>
      </trkpt>
      <trkpt lat="47.614100" lon="7.854196">
        <ele>410.994779</ele>
        <time>2021-08-16T20:32:44.981Z</time>
      </trkpt>
      <trkpt lat="47.614301" lon="7.854162">
        <ele>409.617418</ele>
        <time>2021-08-16T20:32:47.804Z</time>
      </trkpt>
      <trkpt lat="47.614629" lon="7.854431">
        <ele>407.065693</ele>
        <time>2021-08-16T20:32:52.656Z</time>
      </trkpt>
      <trkpt lat="47.614801" lon="7.854465">
        <ele>405.884293</ele>
        <time>2021-08-16T20:32:54.837Z</time>
      </trkpt>
      <trkpt lat="47.615213" lon="7.854374">
        <ele>403.270256</ele>
        <time>2021-08-16T20:33:00.498Z</time>
      </trkpt>
      <trkpt lat="47.615794" lon="7.854262">
        <ele>402.543040</ele>
        <time>2021-08-16T20:33:08.680Z</time>
      </trkpt>
      <trkpt lat="47.615857" lon="7.854262">
        <ele>402.464842</ele>
        <time>2021-08-16T20:33:09.686Z</time>
      </trkpt>
      <trkpt lat="47.615860" lon="7.854339">
        <ele>402.400308</ele>
        <time>2021-08-16T20:33:10.506Z</time>
      </trkpt>
      <trkpt lat="47.616057" lon="7.854419">
        <ele>402.146790</ele>
        <time>2021-08-16T20:33:13.809Z</time>
      </trkpt>
      <trkpt lat="47.616213" lon="7.854635">
        <ele>401.881921</ele>
        <time>2021-08-16T20:33:18.079Z</time>
      </trkpt>
      <trkpt lat="47.616419" lon="7.854648">
        <ele>401.625997</ele>
        <time>2021-08-16T20:33:22.628Z</time>
      </trkpt>
      <trkpt lat="47.616561" lon="7.854545">
        <ele>401.429802</ele>
        <time>2021-08-16T20:33:26.309Z</time>
      </trkpt>
      <trkpt lat="47.616730" lon="7.854154">
        <ele>401.293058</ele>
        <time>2021-08-16T20:33:35.443Z</time>
      </trkpt>
      <trkpt lat="47.616902" lon="7.854158">
        <ele>402.247704</ele>
        <time>2021-08-16T20:33:40.375Z</time>
      </trkpt>
      <trkpt lat="47.617121" lon="7.853582">
        <ele>404.721575</ele>
        <time>2021-08-16T20:33:55.018Z</time>
      </trkpt>
      <trkpt lat="47.617174" lon="7.853374">
        <ele>405.553413</ele>
        <time>2021-08-16T20:34:00.849Z</time>
      </trkpt>
      <trkpt lat="47.617401" lon="7.852985">
        <ele>407.478141</ele>
        <time>2021-08-16T20:34:15.250Z</time>
      </trkpt>
      <trkpt lat="47.617505" lon="7.852663">
        <ele>408.813828</ele>
        <time>2021-08-16T20:34:25.888Z</time>
      </trkpt>
      <trkpt lat="47.617527" lon="7.851427">
        <ele>413.473623</ele>
        <time>2021-08-16T20:35:04.243Z</time>
      </trkpt>
      <trkpt lat="47.618006" lon="7.850183">
        <ele>418.910937</ele>
        <time>2021-08-16T20:35:40.220Z</time>
      </trkpt>
      <trkpt lat="47.618035" lon="7.849984">
        <ele>419.683642</ele>
        <time>2021-08-16T20:35:44.822Z</time>
      </trkpt>
      <trkpt lat="47.618004" lon="7.848291">
        <ele>423.586922</ele>
        <time>2021-08-16T20:36:17.045Z</time>
      </trkpt>
      <trkpt lat="47.617988" lon="7.848055">
        <ele>424.024798</ele>
        <time>2021-08-16T20:36:21.047Z</time>
      </trkpt>
      <trkpt lat="47.617998" lon="7.847811">
        <ele>424.476078</ele>
        <time>2021-08-16T20:36:24.612Z</time>
      </trkpt>
      <trkpt lat="47.618233" lon="7.846599">
        <ele>426.785141</ele>
        <time>2021-08-16T20:36:43.090Z</time>
      </trkpt>
      <trkpt lat="47.618223" lon="7.845325">
        <ele>429.071288</ele>
        <time>2021-08-16T20:37:03.839Z</time>
      </trkpt>
      <trkpt lat="47.618134" lon="7.844973">
        <ele>429.745868</ele>
        <time>2021-08-16T20:37:10.345Z</time>
      </trkpt>
      <trkpt lat="47.617988" lon="7.844483">
        <ele>430.707165</ele>
        <time>2021-08-16T20:37:20.495Z</time>
      </trkpt>
      <trkpt lat="47.617607" lon="7.843840">
        <ele>433.184216</ele>
        <time>2021-08-16T20:37:38.544Z</time>
      </trkpt>
      <trkpt lat="47.617368" lon="7.843216">
        <ele>435.380699</ele>
        <time>2021-08-16T20:37:55.212Z</time>
      </trkpt>
      <trkpt lat="47.617228" lon="7.842570">
        <ele>437.457431</ele>
        <time>2021-08-16T20:38:11.610Z</time>
      </trkpt>
      <trkpt lat="47.617103" lon="7.841209">
        <ele>441.327682</ele>
        <time>2021-08-16T20:38:42.523Z</time>
      </trkpt>
      <trkpt lat="47.616766" lon="7.839183">
        <ele>446.767870</ele>
        <time>2021-08-16T20:39:24.119Z</time>
      </trkpt>
      <trkpt lat="47.616796" lon="7.838812">
        <ele>447.590211</ele>
        <time>2021-08-16T20:39:30.908Z</time>
      </trkpt>
      <trkpt lat="47.617290" lon="7.837217">
        <ele>451.453221</ele>
        <time>2021-08-16T20:40:03.343Z</time>
      </trkpt>
      <trkpt lat="47.617841" lon="7.835706">
        <ele>455.559167</ele>
        <time>2021-08-16T20:40:36.161Z</time>
      </trkpt>
      <trkpt lat="47.618319" lon="7.834959">
        <ele>458.058207</ele>
        <time>2021-08-16T20:40:57.328Z</time>
      </trkpt>
      <trkpt lat="47.618582" lon="7.834417">
        <ele>459.704230</ele>
        <time>2021-08-16T20:41:11.037Z</time>
      </trkpt>
      <trkpt lat="47.618883" lon="7.833744">
        <ele>461.707871</ele>
        <time>2021-08-16T20:41:27.582Z</time>
      </trkpt>
      <trkpt lat="47.619543" lon="7.832548">
        <ele>465.456682</ele>
        <time>2021-08-16T20:41:58.260Z</time>
      </trkpt>
      <trkpt lat="47.621202" lon="7.830405">
        <ele>471.689284</ele>
        <time>2021-08-16T20:42:55.096Z</time>
      </trkpt>
      <trkpt lat="47.621427" lon="7.829933">
        <ele>472.749218</ele>
        <time>2021-08-16T20:43:04.879Z</time>
      </trkpt>
      <trkpt lat="47.621534" lon="7.829734">
        <ele>473.215939</ele>
        <time>2021-08-16T20:43:09.160Z</time>
      </trkpt>
      <trkpt lat="47.621216" lon="7.829246">
        <ele>474.460421</ele>
        <time>2021-08-16T20:43:23.297Z</time>
      </trkpt>
      <trkpt lat="47.620592" lon="7.827866">
        <ele>477.335702</ele>
        <time>2021-08-16T20:43:58.758Z</time>
      </trkpt>
      <trkpt lat="47.620417" lon="7.827360">
        <ele>478.300787</ele>
        <time>2021-08-16T20:44:10.760Z</time>
      </trkpt>
      <trkpt lat="47.620239" lon="7.826424">
        <ele>479.621297</ele>
        <time>2021-08-16T20:44:31.069Z</time>
      </trkpt>
      <trkpt lat="47.620271" lon="7.826076">
        <ele>479.317918</ele>
        <time>2021-08-16T20:44:36.874Z</time>
      </trkpt>
      <trkpt lat="47.620280" lon="7.825972">
        <ele>479.227348</ele>
        <time>2021-08-16T20:44:38.656Z</time>
      </trkpt>
      <trkpt lat="47.620532" lon="7.825491">
        <ele>478.701127</ele>
        <time>2021-08-16T20:44:46.340Z</time>
      </trkpt>
      <trkpt lat="47.620535" lon="7.825147">
        <ele>478.403964</ele>
        <time>2021-08-16T20:44:50.172Z</time>
      </trkpt>
      <trkpt lat="47.620426" lon="7.824361">
        <ele>477.710817</ele>
        <time>2021-08-16T20:44:58.307Z</time>
      </trkpt>
      <trkpt lat="47.620313" lon="7.823927">
        <ele>476.891381</ele>
        <time>2021-08-16T20:45:02.657Z</time>
      </trkpt>
      <trkpt lat="47.620145" lon="7.823390">
        <ele>474.580623</ele>
        <time>2021-08-16T20:45:08.160Z</time>
      </trkpt>
      <trkpt lat="47.620379" lon="7.822890">
        <ele>472.204760</ele>
        <time>2021-08-16T20:45:13.449Z</time>
      </trkpt>
      <trkpt lat="47.620415" lon="7.822781">
        <ele>471.730989</ele>
        <time>2021-08-16T20:45:14.477Z</time>
      </trkpt>
      <trkpt lat="47.620423" lon="7.822679">
        <ele>471.330182</ele>
        <time>2021-08-16T20:45:15.315Z</time>
      </trkpt>
      <trkpt lat="47.620375" lon="7.821867">
        <ele>468.148664</ele>
        <time>2021-08-16T20:45:22.374Z</time>
      </trkpt>
      <trkpt lat="47.620205" lon="7.821419">
        <ele>466.731835</ele>
        <time>2021-08-16T20:45:27.039Z</time>
      </trkpt>
      <trkpt lat="47.620142" lon="7.821371">
        <ele>466.599689</ele>
        <time>2021-08-16T20:45:27.940Z</time>
      </trkpt>
      <trkpt lat="47.620115" lon="7.821360">
        <ele>466.547445</ele>
        <time>2021-08-16T20:45:28.400Z</time>
      </trkpt>
      <trkpt lat="47.620094" lon="7.821351">
        <ele>466.506659</ele>
        <time>2021-08-16T20:45:28.675Z</time>
      </trkpt>
      <trkpt lat="47.619956" lon="7.821295">
        <ele>466.239709</ele>
        <time>2021-08-16T20:45:30.883Z</time>
      </trkpt>
      <trkpt lat="47.619921" lon="7.821263">
        <ele>466.162998</ele>
        <time>2021-08-16T20:45:31.713Z</time>
      </trkpt>
      <trkpt lat="47.619886" lon="7.821190">
        <ele>466.050329</ele>
        <time>2021-08-16T20:45:32.668Z</time>
      </trkpt>
      <trkpt lat="47.619831" lon="7.821041">
        <ele>465.836673</ele>
        <time>2021-08-16T20:45:34.252Z</time>
      </trkpt>
      <trkpt lat="47.619748" lon="7.820814">
        <ele>465.511877</ele>
        <time>2021-08-16T20:45:37.523Z</time>
      </trkpt>
      <trkpt lat="47.619700" lon="7.820678">
        <ele>465.318801</ele>
        <time>2021-08-16T20:45:39.175Z</time>
      </trkpt>
      <trkpt lat="47.619615" lon="7.820500">
        <ele>465.044443</ele>
        <time>2021-08-16T20:45:42.013Z</time>
      </trkpt>
      <trkpt lat="47.619523" lon="7.820339">
        <ele>464.778982</ele>
        <time>2021-08-16T20:45:45.819Z</time>
      </trkpt>
      <trkpt lat="47.619453" lon="7.820217">
        <ele>464.577480</ele>
        <time>2021-08-16T20:45:47.496Z</time>
      </trkpt>
      <trkpt lat="47.619452" lon="7.820110">
        <ele>464.442893</ele>
        <time>2021-08-16T20:45:48.985Z</time>
      </trkpt>
      <trkpt lat="47.619471" lon="7.819998">
        <ele>464.297637</ele>
        <time>2021-08-16T20:45:50.247Z</time>
      </trkpt>
      <trkpt lat="47.619480" lon="7.819969">
        <ele>464.257484</ele>
        <time>2021-08-16T20:45:50.952Z</time>
      </trkpt>
      <trkpt lat="47.619503" lon="7.819903">
        <ele>464.164038</ele>
        <time>2021-08-16T20:45:52.631Z</time>
      </trkpt>
      <trkpt lat="47.619563" lon="7.819774">
        <ele>463.966918</ele>
        <time>2021-08-16T20:45:54.342Z</time>
      </trkpt>
      <trkpt lat="47.619739" lon="7.819464">
        <ele>463.562053</ele>
        <time>2021-08-16T20:45:59.548Z</time>
      </trkpt>
      <trkpt lat="47.620091" lon="7.818898">
        <ele>463.103947</ele>
        <time>2021-08-16T20:46:10.866Z</time>
      </trkpt>
      <trkpt lat="47.620091" lon="7.818898">
        <ele>463.103947</ele>
        <time>2021-08-16T20:46:10.868Z</time>
      </trkpt>
      <trkpt lat="47.620052" lon="7.818861">
        <ele>463.063093</ele>
        <time>2021-08-16T20:46:11.508Z</time>
      </trkpt>
      <trkpt lat="47.619983" lon="7.818525">
        <ele>462.854151</ele>
        <time>2021-08-16T20:46:14.967Z</time>
      </trkpt>
      <trkpt lat="47.619948" lon="7.818387">
        <ele>462.766442</ele>
        <time>2021-08-16T20:46:16.854Z</time>
      </trkpt>
      <trkpt lat="47.619880" lon="7.818346">
        <ele>462.701664</ele>
        <time>2021-08-16T20:46:17.617Z</time>
      </trkpt>
      <trkpt lat="47.619481" lon="7.818077">
        <ele>462.314886</ele>
        <time>2021-08-16T20:46:23.268Z</time>
      </trkpt>
      <trkpt lat="47.619455" lon="7.818047">
        <ele>462.285817</ele>
        <time>2021-08-16T20:46:23.559Z</time>
      </trkpt>
      <trkpt lat="47.619414" lon="7.817980">
        <ele>462.231987</ele>
        <time>2021-08-16T20:46:24.357Z</time>
      </trkpt>
      <trkpt lat="47.619369" lon="7.817884">
        <ele>462.162429</ele>
        <time>2021-08-16T20:46:25.352Z</time>
      </trkpt>
      <trkpt lat="47.619286" lon="7.817698">
        <ele>461.891073</ele>
        <time>2021-08-16T20:46:26.888Z</time>
      </trkpt>
      <trkpt lat="47.619222" lon="7.817606">
        <ele>461.533661</ele>
        <time>2021-08-16T20:46:27.732Z</time>
      </trkpt>
      <trkpt lat="47.619023" lon="7.817353">
        <ele>460.482569</ele>
        <time>2021-08-16T20:46:30.377Z</time>
      </trkpt>
      <trkpt lat="47.618799" lon="7.817081">
        <ele>459.321620</ele>
        <time>2021-08-16T20:46:33.163Z</time>
      </trkpt>
      <trkpt lat="47.618674" lon="7.816980">
        <ele>458.750756</ele>
        <time>2021-08-16T20:46:34.483Z</time>
      </trkpt>
      <trkpt lat="47.618026" lon="7.816656">
        <ele>456.008221</ele>
        <time>2021-08-16T20:46:41.098Z</time>
      </trkpt>
      <trkpt lat="47.617819" lon="7.816612">
        <ele>455.169539</ele>
        <time>2021-08-16T20:46:43.071Z</time>
      </trkpt>
      <trkpt lat="47.617645" lon="7.816658">
        <ele>454.368706</ele>
        <time>2021-08-16T20:46:44.791Z</time>
      </trkpt>
      <trkpt lat="47.617591" lon="7.816685">
        <ele>454.086862</ele>
        <time>2021-08-16T20:46:45.328Z</time>
      </trkpt>
      <trkpt lat="47.617466" lon="7.816748">
        <ele>453.433913</ele>
        <time>2021-08-16T20:46:46.610Z</time>
      </trkpt>
      <trkpt lat="47.617373" lon="7.816786">
        <ele>452.956811</ele>
        <time>2021-08-16T20:46:47.582Z</time>
      </trkpt>
      <trkpt lat="47.617243" lon="7.816840">
        <ele>452.289107</ele>
        <time>2021-08-16T20:46:48.844Z</time>
      </trkpt>
      <trkpt lat="47.617000" lon="7.816677">
        <ele>450.970088</ele>
        <time>2021-08-16T20:46:51.488Z</time>
      </trkpt>
      <trkpt lat="47.616707" lon="7.816445">
        <ele>449.327419</ele>
        <time>2021-08-16T20:46:54.611Z</time>
      </trkpt>
      <trkpt lat="47.616632" lon="7.816335">
        <ele>448.805786</ele>
        <time>2021-08-16T20:46:55.571Z</time>
      </trkpt>
      <trkpt lat="47.616582" lon="7.816196">
        <ele>448.280504</ele>
        <time>2021-08-16T20:46:56.529Z</time>
      </trkpt>
      <trkpt lat="47.616439" lon="7.815458">
        <ele>445.702364</ele>
        <time>2021-08-16T20:47:01.450Z</time>
      </trkpt>
      <trkpt lat="47.616368" lon="7.815112">
        <ele>444.405619</ele>
        <time>2021-08-16T20:47:03.662Z</time>
      </trkpt>
      <trkpt lat="47.616291" lon="7.814920">
        <ele>443.604610</ele>
        <time>2021-08-16T20:47:05.117Z</time>
      </trkpt>
      <trkpt lat="47.616224" lon="7.814793">
        <ele>443.026396</ele>
        <time>2021-08-16T20:47:06.071Z</time>
      </trkpt>
      <trkpt lat="47.615803" lon="7.813616">
        <ele>438.249087</ele>
        <time>2021-08-16T20:47:14.528Z</time>
      </trkpt>
      <trkpt lat="47.615645" lon="7.813447">
        <ele>437.213043</ele>
        <time>2021-08-16T20:47:16.318Z</time>
      </trkpt>
      <trkpt lat="47.615387" lon="7.813324">
        <ele>435.890573</ele>
        <time>2021-08-16T20:47:18.906Z</time>
      </trkpt>
      <trkpt lat="47.614932" lon="7.812637">
        <ele>433.098885</ele>
        <time>2021-08-16T20:47:25.153Z</time>
      </trkpt>
      <trkpt lat="47.614764" lon="7.812475">
        <ele>432.237273</ele>
        <time>2021-08-16T20:47:27.112Z</time>
      </trkpt>
      <trkpt lat="47.614051" lon="7.812407">
        <ele>429.165036</ele>
        <time>2021-08-16T20:47:34.034Z</time>
      </trkpt>
      <trkpt lat="47.613868" lon="7.812544">
        <ele>428.426623</ele>
        <time>2021-08-16T20:47:36.029Z</time>
      </trkpt>
      <trkpt lat="47.613621" lon="7.812859">
        <ele>427.560644</ele>
        <time>2021-08-16T20:47:39.254Z</time>
      </trkpt>
      <trkpt lat="47.613501" lon="7.812899">
        <ele>427.233660</ele>
        <time>2021-08-16T20:47:40.501Z</time>
      </trkpt>
      <trkpt lat="47.612810" lon="7.813060">
        <ele>425.374068</ele>
        <time>2021-08-16T20:47:47.760Z</time>
      </trkpt>
      <trkpt lat="47.612555" lon="7.813076">
        <ele>424.695528</ele>
        <time>2021-08-16T20:47:50.549Z</time>
      </trkpt>
      <trkpt lat="47.612313" lon="7.813004">
        <ele>424.039341</ele>
        <time>2021-08-16T20:47:53.369Z</time>
      </trkpt>
      <trkpt lat="47.611013" lon="7.812221">
        <ele>422.487624</ele>
        <time>2021-08-16T20:48:11.093Z</time>
      </trkpt>
      <trkpt lat="47.610772" lon="7.811907">
        <ele>422.155616</ele>
        <time>2021-08-16T20:48:15.321Z</time>
      </trkpt>
      <trkpt lat="47.610233" lon="7.810909">
        <ele>419.835732</ele>
        <time>2021-08-16T20:48:25.156Z</time>
      </trkpt>
      <trkpt lat="47.609797" lon="7.810201">
        <ele>417.895463</ele>
        <time>2021-08-16T20:48:31.768Z</time>
      </trkpt>
      <trkpt lat="47.609427" lon="7.809753">
        <ele>416.275278</ele>
        <time>2021-08-16T20:48:36.308Z</time>
      </trkpt>
      <trkpt lat="47.608602" lon="7.809088">
        <ele>410.052340</ele>
        <time>2021-08-16T20:48:44.857Z</time>
      </trkpt>
      <trkpt lat="47.607803" lon="7.808223">
        <ele>403.430718</ele>
        <time>2021-08-16T20:48:53.674Z</time>
      </trkpt>
      <trkpt lat="47.607595" lon="7.808039">
        <ele>401.737701</ele>
        <time>2021-08-16T20:48:55.812Z</time>
      </trkpt>
      <trkpt lat="47.607385" lon="7.807967">
        <ele>400.230962</ele>
        <time>2021-08-16T20:48:57.737Z</time>
      </trkpt>
      <trkpt lat="47.606698" lon="7.808066">
        <ele>395.405796</ele>
        <time>2021-08-16T20:49:03.909Z</time>
      </trkpt>
      <trkpt lat="47.605899" lon="7.808010">
        <ele>390.180862</ele>
        <time>2021-08-16T20:49:11.254Z</time>
      </trkpt>
      <trkpt lat="47.605468" lon="7.808045">
        <ele>387.642902</ele>
        <time>2021-08-16T20:49:15.291Z</time>
      </trkpt>
      <trkpt lat="47.604338" lon="7.808356">
        <ele>380.930503</ele>
        <time>2021-08-16T20:49:25.864Z</time>
      </trkpt>
      <trkpt lat="47.604147" lon="7.808404">
        <ele>379.869180</ele>
        <time>2021-08-16T20:49:27.654Z</time>
      </trkpt>
      <trkpt lat="47.603933" lon="7.808453">
        <ele>378.682875</ele>
        <time>2021-08-16T20:49:29.564Z</time>
      </trkpt>
      <trkpt lat="47.603664" lon="7.808428">
        <ele>377.206248</ele>
        <time>2021-08-16T20:49:32.062Z</time>
      </trkpt>
      <trkpt lat="47.603050" lon="7.808058">
        <ele>373.575337</ele>
        <time>2021-08-16T20:49:38.258Z</time>
      </trkpt>
      <trkpt lat="47.602603" lon="7.807841">
        <ele>371.358275</ele>
        <time>2021-08-16T20:49:42.689Z</time>
      </trkpt>
      <trkpt lat="47.602352" lon="7.807799">
        <ele>370.691532</ele>
        <time>2021-08-16T20:49:45.250Z</time>
      </trkpt>
      <trkpt lat="47.602242" lon="7.807771">
        <ele>370.396930</ele>
        <time>2021-08-16T20:49:46.354Z</time>
      </trkpt>
      <trkpt lat="47.601856" lon="7.807444">
        <ele>369.223536</ele>
        <time>2021-08-16T20:49:50.965Z</time>
      </trkpt>
      <trkpt lat="47.601434" lon="7.806809">
        <ele>367.636672</ele>
        <time>2021-08-16T20:49:57.485Z</time>
      </trkpt>
      <trkpt lat="47.600919" lon="7.805847">
        <ele>365.882387</ele>
        <time>2021-08-16T20:50:08.312Z</time>
      </trkpt>
      <trkpt lat="47.600707" lon="7.805537">
        <ele>365.323644</ele>
        <time>2021-08-16T20:50:11.754Z</time>
      </trkpt>
      <trkpt lat="47.600367" lon="7.805144">
        <ele>364.514636</ele>
        <time>2021-08-16T20:50:16.499Z</time>
      </trkpt>
      <trkpt lat="47.599983" lon="7.804755">
        <ele>363.641888</ele>
        <time>2021-08-16T20:50:21.403Z</time>
      </trkpt>
      <trkpt lat="47.598398" lon="7.802889">
        <ele>356.514406</ele>
        <time>2021-08-16T20:50:41.340Z</time>
      </trkpt>
      <trkpt lat="47.598146" lon="7.802509">
        <ele>355.480841</ele>
        <time>2021-08-16T20:50:44.954Z</time>
      </trkpt>
      <trkpt lat="47.597927" lon="7.802250">
        <ele>354.675276</ele>
        <time>2021-08-16T20:50:47.805Z</time>
      </trkpt>
      <trkpt lat="47.597625" lon="7.801971">
        <ele>353.652025</ele>
        <time>2021-08-16T20:50:51.495Z</time>
      </trkpt>
      <trkpt lat="47.596866" lon="7.801508">
        <ele>351.611345</ele>
        <time>2021-08-16T20:51:00.301Z</time>
      </trkpt>
      <trkpt lat="47.596631" lon="7.801307">
        <ele>351.256381</ele>
        <time>2021-08-16T20:51:03.523Z</time>
      </trkpt>
      <trkpt lat="47.596083" lon="7.800764">
        <ele>350.394015</ele>
        <time>2021-08-16T20:51:11.496Z</time>
      </trkpt>
      <trkpt lat="47.595757" lon="7.800208">
        <ele>349.743920</ele>
        <time>2021-08-16T20:51:17.609Z</time>
      </trkpt>
      <trkpt lat="47.595466" lon="7.799497">
        <ele>348.973302</ele>
        <time>2021-08-16T20:51:24.312Z</time>
      </trkpt>
      <trkpt lat="47.595383" lon="7.799322">
        <ele>348.771039</ele>
        <time>2021-08-16T20:51:26.307Z</time>
      </trkpt>
      <trkpt lat="47.594957" lon="7.798605">
        <ele>347.867640</ele>
        <time>2021-08-16T20:51:34.164Z</time>
      </trkpt>
      <trkpt lat="47.594663" lon="7.797229">
        <ele>345.965894</ele>
        <time>2021-08-16T20:51:44.878Z</time>
      </trkpt>
      <trkpt lat="47.594653" lon="7.797153">
        <ele>345.814065</ele>
        <time>2021-08-16T20:51:45.409Z</time>
      </trkpt>
      <trkpt lat="47.594601" lon="7.796746">
        <ele>345.001828</ele>
        <time>2021-08-16T20:51:48.357Z</time>
      </trkpt>
      <trkpt lat="47.594592" lon="7.795962">
        <ele>343.464348</ele>
        <time>2021-08-16T20:51:53.726Z</time>
      </trkpt>
      <trkpt lat="47.594615" lon="7.795353">
        <ele>342.268357</ele>
        <time>2021-08-16T20:51:57.858Z</time>
      </trkpt>
      <trkpt lat="47.594657" lon="7.794742">
        <ele>341.310942</ele>
        <time>2021-08-16T20:52:01.975Z</time>
      </trkpt>
      <trkpt lat="47.594694" lon="7.794211">
        <ele>340.628440</ele>
        <time>2021-08-16T20:52:05.593Z</time>
      </trkpt>
      <trkpt lat="47.594650" lon="7.793807">
        <ele>340.105231</ele>
        <time>2021-08-16T20:52:08.501Z</time>
      </trkpt>
      <trkpt lat="47.594491" lon="7.793515">
        <ele>339.625400</ele>
        <time>2021-08-16T20:52:11.352Z</time>
      </trkpt>
      <trkpt lat="47.594382" lon="7.793389">
        <ele>339.363381</ele>
        <time>2021-08-16T20:52:12.968Z</time>
      </trkpt>
      <trkpt lat="47.594337" lon="7.793337">
        <ele>339.255222</ele>
        <time>2021-08-16T20:52:13.681Z</time>
      </trkpt>
      <trkpt lat="47.594118" lon="7.793102">
        <ele>338.742723</ele>
        <time>2021-08-16T20:52:17.399Z</time>
      </trkpt>
      <trkpt lat="47.594068" lon="7.792892">
        <ele>338.457991</ele>
        <time>2021-08-16T20:52:19.457Z</time>
      </trkpt>
      <trkpt lat="47.594082" lon="7.792808">
        <ele>338.372257</ele>
        <time>2021-08-16T20:52:20.453Z</time>
      </trkpt>
      <trkpt lat="47.594154" lon="7.792816">
        <ele>338.446310</ele>
        <time>2021-08-16T20:52:21.564Z</time>
      </trkpt>
      <trkpt lat="47.595133" lon="7.792800">
        <ele>339.450461</ele>
        <time>2021-08-16T20:52:39.083Z</time>
      </trkpt>
      <trkpt lat="47.595245" lon="7.792802">
        <ele>339.565340</ele>
        <time>2021-08-16T20:52:41.433Z</time>
      </trkpt>
      <trkpt lat="47.595581" lon="7.792802">
        <ele>339.909951</ele>
        <time>2021-08-16T20:52:48.632Z</time>
      </trkpt>
      <trkpt lat="47.595750" lon="7.792802">
        <ele>340.083283</ele>
        <time>2021-08-16T20:52:52.474Z</time>
      </trkpt>
      <trkpt lat="47.596504" lon="7.792669">
        <ele>341.577549</ele>
        <time>2021-08-16T20:53:09.555Z</time>
      </trkpt>
      <trkpt lat="47.597646" lon="7.792396">
        <ele>344.062272</ele>
        <time>2021-08-16T20:53:36.848Z</time>
      </trkpt>
      <trkpt lat="47.597848" lon="7.792115">
        <ele>344.799601</ele>
        <time>2021-08-16T20:53:43.942Z</time>
      </trkpt>
      <trkpt lat="47.598017" lon="7.791913">
        <ele>345.379272</ele>
        <time>2021-08-16T20:53:49.496Z</time>
      </trkpt>
      <trkpt lat="47.598252" lon="7.791731">
        <ele>346.087280</ele>
        <time>2021-08-16T20:53:56.651Z</time>
      </trkpt>
      <trkpt lat="47.598592" lon="7.791580">
        <ele>347.035109</ele>
        <time>2021-08-16T20:54:06.212Z</time>
      </trkpt>
      <trkpt lat="47.599667" lon="7.791105">
        <ele>349.615106</ele>
        <time>2021-08-16T20:54:34.699Z</time>
      </trkpt>
      <trkpt lat="47.600151" lon="7.790895">
        <ele>350.477499</ele>
        <time>2021-08-16T20:54:45.536Z</time>
      </trkpt>
      <trkpt lat="47.600211" lon="7.790869">
        <ele>350.584397</ele>
        <time>2021-08-16T20:54:46.835Z</time>
      </trkpt>
      <trkpt lat="47.600304" lon="7.790832">
        <ele>350.749061</ele>
        <time>2021-08-16T20:54:48.829Z</time>
      </trkpt>
      <trkpt lat="47.601073" lon="7.790573">
        <ele>352.035386</ele>
        <time>2021-08-16T20:55:04.284Z</time>
      </trkpt>
      <trkpt lat="47.601359" lon="7.790478">
        <ele>352.323759</ele>
        <time>2021-08-16T20:55:09.699Z</time>
      </trkpt>
      <trkpt lat="47.601768" lon="7.790511">
        <ele>352.726777</ele>
        <time>2021-08-16T20:55:17.163Z</time>
      </trkpt>
      <trkpt lat="47.601954" lon="7.790533">
        <ele>352.910367</ele>
        <time>2021-08-16T20:55:20.488Z</time>
      </trkpt>
      <trkpt lat="47.602292" lon="7.790564">
        <ele>353.243567</ele>
        <time>2021-08-16T20:55:26.696Z</time>
      </trkpt>
      <trkpt lat="47.603218" lon="7.790665">
        <ele>354.466439</ele>
        <time>2021-08-16T20:55:44.355Z</time>
      </trkpt>
      <trkpt lat="47.603379" lon="7.790683">
        <ele>354.737903</ele>
        <time>2021-08-16T20:55:47.753Z</time>
      </trkpt>
      <trkpt lat="47.603500" lon="7.790696">
        <ele>354.941879</ele>
        <time>2021-08-16T20:55:50.435Z</time>
      </trkpt>
      <trkpt lat="47.604020" lon="7.790669">
        <ele>355.816712</ele>
        <time>2021-08-16T20:56:01.814Z</time>
      </trkpt>
      <trkpt lat="47.604312" lon="7.790667">
        <ele>356.307669</ele>
        <time>2021-08-16T20:56:08.311Z</time>
      </trkpt>
      <trkpt lat="47.604673" lon="7.790747">
        <ele>357.092041</ele>
        <time>2021-08-16T20:56:16.763Z</time>
      </trkpt>
      <trkpt lat="47.604776" lon="7.790738">
        <ele>357.433303</ele>
        <time>2021-08-16T20:56:19.315Z</time>
      </trkpt>
      <trkpt lat="47.604861" lon="7.790465">
        <ele>358.103883</ele>
        <time>2021-08-16T20:56:24.424Z</time>
      </trkpt>
      <trkpt lat="47.604933" lon="7.789879">
        <ele>359.432207</ele>
        <time>2021-08-16T20:56:35.182Z</time>
      </trkpt>
      <trkpt lat="47.605245" lon="7.789093">
        <ele>361.466221</ele>
        <time>2021-08-16T20:56:53.250Z</time>
      </trkpt>
      <trkpt lat="47.606058" lon="7.787870">
        <ele>365.318352</ele>
        <time>2021-08-16T20:57:30.625Z</time>
      </trkpt>
      <trkpt lat="47.606236" lon="7.787573">
        <ele>366.212038</ele>
        <time>2021-08-16T20:57:38.073Z</time>
      </trkpt>
      <trkpt lat="47.606482" lon="7.786756">
        <ele>368.224334</ele>
        <time>2021-08-16T20:57:53.964Z</time>
      </trkpt>
      <trkpt lat="47.606894" lon="7.785802">
        <ele>369.542493</ele>
        <time>2021-08-16T20:58:10.190Z</time>
      </trkpt>
      <trkpt lat="47.607090" lon="7.785536">
        <ele>369.904419</ele>
        <time>2021-08-16T20:58:15.632Z</time>
      </trkpt>
      <trkpt lat="47.607244" lon="7.785405">
        <ele>370.146272</ele>
        <time>2021-08-16T20:58:18.806Z</time>
      </trkpt>
      <trkpt lat="47.607357" lon="7.785276">
        <ele>370.340533</ele>
        <time>2021-08-16T20:58:21.762Z</time>
      </trkpt>
      <trkpt lat="47.607784" lon="7.784501">
        <ele>371.394014</ele>
        <time>2021-08-16T20:58:33.299Z</time>
      </trkpt>
      <trkpt lat="47.607811" lon="7.784422">
        <ele>371.569501</ele>
        <time>2021-08-16T20:58:34.606Z</time>
      </trkpt>
      <trkpt lat="47.608000" lon="7.783873">
        <ele>372.790846</ele>
        <time>2021-08-16T20:58:43.354Z</time>
      </trkpt>
      <trkpt lat="47.608067" lon="7.783679">
        <ele>373.222716</ele>
        <time>2021-08-16T20:58:47.014Z</time>
      </trkpt>
      <trkpt lat="47.608293" lon="7.782840">
        <ele>375.012800</ele>
        <time>2021-08-16T20:59:03.848Z</time>
      </trkpt>
      <trkpt lat="47.608319" lon="7.782746">
        <ele>375.214107</ele>
        <time>2021-08-16T20:59:06.044Z</time>
      </trkpt>
      <trkpt lat="47.608448" lon="7.782041">
        <ele>376.957449</ele>
        <time>2021-08-16T20:59:21.982Z</time>
      </trkpt>
      <trkpt lat="47.608437" lon="7.781938">
        <ele>377.427892</ele>
        <time>2021-08-16T20:59:24.357Z</time>
      </trkpt>
      <trkpt lat="47.608309" lon="7.781587">
        <ele>379.228107</ele>
        <time>2021-08-16T20:59:34.281Z</time>
      </trkpt>
      <trkpt lat="47.608295" lon="7.781364">
        <ele>380.238451</ele>
        <time>2021-08-16T20:59:39.838Z</time>
      </trkpt>
      <trkpt lat="47.608399" lon="7.780950">
        <ele>382.231510</ele>
        <time>2021-08-16T20:59:51.874Z</time>
      </trkpt>
      <trkpt lat="47.608573" lon="7.780374">
        <ele>385.078852</ele>
        <time>2021-08-16T21:00:11.082Z</time>
      </trkpt>
      <trkpt lat="47.608894" lon="7.779407">
        <ele>390.235852</ele>
        <time>2021-08-16T21:00:45.735Z</time>
      </trkpt>
      <trkpt lat="47.609368" lon="7.778574">
        <ele>396.134330</ele>
        <time>2021-08-16T21:01:21.208Z</time>
      </trkpt>
      <trkpt lat="47.610133" lon="7.777501">
        <ele>404.159246</ele>
        <time>2021-08-16T21:02:10.086Z</time>
      </trkpt>
      <trkpt lat="47.610341" lon="7.777059">
        <ele>406.338548</ele>
        <time>2021-08-16T21:02:25.834Z</time>
      </trkpt>
      <trkpt lat="47.610448" lon="7.776605">
        <ele>408.282999</ele>
        <time>2021-08-16T21:02:39.036Z</time>
      </trkpt>
      <trkpt lat="47.610502" lon="7.776042">
        <ele>410.582123</ele>
        <time>2021-08-16T21:02:53.630Z</time>
      </trkpt>
      <trkpt lat="47.610473" lon="7.775477">
        <ele>412.873022</ele>
        <time>2021-08-16T21:03:07.118Z</time>
      </trkpt>
      <trkpt lat="47.610312" lon="7.774653">
        <ele>415.030554</ele>
        <time>2021-08-16T21:03:24.227Z</time>
      </trkpt>
      <trkpt lat="47.610130" lon="7.773478">
        <ele>417.496969</ele>
        <time>2021-08-16T21:03:45.244Z</time>
      </trkpt>
      <trkpt lat="47.610111" lon="7.773102">
        <ele>418.268340</ele>
        <time>2021-08-16T21:03:51.798Z</time>
      </trkpt>
      <trkpt lat="47.610141" lon="7.772651">
        <ele>419.191281</ele>
        <time>2021-08-16T21:03:59.234Z</time>
      </trkpt>
      <trkpt lat="47.610258" lon="7.772352">
        <ele>419.839052</ele>
        <time>2021-08-16T21:04:04.318Z</time>
      </trkpt>
      <trkpt lat="47.610475" lon="7.771884">
        <ele>420.903325</ele>
        <time>2021-08-16T21:04:13.447Z</time>
      </trkpt>
      <trkpt lat="47.611349" lon="7.770818">
        <ele>424.048144</ele>
        <time>2021-08-16T21:04:42.832Z</time>
      </trkpt>
      <trkpt lat="47.611495" lon="7.770538">
        <ele>424.909214</ele>
        <time>2021-08-16T21:04:50.837Z</time>
      </trkpt>
      <trkpt lat="47.611735" lon="7.769126">
        <ele>428.589990</ele>
        <time>2021-08-16T21:05:21.119Z</time>
      </trkpt>
      <trkpt lat="47.611843" lon="7.768871">
        <ele>429.351191</ele>
        <time>2021-08-16T21:05:27.366Z</time>
      </trkpt>
      <trkpt lat="47.611720" lon="7.768321">
        <ele>430.815908</ele>
        <time>2021-08-16T21:05:38.674Z</time>
      </trkpt>
      <trkpt lat="47.610892" lon="7.766368">
        <ele>436.305501</ele>
        <time>2021-08-16T21:06:22.643Z</time>
      </trkpt>
      <trkpt lat="47.610797" lon="7.765993">
        <ele>437.265730</ele>
        <time>2021-08-16T21:06:30.402Z</time>
      </trkpt>
      <trkpt lat="47.610767" lon="7.765723">
        <ele>438.109501</ele>
        <time>2021-08-16T21:06:35.735Z</time>
      </trkpt>
      <trkpt lat="47.610607" lon="7.764328">
        <ele>442.472772</ele>
        <time>2021-08-16T21:07:08.173Z</time>
      </trkpt>
      <trkpt lat="47.610505" lon="7.763094">
        <ele>446.057551</ele>
        <time>2021-08-16T21:07:37.459Z</time>
      </trkpt>
      <trkpt lat="47.610510" lon="7.762675">
        <ele>446.970630</ele>
        <time>2021-08-16T21:07:46.908Z</time>
      </trkpt>
      <trkpt lat="47.610537" lon="7.761995">
        <ele>448.454811</ele>
        <time>2021-08-16T21:08:00.249Z</time>
      </trkpt>
      <trkpt lat="47.610537" lon="7.761995">
        <ele>448.454811</ele>
        <time>2021-08-16T21:08:00.296Z</time>
      </trkpt>
      <trkpt lat="47.610537" lon="7.761995">
        <ele>448.454811</ele>
        <time>2021-08-16T21:08:00.301Z</time>
      </trkpt>
      <trkpt lat="47.610580" lon="7.761637">
        <ele>449.247120</ele>
        <time>2021-08-16T21:08:07.074Z</time>
      </trkpt>
      <trkpt lat="47.610601" lon="7.761374">
        <ele>449.824160</ele>
        <time>2021-08-16T21:08:11.656Z</time>
      </trkpt>
      <trkpt lat="47.610760" lon="7.761304">
        <ele>450.360190</ele>
        <time>2021-08-16T21:08:15.882Z</time>
      </trkpt>
      <trkpt lat="47.610854" lon="7.761285">
        <ele>450.666797</ele>
        <time>2021-08-16T21:08:18.008Z</time>
      </trkpt>
      <trkpt lat="47.611933" lon="7.761457">
        <ele>451.662470</ele>
        <time>2021-08-16T21:08:38.429Z</time>
      </trkpt>
      <trkpt lat="47.612022" lon="7.761449">
        <ele>451.701286</ele>
        <time>2021-08-16T21:08:39.930Z</time>
      </trkpt>
      <trkpt lat="47.612075" lon="7.761435">
        <ele>451.724721</ele>
        <time>2021-08-16T21:08:40.731Z</time>
      </trkpt>
      <trkpt lat="47.612465" lon="7.760841">
        <ele>451.968061</ele>
        <time>2021-08-16T21:08:48.881Z</time>
      </trkpt>
      <trkpt lat="47.612630" lon="7.760759">
        <ele>452.043815</ele>
        <time>2021-08-16T21:08:51.182Z</time>
      </trkpt>
      <trkpt lat="47.612851" lon="7.760726">
        <ele>451.499246</ele>
        <time>2021-08-16T21:08:54.002Z</time>
      </trkpt>
      <trkpt lat="47.613059" lon="7.760674">
        <ele>450.906435</ele>
        <time>2021-08-16T21:08:56.494Z</time>
      </trkpt>
      <trkpt lat="47.613148" lon="7.760607">
        <ele>450.625941</ele>
        <time>2021-08-16T21:08:57.653Z</time>
      </trkpt>
      <trkpt lat="47.613231" lon="7.760404">
        <ele>450.176129</ele>
        <time>2021-08-16T21:08:59.447Z</time>
      </trkpt>
      <trkpt lat="47.613222" lon="7.760189">
        <ele>449.768007</ele>
        <time>2021-08-16T21:09:01.033Z</time>
      </trkpt>
      <trkpt lat="47.613191" lon="7.760084">
        <ele>449.550833</ele>
        <time>2021-08-16T21:09:01.832Z</time>
      </trkpt>
      <trkpt lat="47.613121" lon="7.759857">
        <ele>449.077901</ele>
        <time>2021-08-16T21:09:03.527Z</time>
      </trkpt>
      <trkpt lat="47.612949" lon="7.759306">
        <ele>447.927490</ele>
        <time>2021-08-16T21:09:07.621Z</time>
      </trkpt>
      <trkpt lat="47.612715" lon="7.758218">
        <ele>444.074536</ele>
        <time>2021-08-16T21:09:14.905Z</time>
      </trkpt>
      <trkpt lat="47.612663" lon="7.757797">
        <ele>442.155138</ele>
        <time>2021-08-16T21:09:17.528Z</time>
      </trkpt>
      <trkpt lat="47.612641" lon="7.757558">
        <ele>441.073399</ele>
        <time>2021-08-16T21:09:19.032Z</time>
      </trkpt>
      <trkpt lat="47.612636" lon="7.757205">
        <ele>439.490023</ele>
        <time>2021-08-16T21:09:21.121Z</time>
      </trkpt>
      <trkpt lat="47.612616" lon="7.756869">
        <ele>437.977370</ele>
        <time>2021-08-16T21:09:23.204Z</time>
      </trkpt>
      <trkpt lat="47.612605" lon="7.756701">
        <ele>437.220429</ele>
        <time>2021-08-16T21:09:24.178Z</time>
      </trkpt>
      <trkpt lat="47.612477" lon="7.755867">
        <ele>433.128389</ele>
        <time>2021-08-16T21:09:29.390Z</time>
      </trkpt>
      <trkpt lat="47.612425" lon="7.755758">
        <ele>432.436560</ele>
        <time>2021-08-16T21:09:30.148Z</time>
      </trkpt>
      <trkpt lat="47.612348" lon="7.755703">
        <ele>431.779756</ele>
        <time>2021-08-16T21:09:30.900Z</time>
      </trkpt>
      <trkpt lat="47.612242" lon="7.755647">
        <ele>430.914988</ele>
        <time>2021-08-16T21:09:31.938Z</time>
      </trkpt>
      <trkpt lat="47.612167" lon="7.755587">
        <ele>430.260105</ele>
        <time>2021-08-16T21:09:32.700Z</time>
      </trkpt>
      <trkpt lat="47.612142" lon="7.755472">
        <ele>429.634075</ele>
        <time>2021-08-16T21:09:33.383Z</time>
      </trkpt>
      <trkpt lat="47.612180" lon="7.755085">
        <ele>427.607861</ele>
        <time>2021-08-16T21:09:35.795Z</time>
      </trkpt>
      <trkpt lat="47.612137" lon="7.754745">
        <ele>425.815581</ele>
        <time>2021-08-16T21:09:37.835Z</time>
      </trkpt>
      <trkpt lat="47.611836" lon="7.754409">
        <ele>422.920454</ele>
        <time>2021-08-16T21:09:41.209Z</time>
      </trkpt>
      <trkpt lat="47.611658" lon="7.754241">
        <ele>421.299029</ele>
        <time>2021-08-16T21:09:43.055Z</time>
      </trkpt>
      <trkpt lat="47.611506" lon="7.753985">
        <ele>419.845149</ele>
        <time>2021-08-16T21:09:45.170Z</time>
      </trkpt>
      <trkpt lat="47.611310" lon="7.753428">
        <ele>417.197416</ele>
        <time>2021-08-16T21:09:49.026Z</time>
      </trkpt>
      <trkpt lat="47.611269" lon="7.753071">
        <ele>415.671325</ele>
        <time>2021-08-16T21:09:51.255Z</time>
      </trkpt>
      <trkpt lat="47.611242" lon="7.752336">
        <ele>412.569398</ele>
        <time>2021-08-16T21:09:55.747Z</time>
      </trkpt>
      <trkpt lat="47.611288" lon="7.751378">
        <ele>409.217809</ele>
        <time>2021-08-16T21:10:01.847Z</time>
      </trkpt>
      <trkpt lat="47.611255" lon="7.751205">
        <ele>408.824590</ele>
        <time>2021-08-16T21:10:03.006Z</time>
      </trkpt>
      <trkpt lat="47.611197" lon="7.751064">
        <ele>408.463339</ele>
        <time>2021-08-16T21:10:04.098Z</time>
      </trkpt>
      <trkpt lat="47.611094" lon="7.750951">
        <ele>408.047725</ele>
        <time>2021-08-16T21:10:05.456Z</time>
      </trkpt>
      <trkpt lat="47.610714" lon="7.750722">
        <ele>406.717084</ele>
        <time>2021-08-16T21:10:09.591Z</time>
      </trkpt>
      <trkpt lat="47.610643" lon="7.750603">
        <ele>406.369531</ele>
        <time>2021-08-16T21:10:10.664Z</time>
      </trkpt>
      <trkpt lat="47.610520" lon="7.750319">
        <ele>405.631262</ele>
        <time>2021-08-16T21:10:13.116Z</time>
      </trkpt>
      <trkpt lat="47.610345" lon="7.749815">
        <ele>404.391344</ele>
        <time>2021-08-16T21:10:17.201Z</time>
      </trkpt>
      <trkpt lat="47.610303" lon="7.749507">
        <ele>404.019863</ele>
        <time>2021-08-16T21:10:19.509Z</time>
      </trkpt>
      <trkpt lat="47.610331" lon="7.749289">
        <ele>403.891541</ele>
        <time>2021-08-16T21:10:21.301Z</time>
      </trkpt>
      <trkpt lat="47.610399" lon="7.749144">
        <ele>403.789408</ele>
        <time>2021-08-16T21:10:22.845Z</time>
      </trkpt>
      <trkpt lat="47.610897" lon="7.748667">
        <ele>403.280964</ele>
        <time>2021-08-16T21:10:30.849Z</time>
      </trkpt>
      <trkpt lat="47.611024" lon="7.748403">
        <ele>403.093434</ele>
        <time>2021-08-16T21:10:34.135Z</time>
      </trkpt>
      <trkpt lat="47.611423" lon="7.747196">
        <ele>401.809526</ele>
        <time>2021-08-16T21:10:46.089Z</time>
      </trkpt>
      <trkpt lat="47.611508" lon="7.746851">
        <ele>401.205215</ele>
        <time>2021-08-16T21:10:48.754Z</time>
      </trkpt>
      <trkpt lat="47.611647" lon="7.746050">
        <ele>399.844453</ele>
        <time>2021-08-16T21:10:54.686Z</time>
      </trkpt>
      <trkpt lat="47.611691" lon="7.745486">
        <ele>398.910370</ele>
        <time>2021-08-16T21:10:58.490Z</time>
      </trkpt>
      <trkpt lat="47.611651" lon="7.745141">
        <ele>398.334445</ele>
        <time>2021-08-16T21:11:00.871Z</time>
      </trkpt>
      <trkpt lat="47.611609" lon="7.744853">
        <ele>397.689802</ele>
        <time>2021-08-16T21:11:02.787Z</time>
      </trkpt>
      <trkpt lat="47.611456" lon="7.744262">
        <ele>396.174704</ele>
        <time>2021-08-16T21:11:07.071Z</time>
      </trkpt>
      <trkpt lat="47.611241" lon="7.743837">
        <ele>394.903058</ele>
        <time>2021-08-16T21:11:10.650Z</time>
      </trkpt>
      <trkpt lat="47.611161" lon="7.743634">
        <ele>394.340312</ele>
        <time>2021-08-16T21:11:12.205Z</time>
      </trkpt>
      <trkpt lat="47.611010" lon="7.743033">
        <ele>392.805330</ele>
        <time>2021-08-16T21:11:16.453Z</time>
      </trkpt>
      <trkpt lat="47.610879" lon="7.741793">
        <ele>390.323363</ele>
        <time>2021-08-16T21:11:25.172Z</time>
      </trkpt>
      <trkpt lat="47.610871" lon="7.741420">
        <ele>389.661586</ele>
        <time>2021-08-16T21:11:27.952Z</time>
      </trkpt>
      <trkpt lat="47.610898" lon="7.741056">
        <ele>389.012208</ele>
        <time>2021-08-16T21:11:30.725Z</time>
      </trkpt>
      <trkpt lat="47.611129" lon="7.739819">
        <ele>386.787629</ele>
        <time>2021-08-16T21:11:39.807Z</time>
      </trkpt>
      <trkpt lat="47.611382" lon="7.739254">
        <ele>385.762653</ele>
        <time>2021-08-16T21:11:44.468Z</time>
      </trkpt>
      <trkpt lat="47.611618" lon="7.738936">
        <ele>385.047977</ele>
        <time>2021-08-16T21:11:47.814Z</time>
      </trkpt>
      <trkpt lat="47.611684" lon="7.738828">
        <ele>384.827701</ele>
        <time>2021-08-16T21:11:48.883Z</time>
      </trkpt>
      <trkpt lat="47.611751" lon="7.738698">
        <ele>384.580424</ele>
        <time>2021-08-16T21:11:50.097Z</time>
      </trkpt>
      <trkpt lat="47.611785" lon="7.738609">
        <ele>384.425841</ele>
        <time>2021-08-16T21:11:50.787Z</time>
      </trkpt>
      <trkpt lat="47.611872" lon="7.738156">
        <ele>383.714065</ele>
        <time>2021-08-16T21:11:54.391Z</time>
      </trkpt>
      <trkpt lat="47.611893" lon="7.737711">
        <ele>383.058303</ele>
        <time>2021-08-16T21:11:57.837Z</time>
      </trkpt>
      <trkpt lat="47.611965" lon="7.737457">
        <ele>383.213570</ele>
        <time>2021-08-16T21:12:00.036Z</time>
      </trkpt>
      <trkpt lat="47.612044" lon="7.737224">
        <ele>383.360537</ele>
        <time>2021-08-16T21:12:02.160Z</time>
      </trkpt>
      <trkpt lat="47.612194" lon="7.737048">
        <ele>383.520400</ele>
        <time>2021-08-16T21:12:05.122Z</time>
      </trkpt>
      <trkpt lat="47.612447" lon="7.736778">
        <ele>383.780919</ele>
        <time>2021-08-16T21:12:10.098Z</time>
      </trkpt>
      <trkpt lat="47.612712" lon="7.736151">
        <ele>384.197925</ele>
        <time>2021-08-16T21:12:20.483Z</time>
      </trkpt>
      <trkpt lat="47.613210" lon="7.735944">
        <ele>384.995459</ele>
        <time>2021-08-16T21:12:32.524Z</time>
      </trkpt>
      <trkpt lat="47.613317" lon="7.735838">
        <ele>385.637710</ele>
        <time>2021-08-16T21:12:36.406Z</time>
      </trkpt>
      <trkpt lat="47.613375" lon="7.735736">
        <ele>386.086733</ele>
        <time>2021-08-16T21:12:38.596Z</time>
      </trkpt>
      <trkpt lat="47.613434" lon="7.735397">
        <ele>387.264859</ele>
        <time>2021-08-16T21:12:45.812Z</time>
      </trkpt>
      <trkpt lat="47.613390" lon="7.735211">
        <ele>387.928160</ele>
        <time>2021-08-16T21:12:50.112Z</time>
      </trkpt>
      <trkpt lat="47.613181" lon="7.734997">
        <ele>389.195794</ele>
        <time>2021-08-16T21:13:00.267Z</time>
      </trkpt>
      <trkpt lat="47.612755" lon="7.734867">
        <ele>391.366734</ele>
        <time>2021-08-16T21:13:16.723Z</time>
      </trkpt>
      <trkpt lat="47.612618" lon="7.734756">
        <ele>392.145938</ele>
        <time>2021-08-16T21:13:23.598Z</time>
      </trkpt>
      <trkpt lat="47.612558" lon="7.734604">
        <ele>392.738653</ele>
        <time>2021-08-16T21:13:28.144Z</time>
      </trkpt>
      <trkpt lat="47.612560" lon="7.734334">
        <ele>393.684105</ele>
        <time>2021-08-16T21:13:35.884Z</time>
      </trkpt>
      <trkpt lat="47.612562" lon="7.734273">
        <ele>393.956946</ele>
        <time>2021-08-16T21:13:37.661Z</time>
      </trkpt>
      <trkpt lat="47.612580" lon="7.733842">
        <ele>395.886135</ele>
        <time>2021-08-16T21:13:47.453Z</time>
      </trkpt>
      <trkpt lat="47.612580" lon="7.733841">
        <ele>395.890603</ele>
        <time>2021-08-16T21:13:47.847Z</time>
      </trkpt>
      <trkpt lat="47.612582" lon="7.733083">
        <ele>399.277003</ele>
        <time>2021-08-16T21:14:08.247Z</time>
      </trkpt>
      <trkpt lat="47.612414" lon="7.731732">
        <ele>405.414446</ele>
        <time>2021-08-16T21:14:49.870Z</time>
      </trkpt>
      <trkpt lat="47.612490" lon="7.730332">
        <ele>410.616630</ele>
        <time>2021-08-16T21:15:22.692Z</time>
      </trkpt>
      <trkpt lat="47.612445" lon="7.730023">
        <ele>411.785975</ele>
        <time>2021-08-16T21:15:30.284Z</time>
      </trkpt>
      <trkpt lat="47.612234" lon="7.729223">
        <ele>414.963567</ele>
        <time>2021-08-16T21:15:52.117Z</time>
      </trkpt>
      <trkpt lat="47.612102" lon="7.728839">
        <ele>416.109763</ele>
        <time>2021-08-16T21:16:03.010Z</time>
      </trkpt>
      <trkpt lat="47.611858" lon="7.728339">
        <ele>417.564054</ele>
        <time>2021-08-16T21:16:17.044Z</time>
      </trkpt>
      <trkpt lat="47.611794" lon="7.728207">
        <ele>417.947137</ele>
        <time>2021-08-16T21:16:20.265Z</time>
      </trkpt>
      <trkpt lat="47.611673" lon="7.727743">
        <ele>419.119301</ele>
        <time>2021-08-16T21:16:30.186Z</time>
      </trkpt>
      <trkpt lat="47.611558" lon="7.727374">
        <ele>420.077104</ele>
        <time>2021-08-16T21:16:38.097Z</time>
      </trkpt>
      <trkpt lat="47.611696" lon="7.727069">
        <ele>420.942556</ele>
        <time>2021-08-16T21:16:44.091Z</time>
      </trkpt>
      <trkpt lat="47.611794" lon="7.726810">
        <ele>421.598083</ele>
        <time>2021-08-16T21:16:48.055Z</time>
      </trkpt>
      <trkpt lat="47.612294" lon="7.725494">
        <ele>420.364870</ele>
        <time>2021-08-16T21:17:03.564Z</time>
      </trkpt>
      <trkpt lat="47.612626" lon="7.724023">
        <ele>418.417997</ele>
        <time>2021-08-16T21:17:14.045Z</time>
      </trkpt>
      <trkpt lat="47.613151" lon="7.722474">
        <ele>414.109355</ele>
        <time>2021-08-16T21:17:25.593Z</time>
      </trkpt>
      <trkpt lat="47.613293" lon="7.722239">
        <ele>413.325079</ele>
        <time>2021-08-16T21:17:27.698Z</time>
      </trkpt>
      <trkpt lat="47.614307" lon="7.721193">
        <ele>408.282821</ele>
        <time>2021-08-16T21:17:39.950Z</time>
      </trkpt>
      <trkpt lat="47.614657" lon="7.720991">
        <ele>406.730233</ele>
        <time>2021-08-16T21:17:43.523Z</time>
      </trkpt>
      <trkpt lat="47.615110" lon="7.720843">
        <ele>404.725296</ele>
        <time>2021-08-16T21:17:47.932Z</time>
      </trkpt>
      <trkpt lat="47.615394" lon="7.720757">
        <ele>403.337613</ele>
        <time>2021-08-16T21:17:50.656Z</time>
      </trkpt>
      <trkpt lat="47.615630" lon="7.720579">
        <ele>402.070117</ele>
        <time>2021-08-16T21:17:53.143Z</time>
      </trkpt>
      <trkpt lat="47.615890" lon="7.720244">
        <ele>400.421415</ele>
        <time>2021-08-16T21:17:56.340Z</time>
      </trkpt>
      <trkpt lat="47.616298" lon="7.719670">
        <ele>397.729424</ele>
        <time>2021-08-16T21:18:01.576Z</time>
      </trkpt>
      <trkpt lat="47.617098" lon="7.718278">
        <ele>394.895180</ele>
        <time>2021-08-16T21:18:14.323Z</time>
      </trkpt>
      <trkpt lat="47.617269" lon="7.718018">
        <ele>394.452984</ele>
        <time>2021-08-16T21:18:17.608Z</time>
      </trkpt>
      <trkpt lat="47.617441" lon="7.717849">
        <ele>394.080418</ele>
        <time>2021-08-16T21:18:20.620Z</time>
      </trkpt>
      <trkpt lat="47.617832" lon="7.717579">
        <ele>393.499161</ele>
        <time>2021-08-16T21:18:27.593Z</time>
      </trkpt>
      <trkpt lat="47.618344" lon="7.717282">
        <ele>393.466452</ele>
        <time>2021-08-16T21:18:37.273Z</time>
      </trkpt>
      <trkpt lat="47.619037" lon="7.717037">
        <ele>393.424065</ele>
        <time>2021-08-16T21:18:49.381Z</time>
      </trkpt>
      <trkpt lat="47.619222" lon="7.716913">
        <ele>393.411986</ele>
        <time>2021-08-16T21:18:52.176Z</time>
      </trkpt>
      <trkpt lat="47.619370" lon="7.716703">
        <ele>393.399801</ele>
        <time>2021-08-16T21:18:54.601Z</time>
      </trkpt>
      <trkpt lat="47.620083" lon="7.715138">
        <ele>390.826647</ele>
        <time>2021-08-16T21:19:08.137Z</time>
      </trkpt>
      <trkpt lat="47.620154" lon="7.714902">
        <ele>390.470376</ele>
        <time>2021-08-16T21:19:09.862Z</time>
      </trkpt>
      <trkpt lat="47.620355" lon="7.714031">
        <ele>389.636739</ele>
        <time>2021-08-16T21:19:16.950Z</time>
      </trkpt>
      <trkpt lat="47.620562" lon="7.712881">
        <ele>389.372526</ele>
        <time>2021-08-16T21:19:27.166Z</time>
      </trkpt>
      <trkpt lat="47.620583" lon="7.712051">
        <ele>389.188160</ele>
        <time>2021-08-16T21:19:37.611Z</time>
      </trkpt>
      <trkpt lat="47.620668" lon="7.711439">
        <ele>388.824749</ele>
        <time>2021-08-16T21:19:45.633Z</time>
      </trkpt>
      <trkpt lat="47.620838" lon="7.710891">
        <ele>388.307721</ele>
        <time>2021-08-16T21:19:52.366Z</time>
      </trkpt>
      <trkpt lat="47.620944" lon="7.709648">
        <ele>387.233900</ele>
        <time>2021-08-16T21:20:02.329Z</time>
      </trkpt>
      <trkpt lat="47.621059" lon="7.709139">
        <ele>386.507139</ele>
        <time>2021-08-16T21:20:05.927Z</time>
      </trkpt>
      <trkpt lat="47.621330" lon="7.708277">
        <ele>382.454326</ele>
        <time>2021-08-16T21:20:11.955Z</time>
      </trkpt>
      <trkpt lat="47.621520" lon="7.707900">
        <ele>380.448569</ele>
        <time>2021-08-16T21:20:14.839Z</time>
      </trkpt>
      <trkpt lat="47.621593" lon="7.707590">
        <ele>379.049395</ele>
        <time>2021-08-16T21:20:16.824Z</time>
      </trkpt>
      <trkpt lat="47.621611" lon="7.706298">
        <ele>372.885655</ele>
        <time>2021-08-16T21:20:24.520Z</time>
      </trkpt>
      <trkpt lat="47.621789" lon="7.705094">
        <ele>365.842103</ele>
        <time>2021-08-16T21:20:31.827Z</time>
      </trkpt>
      <trkpt lat="47.621888" lon="7.704755">
        <ele>363.730956</ele>
        <time>2021-08-16T21:20:34.011Z</time>
      </trkpt>
      <trkpt lat="47.622344" lon="7.703662">
        <ele>356.900501</ele>
        <time>2021-08-16T21:20:41.589Z</time>
      </trkpt>
      <trkpt lat="47.622692" lon="7.702977">
        <ele>352.656743</ele>
        <time>2021-08-16T21:20:46.728Z</time>
      </trkpt>
      <trkpt lat="47.622874" lon="7.702287">
        <ele>348.991021</ele>
        <time>2021-08-16T21:20:51.231Z</time>
      </trkpt>
      <trkpt lat="47.622996" lon="7.702123">
        <ele>347.782632</ele>
        <time>2021-08-16T21:20:52.817Z</time>
      </trkpt>
      <trkpt lat="47.623108" lon="7.702060">
        <ele>346.952457</ele>
        <time>2021-08-16T21:20:53.864Z</time>
      </trkpt>
      <trkpt lat="47.623205" lon="7.702085">
        <ele>346.534373</ele>
        <time>2021-08-16T21:20:54.841Z</time>
      </trkpt>
      <trkpt lat="47.623513" lon="7.702279">
        <ele>345.113455</ele>
        <time>2021-08-16T21:20:57.975Z</time>
      </trkpt>
      <trkpt lat="47.623648" lon="7.702270">
        <ele>344.539593</ele>
        <time>2021-08-16T21:20:59.362Z</time>
      </trkpt>
      <trkpt lat="47.623958" lon="7.701951">
        <ele>342.937532</ele>
        <time>2021-08-16T21:21:03.019Z</time>
      </trkpt>
      <trkpt lat="47.624323" lon="7.701445">
        <ele>340.816245</ele>
        <time>2021-08-16T21:21:07.825Z</time>
      </trkpt>
      <trkpt lat="47.624857" lon="7.700230">
        <ele>337.356003</ele>
        <time>2021-08-16T21:21:18.134Z</time>
      </trkpt>
      <trkpt lat="47.625309" lon="7.699433">
        <ele>335.133287</ele>
        <time>2021-08-16T21:21:25.202Z</time>
      </trkpt>
      <trkpt lat="47.625461" lon="7.699273">
        <ele>334.543225</ele>
        <time>2021-08-16T21:21:27.055Z</time>
      </trkpt>
      <trkpt lat="47.626086" lon="7.698992">
        <ele>332.558607</ele>
        <time>2021-08-16T21:21:33.609Z</time>
      </trkpt>
      <trkpt lat="47.626452" lon="7.698602">
        <ele>331.229757</ele>
        <time>2021-08-16T21:21:38.170Z</time>
      </trkpt>
      <trkpt lat="47.627231" lon="7.697773">
        <ele>328.402677</ele>
        <time>2021-08-16T21:21:48.128Z</time>
      </trkpt>
      <trkpt lat="47.627884" lon="7.697343">
        <ele>327.437893</ele>
        <time>2021-08-16T21:21:55.983Z</time>
      </trkpt>
      <trkpt lat="47.628021" lon="7.697269">
        <ele>327.243233</ele>
        <time>2021-08-16T21:21:57.681Z</time>
      </trkpt>
      <trkpt lat="47.628516" lon="7.697169">
        <ele>326.576231</ele>
        <time>2021-08-16T21:22:06.387Z</time>
      </trkpt>
      <trkpt lat="47.629210" lon="7.696607">
        <ele>326.039542</ele>
        <time>2021-08-16T21:22:21.054Z</time>
      </trkpt>
      <trkpt lat="47.629568" lon="7.696115">
        <ele>326.122004</ele>
        <time>2021-08-16T21:22:31.743Z</time>
      </trkpt>
      <trkpt lat="47.629730" lon="7.695969">
        <ele>326.154036</ele>
        <time>2021-08-16T21:22:35.914Z</time>
      </trkpt>
      <trkpt lat="47.630492" lon="7.695689">
        <ele>326.265303</ele>
        <time>2021-08-16T21:22:55.239Z</time>
      </trkpt>
      <trkpt lat="47.630798" lon="7.695688">
        <ele>325.578236</ele>
        <time>2021-08-16T21:23:00.415Z</time>
      </trkpt>
      <trkpt lat="47.630920" lon="7.695687">
        <ele>325.304304</ele>
        <time>2021-08-16T21:23:02.485Z</time>
      </trkpt>
      <trkpt lat="47.631501" lon="7.695775">
        <ele>323.993001</ele>
        <time>2021-08-16T21:23:11.458Z</time>
      </trkpt>
      <trkpt lat="47.631816" lon="7.695863">
        <ele>323.273304</ele>
        <time>2021-08-16T21:23:16.314Z</time>
      </trkpt>
      <trkpt lat="47.631911" lon="7.695669">
        <ele>322.910447</ele>
        <time>2021-08-16T21:23:17.958Z</time>
      </trkpt>
      <trkpt lat="47.631973" lon="7.695502">
        <ele>322.621952</ele>
        <time>2021-08-16T21:23:19.450Z</time>
      </trkpt>
      <trkpt lat="47.631985" lon="7.695469">
        <ele>322.565214</ele>
        <time>2021-08-16T21:23:19.655Z</time>
      </trkpt>
      <trkpt lat="47.632076" lon="7.695243">
        <ele>322.083493</ele>
        <time>2021-08-16T21:23:21.472Z</time>
      </trkpt>
      <trkpt lat="47.632096" lon="7.695178">
        <ele>321.862459</ele>
        <time>2021-08-16T21:23:21.929Z</time>
      </trkpt>
      <trkpt lat="47.632164" lon="7.694950">
        <ele>321.091194</ele>
        <time>2021-08-16T21:23:23.527Z</time>
      </trkpt>
      <trkpt lat="47.632229" lon="7.694703">
        <ele>320.270952</ele>
        <time>2021-08-16T21:23:25.212Z</time>
      </trkpt>
      <trkpt lat="47.632297" lon="7.694443">
        <ele>319.408240</ele>
        <time>2021-08-16T21:23:26.986Z</time>
      </trkpt>
      <trkpt lat="47.632440" lon="7.693874">
        <ele>317.529727</ele>
        <time>2021-08-16T21:23:30.799Z</time>
      </trkpt>
      <trkpt lat="47.632526" lon="7.693622">
        <ele>316.655954</ele>
        <time>2021-08-16T21:23:32.529Z</time>
      </trkpt>
      <trkpt lat="47.632642" lon="7.693416">
        <ele>315.825547</ele>
        <time>2021-08-16T21:23:34.226Z</time>
      </trkpt>
      <trkpt lat="47.632763" lon="7.693227">
        <ele>315.019141</ele>
        <time>2021-08-16T21:23:35.903Z</time>
      </trkpt>
      <trkpt lat="47.632822" lon="7.693157">
        <ele>314.672396</ele>
        <time>2021-08-16T21:23:36.673Z</time>
      </trkpt>
      <trkpt lat="47.633091" lon="7.692798">
        <ele>313.491427</ele>
        <time>2021-08-16T21:23:40.432Z</time>
      </trkpt>
      <trkpt lat="47.633173" lon="7.692695">
        <ele>313.239997</ele>
        <time>2021-08-16T21:23:41.653Z</time>
      </trkpt>
      <trkpt lat="47.633202" lon="7.692660">
        <ele>313.152513</ele>
        <time>2021-08-16T21:23:42.022Z</time>
      </trkpt>
      <trkpt lat="47.633266" lon="7.692577">
        <ele>312.953591</ele>
        <time>2021-08-16T21:23:42.875Z</time>
      </trkpt>
      <trkpt lat="47.633399" lon="7.692413">
        <ele>312.548887</ele>
        <time>2021-08-16T21:23:44.716Z</time>
      </trkpt>
      <trkpt lat="47.633588" lon="7.692141">
        <ele>311.932712</ele>
        <time>2021-08-16T21:23:47.452Z</time>
      </trkpt>
      <trkpt lat="47.633548" lon="7.692076">
        <ele>311.793887</ele>
        <time>2021-08-16T21:23:48.102Z</time>
      </trkpt>
      <trkpt lat="47.633168" lon="7.691051">
        <ele>309.948865</ele>
        <time>2021-08-16T21:23:56.842Z</time>
      </trkpt>
      <trkpt lat="47.633134" lon="7.690866">
        <ele>309.743212</ele>
        <time>2021-08-16T21:23:58.400Z</time>
      </trkpt>
      <trkpt lat="47.633134" lon="7.690866">
        <ele>309.743212</ele>
        <time>2021-08-16T21:23:58.401Z</time>
      </trkpt>
      <trkpt lat="47.633123" lon="7.690653">
        <ele>309.648689</ele>
        <time>2021-08-16T21:24:00.197Z</time>
      </trkpt>
      <trkpt lat="47.633120" lon="7.690596">
        <ele>309.623392</ele>
        <time>2021-08-16T21:24:00.615Z</time>
      </trkpt>
      <trkpt lat="47.633090" lon="7.690331">
        <ele>309.504494</ele>
        <time>2021-08-16T21:24:02.942Z</time>
      </trkpt>
      <trkpt lat="47.633034" lon="7.690065">
        <ele>309.381187</ele>
        <time>2021-08-16T21:24:05.330Z</time>
      </trkpt>
      <trkpt lat="47.632964" lon="7.689905">
        <ele>309.296780</ele>
        <time>2021-08-16T21:24:07.123Z</time>
      </trkpt>
      <trkpt lat="47.632879" lon="7.689719">
        <ele>309.197341</ele>
        <time>2021-08-16T21:24:09.318Z</time>
      </trkpt>
      <trkpt lat="47.632643" lon="7.689293">
        <ele>308.953329</ele>
        <time>2021-08-16T21:24:14.413Z</time>
      </trkpt>
      <trkpt lat="47.632379" lon="7.688829">
        <ele>308.684630</ele>
        <time>2021-08-16T21:24:19.751Z</time>
      </trkpt>
      <trkpt lat="47.632137" lon="7.688381">
        <ele>308.613380</ele>
        <time>2021-08-16T21:24:24.996Z</time>
      </trkpt>
      <trkpt lat="47.632006" lon="7.688132">
        <ele>308.624461</ele>
        <time>2021-08-16T21:24:27.941Z</time>
      </trkpt>
      <trkpt lat="47.631926" lon="7.687942">
        <ele>308.632321</ele>
        <time>2021-08-16T21:24:30.352Z</time>
      </trkpt>
      <trkpt lat="47.631844" lon="7.687700">
        <ele>308.641823</ele>
        <time>2021-08-16T21:24:33.195Z</time>
      </trkpt>
      <trkpt lat="47.631760" lon="7.687488">
        <ele>308.650451</ele>
        <time>2021-08-16T21:24:35.920Z</time>
      </trkpt>
      <trkpt lat="47.631713" lon="7.687383">
        <ele>308.654873</ele>
        <time>2021-08-16T21:24:37.491Z</time>
      </trkpt>
      <trkpt lat="47.631655" lon="7.687264">
        <ele>308.660025</ele>
        <time>2021-08-16T21:24:39.106Z</time>
      </trkpt>
      <trkpt lat="47.631631" lon="7.687221">
        <ele>308.661983</ele>
        <time>2021-08-16T21:24:39.655Z</time>
      </trkpt>
      <trkpt lat="47.631536" lon="7.687074">
        <ele>308.669128</ele>
        <time>2021-08-16T21:24:42.015Z</time>
      </trkpt>
      <trkpt lat="47.631402" lon="7.686886">
        <ele>308.678728</ele>
        <time>2021-08-16T21:24:44.985Z</time>
      </trkpt>
      <trkpt lat="47.631363" lon="7.686832">
        <ele>308.681505</ele>
        <time>2021-08-16T21:24:45.749Z</time>
      </trkpt>
      <trkpt lat="47.631303" lon="7.686748">
        <ele>308.685799</ele>
        <time>2021-08-16T21:24:47.092Z</time>
      </trkpt>
      <trkpt lat="47.631278" lon="7.686713">
        <ele>308.687588</ele>
        <time>2021-08-16T21:24:47.599Z</time>
      </trkpt>
      <trkpt lat="47.631216" lon="7.686627">
        <ele>308.692007</ele>
        <time>2021-08-16T21:24:48.987Z</time>
      </trkpt>
      <trkpt lat="47.630927" lon="7.686060">
        <ele>308.946142</ele>
        <time>2021-08-16T21:24:55.665Z</time>
      </trkpt>
      <trkpt lat="47.630747" lon="7.685457">
        <ele>309.196253</ele>
        <time>2021-08-16T21:25:01.938Z</time>
      </trkpt>
      <trkpt lat="47.630549" lon="7.684835">
        <ele>309.457132</ele>
        <time>2021-08-16T21:25:09.892Z</time>
      </trkpt>
      <trkpt lat="47.630348" lon="7.684274">
        <ele>309.698086</ele>
        <time>2021-08-16T21:25:18.416Z</time>
      </trkpt>
      <trkpt lat="47.630302" lon="7.684172">
        <ele>309.854463</ele>
        <time>2021-08-16T21:25:20.112Z</time>
      </trkpt>
      <trkpt lat="47.630200" lon="7.683945">
        <ele>310.250329</ele>
        <time>2021-08-16T21:25:24.787Z</time>
      </trkpt>
      <trkpt lat="47.630114" lon="7.683752">
        <ele>310.586042</ele>
        <time>2021-08-16T21:25:28.412Z</time>
      </trkpt>
      <trkpt lat="47.629964" lon="7.683492">
        <ele>311.082646</ele>
        <time>2021-08-16T21:25:34.092Z</time>
      </trkpt>
      <trkpt lat="47.629502" lon="7.682853">
        <ele>312.442449</ele>
        <time>2021-08-16T21:25:51.021Z</time>
      </trkpt>
      <trkpt lat="47.629225" lon="7.682524">
        <ele>313.206362</ele>
        <time>2021-08-16T21:25:59.670Z</time>
      </trkpt>
      <trkpt lat="47.629074" lon="7.682346">
        <ele>313.570096</ele>
        <time>2021-08-16T21:26:03.133Z</time>
      </trkpt>
      <trkpt lat="47.629021" lon="7.682285">
        <ele>313.542749</ele>
        <time>2021-08-16T21:26:04.245Z</time>
      </trkpt>
      <trkpt lat="47.628926" lon="7.682175">
        <ele>313.493620</ele>
        <time>2021-08-16T21:26:06.897Z</time>
      </trkpt>
      <trkpt lat="47.628800" lon="7.682032">
        <ele>313.428946</ele>
        <time>2021-08-16T21:26:10.211Z</time>
      </trkpt>
      <trkpt lat="47.628745" lon="7.681969">
        <ele>313.400618</ele>
        <time>2021-08-16T21:26:11.127Z</time>
      </trkpt>
      <trkpt lat="47.628705" lon="7.681923">
        <ele>313.379986</ele>
        <time>2021-08-16T21:26:12.352Z</time>
      </trkpt>
      <trkpt lat="47.628589" lon="7.681765">
        <ele>313.315788</ele>
        <time>2021-08-16T21:26:15.147Z</time>
      </trkpt>
      <trkpt lat="47.628285" lon="7.681330">
        <ele>313.143604</ele>
        <time>2021-08-16T21:26:21.848Z</time>
      </trkpt>
      <trkpt lat="47.628181" lon="7.681165">
        <ele>313.081529</ele>
        <time>2021-08-16T21:26:23.839Z</time>
      </trkpt>
      <trkpt lat="47.628138" lon="7.681041">
        <ele>313.043212</ele>
        <time>2021-08-16T21:26:24.853Z</time>
      </trkpt>
      <trkpt lat="47.628093" lon="7.680912">
        <ele>313.003301</ele>
        <time>2021-08-16T21:26:26.277Z</time>
      </trkpt>
      <trkpt lat="47.628083" lon="7.680843">
        <ele>312.983908</ele>
        <time>2021-08-16T21:26:26.744Z</time>
      </trkpt>
      <trkpt lat="47.628092" lon="7.680801">
        <ele>312.971799</ele>
        <time>2021-08-16T21:26:27.045Z</time>
      </trkpt>
      <trkpt lat="47.628094" lon="7.680756">
        <ele>312.959407</ele>
        <time>2021-08-16T21:26:27.366Z</time>
      </trkpt>
      <trkpt lat="47.628088" lon="7.680711">
        <ele>312.946803</ele>
        <time>2021-08-16T21:26:27.754Z</time>
      </trkpt>
      <trkpt lat="47.628030" lon="7.680605">
        <ele>312.909287</ele>
        <time>2021-08-16T21:26:28.889Z</time>
      </trkpt>
      <trkpt lat="47.628001" lon="7.680587">
        <ele>312.896471</ele>
        <time>2021-08-16T21:26:29.175Z</time>
      </trkpt>
      <trkpt lat="47.627968" lon="7.680581">
        <ele>312.882916</ele>
        <time>2021-08-16T21:26:29.552Z</time>
      </trkpt>
      <trkpt lat="47.627935" lon="7.680589">
        <ele>312.869283</ele>
        <time>2021-08-16T21:26:29.912Z</time>
      </trkpt>
      <trkpt lat="47.627905" lon="7.680608">
        <ele>312.855985</ele>
        <time>2021-08-16T21:26:30.289Z</time>
      </trkpt>
      <trkpt lat="47.627860" lon="7.680600">
        <ele>312.788259</ele>
        <time>2021-08-16T21:26:30.708Z</time>
      </trkpt>
      <trkpt lat="47.627797" lon="7.680564">
        <ele>312.579323</ele>
        <time>2021-08-16T21:26:31.353Z</time>
      </trkpt>
      <trkpt lat="47.627709" lon="7.680520">
        <ele>312.291925</ele>
        <time>2021-08-16T21:26:32.494Z</time>
      </trkpt>
      <trkpt lat="47.627657" lon="7.680455">
        <ele>312.081496</ele>
        <time>2021-08-16T21:26:33.144Z</time>
      </trkpt>
      <trkpt lat="47.627438" lon="7.680175">
        <ele>311.186807</ele>
        <time>2021-08-16T21:26:35.954Z</time>
      </trkpt>
      <trkpt lat="47.627263" lon="7.679924">
        <ele>310.433530</ele>
        <time>2021-08-16T21:26:38.284Z</time>
      </trkpt>
      <trkpt lat="47.626895" lon="7.679366">
        <ele>308.805108</ele>
        <time>2021-08-16T21:26:43.559Z</time>
      </trkpt>
      <trkpt lat="47.626749" lon="7.679157">
        <ele>308.177245</ele>
        <time>2021-08-16T21:26:45.734Z</time>
      </trkpt>
      <trkpt lat="47.626628" lon="7.678990">
        <ele>307.665804</ele>
        <time>2021-08-16T21:26:47.672Z</time>
      </trkpt>
      <trkpt lat="47.626529" lon="7.678853">
        <ele>307.262217</ele>
        <time>2021-08-16T21:26:49.038Z</time>
      </trkpt>
      <trkpt lat="47.626402" lon="7.678661">
        <ele>306.974713</ele>
        <time>2021-08-16T21:26:51.011Z</time>
      </trkpt>
      <trkpt lat="47.626380" lon="7.678630">
        <ele>306.926603</ele>
        <time>2021-08-16T21:26:51.443Z</time>
      </trkpt>
      <trkpt lat="47.625998" lon="7.678087">
        <ele>306.087752</ele>
        <time>2021-08-16T21:26:57.121Z</time>
      </trkpt>
      <trkpt lat="47.625812" lon="7.677851">
        <ele>305.699677</ele>
        <time>2021-08-16T21:26:59.966Z</time>
      </trkpt>
      <trkpt lat="47.625676" lon="7.677698">
        <ele>305.429042</ele>
        <time>2021-08-16T21:27:01.822Z</time>
      </trkpt>
      <trkpt lat="47.625653" lon="7.677673">
        <ele>305.383831</ele>
        <time>2021-08-16T21:27:02.128Z</time>
      </trkpt>
      <trkpt lat="47.625095" lon="7.677184">
        <ele>304.382519</ele>
        <time>2021-08-16T21:27:10.668Z</time>
      </trkpt>
      <trkpt lat="47.624807" lon="7.676975">
        <ele>304.065061</ele>
        <time>2021-08-16T21:27:14.734Z</time>
      </trkpt>
      <trkpt lat="47.624714" lon="7.676908">
        <ele>303.962691</ele>
        <time>2021-08-16T21:27:16.081Z</time>
      </trkpt>
      <trkpt lat="47.624516" lon="7.676765">
        <ele>303.744640</ele>
        <time>2021-08-16T21:27:18.760Z</time>
      </trkpt>
      <trkpt lat="47.624297" lon="7.676607">
        <ele>303.503510</ele>
        <time>2021-08-16T21:27:21.636Z</time>
      </trkpt>
      <trkpt lat="47.624001" lon="7.676393">
        <ele>303.177469</ele>
        <time>2021-08-16T21:27:25.579Z</time>
      </trkpt>
      <trkpt lat="47.623761" lon="7.676203">
        <ele>302.908109</ele>
        <time>2021-08-16T21:27:28.859Z</time>
      </trkpt>
      <trkpt lat="47.623580" lon="7.676054">
        <ele>302.703146</ele>
        <time>2021-08-16T21:27:31.323Z</time>
      </trkpt>
      <trkpt lat="47.623515" lon="7.675999">
        <ele>302.631492</ele>
        <time>2021-08-16T21:27:32.197Z</time>
      </trkpt>
      <trkpt lat="47.623419" lon="7.675918">
        <ele>302.538581</ele>
        <time>2021-08-16T21:27:33.647Z</time>
      </trkpt>
      <trkpt lat="47.623262" lon="7.675787">
        <ele>302.387044</ele>
        <time>2021-08-16T21:27:35.846Z</time>
      </trkpt>
      <trkpt lat="47.623130" lon="7.675680">
        <ele>302.260500</ele>
        <time>2021-08-16T21:27:37.768Z</time>
      </trkpt>
      <trkpt lat="47.622947" lon="7.675522">
        <ele>302.082373</ele>
        <time>2021-08-16T21:27:40.374Z</time>
      </trkpt>
      <trkpt lat="47.622868" lon="7.675447">
        <ele>302.003469</ele>
        <time>2021-08-16T21:27:41.553Z</time>
      </trkpt>
      <trkpt lat="47.622802" lon="7.675385">
        <ele>301.937750</ele>
        <time>2021-08-16T21:27:42.583Z</time>
      </trkpt>
      <trkpt lat="47.622703" lon="7.675292">
        <ele>301.839171</ele>
        <time>2021-08-16T21:27:44.015Z</time>
      </trkpt>
      <trkpt lat="47.622655" lon="7.675244">
        <ele>301.790472</ele>
        <time>2021-08-16T21:27:44.717Z</time>
      </trkpt>
      <trkpt lat="47.622571" lon="7.675156">
        <ele>301.703962</ele>
        <time>2021-08-16T21:27:45.987Z</time>
      </trkpt>
      <trkpt lat="47.622559" lon="7.675142">
        <ele>301.691119</ele>
        <time>2021-08-16T21:27:46.190Z</time>
      </trkpt>
      <trkpt lat="47.622475" lon="7.675050">
        <ele>301.603281</ele>
        <time>2021-08-16T21:27:47.504Z</time>
      </trkpt>
      <trkpt lat="47.622300" lon="7.674850">
        <ele>301.417440</ele>
        <time>2021-08-16T21:27:50.181Z</time>
      </trkpt>
      <trkpt lat="47.622083" lon="7.674597">
        <ele>301.185255</ele>
        <time>2021-08-16T21:27:53.761Z</time>
      </trkpt>
      <trkpt lat="47.621973" lon="7.674471">
        <ele>301.104860</ele>
        <time>2021-08-16T21:27:55.617Z</time>
      </trkpt>
      <trkpt lat="47.621734" lon="7.674211">
        <ele>300.998359</ele>
        <time>2021-08-16T21:27:59.657Z</time>
      </trkpt>
      <trkpt lat="47.621516" lon="7.673947">
        <ele>300.897235</ele>
        <time>2021-08-16T21:28:03.580Z</time>
      </trkpt>
      <trkpt lat="47.621491" lon="7.673917">
        <ele>300.885681</ele>
        <time>2021-08-16T21:28:04.045Z</time>
      </trkpt>
      <trkpt lat="47.621262" lon="7.673623">
        <ele>300.776854</ele>
        <time>2021-08-16T21:28:08.361Z</time>
      </trkpt>
      <trkpt lat="47.621214" lon="7.673557">
        <ele>300.753336</ele>
        <time>2021-08-16T21:28:09.292Z</time>
      </trkpt>
      <trkpt lat="47.620997" lon="7.673228">
        <ele>300.641840</ele>
        <time>2021-08-16T21:28:13.768Z</time>
      </trkpt>
      <trkpt lat="47.620916" lon="7.673105">
        <ele>300.600188</ele>
        <time>2021-08-16T21:28:15.427Z</time>
      </trkpt>
      <trkpt lat="47.620464" lon="7.672371">
        <ele>300.262071</ele>
        <time>2021-08-16T21:28:24.290Z</time>
      </trkpt>
      <trkpt lat="47.620167" lon="7.671976">
        <ele>300.008364</ele>
        <time>2021-08-16T21:28:29.266Z</time>
      </trkpt>
      <trkpt lat="47.620025" lon="7.671810">
        <ele>299.893372</ele>
        <time>2021-08-16T21:28:31.485Z</time>
      </trkpt>
      <trkpt lat="47.619893" lon="7.671674">
        <ele>299.791150</ele>
        <time>2021-08-16T21:28:33.529Z</time>
      </trkpt>
      <trkpt lat="47.619773" lon="7.671561">
        <ele>299.700745</ele>
        <time>2021-08-16T21:28:35.293Z</time>
      </trkpt>
      <trkpt lat="47.619708" lon="7.671503">
        <ele>299.652499</ele>
        <time>2021-08-16T21:28:36.282Z</time>
      </trkpt>
      <trkpt lat="47.619553" lon="7.671367">
        <ele>299.537956</ele>
        <time>2021-08-16T21:28:38.691Z</time>
      </trkpt>
      <trkpt lat="47.619506" lon="7.671328">
        <ele>299.503703</ele>
        <time>2021-08-16T21:28:39.316Z</time>
      </trkpt>
      <trkpt lat="47.619107" lon="7.671001">
        <ele>299.274038</ele>
        <time>2021-08-16T21:28:45.493Z</time>
      </trkpt>
      <trkpt lat="47.618999" lon="7.670916">
        <ele>299.232917</ele>
        <time>2021-08-16T21:28:47.196Z</time>
      </trkpt>
      <trkpt lat="47.618817" lon="7.670768">
        <ele>299.163110</ele>
        <time>2021-08-16T21:28:50.034Z</time>
      </trkpt>
      <trkpt lat="47.618553" lon="7.670552">
        <ele>299.061706</ele>
        <time>2021-08-16T21:28:54.135Z</time>
      </trkpt>
      <trkpt lat="47.617447" lon="7.669640">
        <ele>298.675253</ele>
        <time>2021-08-16T21:29:11.645Z</time>
      </trkpt>
      <trkpt lat="47.617172" lon="7.669395">
        <ele>298.609341</ele>
        <time>2021-08-16T21:29:16.477Z</time>
      </trkpt>
      <trkpt lat="47.617124" lon="7.669350">
        <ele>298.597674</ele>
        <time>2021-08-16T21:29:17.233Z</time>
      </trkpt>
      <trkpt lat="47.616952" lon="7.669189">
        <ele>298.555886</ele>
        <time>2021-08-16T21:29:20.328Z</time>
      </trkpt>
      <trkpt lat="47.616909" lon="7.669149">
        <ele>298.545457</ele>
        <time>2021-08-16T21:29:20.986Z</time>
      </trkpt>
      <trkpt lat="47.616826" lon="7.669068">
        <ele>298.525043</ele>
        <time>2021-08-16T21:29:22.342Z</time>
      </trkpt>
      <trkpt lat="47.616672" lon="7.668910">
        <ele>298.486570</ele>
        <time>2021-08-16T21:29:25.049Z</time>
      </trkpt>
      <trkpt lat="47.616431" lon="7.668644">
        <ele>298.424848</ele>
        <time>2021-08-16T21:29:29.183Z</time>
      </trkpt>
      <trkpt lat="47.616276" lon="7.668438">
        <ele>298.382088</ele>
        <time>2021-08-16T21:29:32.024Z</time>
      </trkpt>
      <trkpt lat="47.616136" lon="7.668205">
        <ele>298.315698</ele>
        <time>2021-08-16T21:29:34.907Z</time>
      </trkpt>
      <trkpt lat="47.615885" lon="7.667765">
        <ele>298.170493</ele>
        <time>2021-08-16T21:29:40.165Z</time>
      </trkpt>
      <trkpt lat="47.615626" lon="7.667312">
        <ele>298.020856</ele>
        <time>2021-08-16T21:29:45.602Z</time>
      </trkpt>
      <trkpt lat="47.615419" lon="7.666959">
        <ele>297.902991</ele>
        <time>2021-08-16T21:29:49.882Z</time>
      </trkpt>
      <trkpt lat="47.615411" lon="7.666948">
        <ele>297.898915</ele>
        <time>2021-08-16T21:29:50.090Z</time>
      </trkpt>
      <trkpt lat="47.615325" lon="7.666835">
        <ele>297.855982</ele>
        <time>2021-08-16T21:29:51.605Z</time>
      </trkpt>
      <trkpt lat="47.615228" lon="7.666743">
        <ele>297.812956</ele>
        <time>2021-08-16T21:29:53.134Z</time>
      </trkpt>
      <trkpt lat="47.614785" lon="7.666441">
        <ele>297.655491</ele>
        <time>2021-08-16T21:29:59.776Z</time>
      </trkpt>
      <trkpt lat="47.614712" lon="7.666390">
        <ele>297.636950</ele>
        <time>2021-08-16T21:30:00.851Z</time>
      </trkpt>
      <trkpt lat="47.614013" lon="7.665917">
        <ele>297.460411</ele>
        <time>2021-08-16T21:30:11.625Z</time>
      </trkpt>
      <trkpt lat="47.613722" lon="7.665706">
        <ele>297.385985</ele>
        <time>2021-08-16T21:30:16.129Z</time>
      </trkpt>
      <trkpt lat="47.613539" lon="7.665576">
        <ele>297.339362</ele>
        <time>2021-08-16T21:30:19.020Z</time>
      </trkpt>
      <trkpt lat="47.612606" lon="7.664924">
        <ele>297.313299</ele>
        <time>2021-08-16T21:30:33.950Z</time>
      </trkpt>
      <trkpt lat="47.612536" lon="7.664871">
        <ele>297.316483</ele>
        <time>2021-08-16T21:30:35.168Z</time>
      </trkpt>
      <trkpt lat="47.612247" lon="7.664612">
        <ele>297.330164</ele>
        <time>2021-08-16T21:30:40.475Z</time>
      </trkpt>
      <trkpt lat="47.611599" lon="7.664012">
        <ele>297.301963</ele>
        <time>2021-08-16T21:30:52.346Z</time>
      </trkpt>
      <trkpt lat="47.611426" lon="7.663852">
        <ele>297.235693</ele>
        <time>2021-08-16T21:30:55.504Z</time>
      </trkpt>
      <trkpt lat="47.611165" lon="7.663611">
        <ele>297.135759</ele>
        <time>2021-08-16T21:31:00.105Z</time>
      </trkpt>
      <trkpt lat="47.611024" lon="7.663484">
        <ele>297.082138</ele>
        <time>2021-08-16T21:31:02.374Z</time>
      </trkpt>
      <trkpt lat="47.610806" lon="7.663293">
        <ele>296.999837</ele>
        <time>2021-08-16T21:31:05.890Z</time>
      </trkpt>
      <trkpt lat="47.610579" lon="7.663127">
        <ele>296.917570</ele>
        <time>2021-08-16T21:31:09.263Z</time>
      </trkpt>
      <trkpt lat="47.609963" lon="7.662702">
        <ele>296.485416</ele>
        <time>2021-08-16T21:31:17.843Z</time>
      </trkpt>
      <trkpt lat="47.609915" lon="7.662668">
        <ele>296.418186</ele>
        <time>2021-08-16T21:31:18.492Z</time>
      </trkpt>
      <trkpt lat="47.609113" lon="7.662130">
        <ele>295.305688</ele>
        <time>2021-08-16T21:31:28.909Z</time>
      </trkpt>
      <trkpt lat="47.608917" lon="7.661990">
        <ele>295.030735</ele>
        <time>2021-08-16T21:31:31.378Z</time>
      </trkpt>
      <trkpt lat="47.608741" lon="7.661878">
        <ele>294.788679</ele>
        <time>2021-08-16T21:31:33.586Z</time>
      </trkpt>
      <trkpt lat="47.608630" lon="7.661801">
        <ele>294.633801</ele>
        <time>2021-08-16T21:31:34.969Z</time>
      </trkpt>
      <trkpt lat="47.608437" lon="7.661667">
        <ele>294.374660</ele>
        <time>2021-08-16T21:31:37.410Z</time>
      </trkpt>
      <trkpt lat="47.608133" lon="7.661491">
        <ele>293.994029</ele>
        <time>2021-08-16T21:31:41.135Z</time>
      </trkpt>
      <trkpt lat="47.607940" lon="7.661391">
        <ele>293.755579</ele>
        <time>2021-08-16T21:31:43.474Z</time>
      </trkpt>
      <trkpt lat="47.607741" lon="7.661304">
        <ele>293.513598</ele>
        <time>2021-08-16T21:31:45.915Z</time>
      </trkpt>
      <trkpt lat="47.606942" lon="7.661047">
        <ele>292.560002</ele>
        <time>2021-08-16T21:31:55.939Z</time>
      </trkpt>
      <trkpt lat="47.606818" lon="7.661012">
        <ele>292.412776</ele>
        <time>2021-08-16T21:31:57.544Z</time>
      </trkpt>
      <trkpt lat="47.606614" lon="7.660942">
        <ele>292.358418</ele>
        <time>2021-08-16T21:32:00.291Z</time>
      </trkpt>
      <trkpt lat="47.606500" lon="7.660902">
        <ele>292.334508</ele>
        <time>2021-08-16T21:32:01.792Z</time>
      </trkpt>
      <trkpt lat="47.606204" lon="7.660795">
        <ele>292.272325</ele>
        <time>2021-08-16T21:32:06.021Z</time>
      </trkpt>
      <trkpt lat="47.605816" lon="7.660661">
        <ele>292.191015</ele>
        <time>2021-08-16T21:32:11.798Z</time>
      </trkpt>
      <trkpt lat="47.604904" lon="7.660362">
        <ele>291.987600</ele>
        <time>2021-08-16T21:32:26.084Z</time>
      </trkpt>
      <trkpt lat="47.603636" lon="7.659974">
        <ele>291.615119</ele>
        <time>2021-08-16T21:32:44.056Z</time>
      </trkpt>
      <trkpt lat="47.603051" lon="7.659788">
        <ele>291.308730</ele>
        <time>2021-08-16T21:32:51.783Z</time>
      </trkpt>
      <trkpt lat="47.602311" lon="7.659552">
        <ele>290.679907</ele>
        <time>2021-08-16T21:33:01.420Z</time>
      </trkpt>
      <trkpt lat="47.602341" lon="7.659389">
        <ele>290.585260</ele>
        <time>2021-08-16T21:33:03.471Z</time>
      </trkpt>
      <trkpt lat="47.602359" lon="7.659337">
        <ele>290.552517</ele>
        <time>2021-08-16T21:33:04.146Z</time>
      </trkpt>
      <trkpt lat="47.602426" lon="7.659170">
        <ele>290.443662</ele>
        <time>2021-08-16T21:33:06.398Z</time>
      </trkpt>
      <trkpt lat="47.602476" lon="7.659051">
        <ele>290.365120</ele>
        <time>2021-08-16T21:33:08.031Z</time>
      </trkpt>
      <trkpt lat="47.602297" lon="7.659045">
        <ele>290.216374</ele>
        <time>2021-08-16T21:33:10.235Z</time>
      </trkpt>
      <trkpt lat="47.602229" lon="7.659035">
        <ele>290.159605</ele>
        <time>2021-08-16T21:33:11.054Z</time>
      </trkpt>
      <trkpt lat="47.602062" lon="7.659000">
        <ele>290.019252</ele>
        <time>2021-08-16T21:33:13.121Z</time>
      </trkpt>
      <trkpt lat="47.602062" lon="7.659000">
        <ele>290.019252</ele>
        <time>2021-08-16T21:33:13.124Z</time>
      </trkpt>
      <trkpt lat="47.601982" lon="7.658982">
        <ele>289.909664</ele>
        <time>2021-08-16T21:33:14.099Z</time>
      </trkpt>
      <trkpt lat="47.601869" lon="7.658957">
        <ele>289.754928</ele>
        <time>2021-08-16T21:33:15.467Z</time>
      </trkpt>
      <trkpt lat="47.601794" lon="7.658938">
        <ele>289.651880</ele>
        <time>2021-08-16T21:33:16.379Z</time>
      </trkpt>
      <trkpt lat="47.601679" lon="7.658901">
        <ele>289.492506</ele>
        <time>2021-08-16T21:33:17.843Z</time>
      </trkpt>
      <trkpt lat="47.601528" lon="7.658844">
        <ele>289.281477</ele>
        <time>2021-08-16T21:33:19.615Z</time>
      </trkpt>
      <trkpt lat="47.601431" lon="7.658802">
        <ele>289.144620</ele>
        <time>2021-08-16T21:33:20.836Z</time>
      </trkpt>
      <trkpt lat="47.601339" lon="7.658752">
        <ele>289.011916</ele>
        <time>2021-08-16T21:33:22.067Z</time>
      </trkpt>
      <trkpt lat="47.601123" lon="7.658631">
        <ele>288.699201</ele>
        <time>2021-08-16T21:33:24.758Z</time>
      </trkpt>
      <trkpt lat="47.600788" lon="7.658434">
        <ele>288.211125</ele>
        <time>2021-08-16T21:33:28.969Z</time>
      </trkpt>
      <trkpt lat="47.600706" lon="7.658386">
        <ele>288.091729</ele>
        <time>2021-08-16T21:33:30.028Z</time>
      </trkpt>
      <trkpt lat="47.600457" lon="7.658210">
        <ele>287.718150</ele>
        <time>2021-08-16T21:33:33.120Z</time>
      </trkpt>
      <trkpt lat="47.600347" lon="7.658109">
        <ele>287.551711</ele>
        <time>2021-08-16T21:33:34.609Z</time>
      </trkpt>
      <trkpt lat="47.600237" lon="7.657982">
        <ele>287.403421</ele>
        <time>2021-08-16T21:33:36.096Z</time>
      </trkpt>
      <trkpt lat="47.600024" lon="7.657710">
        <ele>287.104421</ele>
        <time>2021-08-16T21:33:39.243Z</time>
      </trkpt>
      <trkpt lat="47.599769" lon="7.657384">
        <ele>286.746291</ele>
        <time>2021-08-16T21:33:43.072Z</time>
      </trkpt>
      <trkpt lat="47.599730" lon="7.657334">
        <ele>286.691452</ele>
        <time>2021-08-16T21:33:43.624Z</time>
      </trkpt>
      <trkpt lat="47.599571" lon="7.657123">
        <ele>286.464488</ele>
        <time>2021-08-16T21:33:46.303Z</time>
      </trkpt>
      <trkpt lat="47.599337" lon="7.656839">
        <ele>286.142842</ele>
        <time>2021-08-16T21:33:50.167Z</time>
      </trkpt>
      <trkpt lat="47.599249" lon="7.656747">
        <ele>286.028310</ele>
        <time>2021-08-16T21:33:51.758Z</time>
      </trkpt>
      <trkpt lat="47.599155" lon="7.656670">
        <ele>285.914079</ele>
        <time>2021-08-16T21:33:53.058Z</time>
      </trkpt>
      <trkpt lat="47.598889" lon="7.656503">
        <ele>285.668128</ele>
        <time>2021-08-16T21:33:57.432Z</time>
      </trkpt>
      <trkpt lat="47.598785" lon="7.656466">
        <ele>285.663774</ele>
        <time>2021-08-16T21:33:58.822Z</time>
      </trkpt>
      <trkpt lat="47.598761" lon="7.656462">
        <ele>285.662791</ele>
        <time>2021-08-16T21:33:59.346Z</time>
      </trkpt>
      <trkpt lat="47.598548" lon="7.656425">
        <ele>285.654060</ele>
        <time>2021-08-16T21:34:02.645Z</time>
      </trkpt>
      <trkpt lat="47.598449" lon="7.656408">
        <ele>285.650003</ele>
        <time>2021-08-16T21:34:04.490Z</time>
      </trkpt>
      <trkpt lat="47.598238" lon="7.656377">
        <ele>285.641371</ele>
        <time>2021-08-16T21:34:07.844Z</time>
      </trkpt>
      <trkpt lat="47.597885" lon="7.656326">
        <ele>285.626932</ele>
        <time>2021-08-16T21:34:13.212Z</time>
      </trkpt>
      <trkpt lat="47.597491" lon="7.656278">
        <ele>285.610838</ele>
        <time>2021-08-16T21:34:19.314Z</time>
      </trkpt>
      <trkpt lat="47.597222" lon="7.656232">
        <ele>285.599814</ele>
        <time>2021-08-16T21:34:23.394Z</time>
      </trkpt>
      <trkpt lat="47.596976" lon="7.656181">
        <ele>285.422712</ele>
        <time>2021-08-16T21:34:26.952Z</time>
      </trkpt>
      <trkpt lat="47.596750" lon="7.656124">
        <ele>285.209448</ele>
        <time>2021-08-16T21:34:30.049Z</time>
      </trkpt>
      <trkpt lat="47.596559" lon="7.656069">
        <ele>285.028444</ele>
        <time>2021-08-16T21:34:32.558Z</time>
      </trkpt>
      <trkpt lat="47.596394" lon="7.656019">
        <ele>284.871774</ele>
        <time>2021-08-16T21:34:34.656Z</time>
      </trkpt>
      <trkpt lat="47.596331" lon="7.655998">
        <ele>284.811703</ele>
        <time>2021-08-16T21:34:35.447Z</time>
      </trkpt>
      <trkpt lat="47.596264" lon="7.655978">
        <ele>284.748124</ele>
        <time>2021-08-16T21:34:36.281Z</time>
      </trkpt>
      <trkpt lat="47.596169" lon="7.655952">
        <ele>284.658254</ele>
        <time>2021-08-16T21:34:37.426Z</time>
      </trkpt>
      <trkpt lat="47.596135" lon="7.655942">
        <ele>284.626008</ele>
        <time>2021-08-16T21:34:37.836Z</time>
      </trkpt>
      <trkpt lat="47.595856" lon="7.655854">
        <ele>284.360651</ele>
        <time>2021-08-16T21:34:41.205Z</time>
      </trkpt>
      <trkpt lat="47.595737" lon="7.655809">
        <ele>284.246404</ele>
        <time>2021-08-16T21:34:42.590Z</time>
      </trkpt>
      <trkpt lat="47.595595" lon="7.655746">
        <ele>284.108517</ele>
        <time>2021-08-16T21:34:44.344Z</time>
      </trkpt>
      <trkpt lat="47.595589" lon="7.655744">
        <ele>284.102796</ele>
        <time>2021-08-16T21:34:44.409Z</time>
      </trkpt>
      <trkpt lat="47.595444" lon="7.655671">
        <ele>283.960342</ele>
        <time>2021-08-16T21:34:46.129Z</time>
      </trkpt>
      <trkpt lat="47.595386" lon="7.655638">
        <ele>283.893624</ele>
        <time>2021-08-16T21:34:46.847Z</time>
      </trkpt>
      <trkpt lat="47.595330" lon="7.655577">
        <ele>283.802193</ele>
        <time>2021-08-16T21:34:47.651Z</time>
      </trkpt>
      <trkpt lat="47.595281" lon="7.655528">
        <ele>283.724426</ele>
        <time>2021-08-16T21:34:48.331Z</time>
      </trkpt>
      <trkpt lat="47.595271" lon="7.655520">
        <ele>283.709474</ele>
        <time>2021-08-16T21:34:48.463Z</time>
      </trkpt>
      <trkpt lat="47.595207" lon="7.655485">
        <ele>283.619716</ele>
        <time>2021-08-16T21:34:49.252Z</time>
      </trkpt>
      <trkpt lat="47.595193" lon="7.655479">
        <ele>283.600540</ele>
        <time>2021-08-16T21:34:49.431Z</time>
      </trkpt>
      <trkpt lat="47.595112" lon="7.655445">
        <ele>283.489769</ele>
        <time>2021-08-16T21:34:50.349Z</time>
      </trkpt>
      <trkpt lat="47.594945" lon="7.655371">
        <ele>283.260422</ele>
        <time>2021-08-16T21:34:52.376Z</time>
      </trkpt>
      <trkpt lat="47.594880" lon="7.655360">
        <ele>283.174337</ele>
        <time>2021-08-16T21:34:53.133Z</time>
      </trkpt>
      <trkpt lat="47.594828" lon="7.655365">
        <ele>283.105770</ele>
        <time>2021-08-16T21:34:53.748Z</time>
      </trkpt>
      <trkpt lat="47.594495" lon="7.655153">
        <ele>282.628918</ele>
        <time>2021-08-16T21:34:57.978Z</time>
      </trkpt>
      <trkpt lat="47.594429" lon="7.655104">
        <ele>282.531796</ele>
        <time>2021-08-16T21:34:58.797Z</time>
      </trkpt>
      <trkpt lat="47.594381" lon="7.655065">
        <ele>282.459775</ele>
        <time>2021-08-16T21:34:59.479Z</time>
      </trkpt>
      <trkpt lat="47.594170" lon="7.654900">
        <ele>282.145891</ele>
        <time>2021-08-16T21:35:02.402Z</time>
      </trkpt>
      <trkpt lat="47.594145" lon="7.654879">
        <ele>282.108084</ele>
        <time>2021-08-16T21:35:02.712Z</time>
      </trkpt>
      <trkpt lat="47.593984" lon="7.654754">
        <ele>281.868951</ele>
        <time>2021-08-16T21:35:04.947Z</time>
      </trkpt>
      <trkpt lat="47.593873" lon="7.654670">
        <ele>281.704971</ele>
        <time>2021-08-16T21:35:06.513Z</time>
      </trkpt>
      <trkpt lat="47.593572" lon="7.654436">
        <ele>281.351445</ele>
        <time>2021-08-16T21:35:10.575Z</time>
      </trkpt>
      <trkpt lat="47.592851" lon="7.653875">
        <ele>280.615046</ele>
        <time>2021-08-16T21:35:20.303Z</time>
      </trkpt>
      <trkpt lat="47.592712" lon="7.653764">
        <ele>280.472262</ele>
        <time>2021-08-16T21:35:22.247Z</time>
      </trkpt>
      <trkpt lat="47.592636" lon="7.653708">
        <ele>280.395509</ele>
        <time>2021-08-16T21:35:23.335Z</time>
      </trkpt>
      <trkpt lat="47.592555" lon="7.653646">
        <ele>280.313067</ele>
        <time>2021-08-16T21:35:24.493Z</time>
      </trkpt>
      <trkpt lat="47.592362" lon="7.653496">
        <ele>280.115993</ele>
        <time>2021-08-16T21:35:27.273Z</time>
      </trkpt>
      <trkpt lat="47.591654" lon="7.652954">
        <ele>279.945225</ele>
        <time>2021-08-16T21:35:38.206Z</time>
      </trkpt>
      <trkpt lat="47.591530" lon="7.652877">
        <ele>279.948535</ele>
        <time>2021-08-16T21:35:40.008Z</time>
      </trkpt>
      <trkpt lat="47.590010" lon="7.652008">
        <ele>280.549381</ele>
        <time>2021-08-16T21:36:06.244Z</time>
      </trkpt>
      <trkpt lat="47.589928" lon="7.651967">
        <ele>280.638672</ele>
        <time>2021-08-16T21:36:08.040Z</time>
      </trkpt>
      <trkpt lat="47.589780" lon="7.651919">
        <ele>280.794992</ele>
        <time>2021-08-16T21:36:11.230Z</time>
      </trkpt>
      <trkpt lat="47.589781" lon="7.651886">
        <ele>280.817980</ele>
        <time>2021-08-16T21:36:11.588Z</time>
      </trkpt>
      <trkpt lat="47.589777" lon="7.651850">
        <ele>280.843370</ele>
        <time>2021-08-16T21:36:12.019Z</time>
      </trkpt>
      <trkpt lat="47.589765" lon="7.651816">
        <ele>280.870074</ele>
        <time>2021-08-16T21:36:12.632Z</time>
      </trkpt>
      <trkpt lat="47.589746" lon="7.651789">
        <ele>280.897229</ele>
        <time>2021-08-16T21:36:13.152Z</time>
      </trkpt>
      <trkpt lat="47.589721" lon="7.651769">
        <ele>280.926540</ele>
        <time>2021-08-16T21:36:13.618Z</time>
      </trkpt>
      <trkpt lat="47.589678" lon="7.651770">
        <ele>280.970914</ele>
        <time>2021-08-16T21:36:14.517Z</time>
      </trkpt>
      <trkpt lat="47.589561" lon="7.651773">
        <ele>281.091655</ele>
        <time>2021-08-16T21:36:16.973Z</time>
      </trkpt>
      <trkpt lat="47.589561" lon="7.651773">
        <ele>281.091655</ele>
        <time>2021-08-16T21:36:16.988Z</time>
      </trkpt>
      <trkpt lat="47.589561" lon="7.651773">
        <ele>281.091655</ele>
        <time>2021-08-16T21:36:17.002Z</time>
      </trkpt>
      <trkpt lat="47.588931" lon="7.651783">
        <ele>281.741741</ele>
        <time>2021-08-16T21:36:29.472Z</time>
      </trkpt>
      <trkpt lat="47.588813" lon="7.651789">
        <ele>281.887615</ele>
        <time>2021-08-16T21:36:32.038Z</time>
      </trkpt>
      <trkpt lat="47.588740" lon="7.651854">
        <ele>282.040003</ele>
        <time>2021-08-16T21:36:33.536Z</time>
      </trkpt>
      <trkpt lat="47.588728" lon="7.651880">
        <ele>282.078029</ele>
        <time>2021-08-16T21:36:34.050Z</time>
      </trkpt>
      <trkpt lat="47.588724" lon="7.651903">
        <ele>282.106698</ele>
        <time>2021-08-16T21:36:34.378Z</time>
      </trkpt>
      <trkpt lat="47.588747" lon="7.651995">
        <ele>282.225124</ele>
        <time>2021-08-16T21:36:35.519Z</time>
      </trkpt>
      <trkpt lat="47.588765" lon="7.652012">
        <ele>282.263317</ele>
        <time>2021-08-16T21:36:35.980Z</time>
      </trkpt>
      <trkpt lat="47.588744" lon="7.652087">
        <ele>282.361332</ele>
        <time>2021-08-16T21:36:37.213Z</time>
      </trkpt>
      <trkpt lat="47.588725" lon="7.652146">
        <ele>282.440246</ele>
        <time>2021-08-16T21:36:38.257Z</time>
      </trkpt>
      <trkpt lat="47.588671" lon="7.652280">
        <ele>282.628654</ele>
        <time>2021-08-16T21:36:40.684Z</time>
      </trkpt>
      <trkpt lat="47.588492" lon="7.652694">
        <ele>283.222213</ele>
        <time>2021-08-16T21:36:47.781Z</time>
      </trkpt>
      <trkpt lat="47.588328" lon="7.653059">
        <ele>283.751578</ele>
        <time>2021-08-16T21:36:54.591Z</time>
      </trkpt>
      <trkpt lat="47.588296" lon="7.653140">
        <ele>283.864882</ele>
        <time>2021-08-16T21:36:56.103Z</time>
      </trkpt>
      <trkpt lat="47.588202" lon="7.653375">
        <ele>284.194660</ele>
        <time>2021-08-16T21:36:59.936Z</time>
      </trkpt>
      <trkpt lat="47.588133" lon="7.653547">
        <ele>284.436212</ele>
        <time>2021-08-16T21:37:03.308Z</time>
      </trkpt>
      <trkpt lat="47.588004" lon="7.653827">
        <ele>284.845496</ele>
        <time>2021-08-16T21:37:08.042Z</time>
      </trkpt>
      <trkpt lat="47.587953" lon="7.653932">
        <ele>285.001676</ele>
        <time>2021-08-16T21:37:10.593Z</time>
      </trkpt>
      <trkpt lat="47.587916" lon="7.654034">
        <ele>285.199056</ele>
        <time>2021-08-16T21:37:12.414Z</time>
      </trkpt>
      <trkpt lat="47.587668" lon="7.654723">
        <ele>286.733080</ele>
        <time>2021-08-16T21:37:23.943Z</time>
      </trkpt>
      <trkpt lat="47.587636" lon="7.654808">
        <ele>286.924289</ele>
        <time>2021-08-16T21:37:26.016Z</time>
      </trkpt>
      <trkpt lat="47.587471" lon="7.655277">
        <ele>287.963317</ele>
        <time>2021-08-16T21:37:35.155Z</time>
      </trkpt>
      <trkpt lat="47.587318" lon="7.655706">
        <ele>288.916536</ele>
        <time>2021-08-16T21:37:44.158Z</time>
      </trkpt>
      <trkpt lat="47.587284" lon="7.655807">
        <ele>289.138264</ele>
        <time>2021-08-16T21:37:46.890Z</time>
      </trkpt>
      <trkpt lat="47.587093" lon="7.656382">
        <ele>290.445094</ele>
        <time>2021-08-16T21:37:59.662Z</time>
      </trkpt>
      <trkpt lat="47.587037" lon="7.656577">
        <ele>291.043464</ele>
        <time>2021-08-16T21:38:03.701Z</time>
      </trkpt>
      <trkpt lat="47.586982" lon="7.656831">
        <ele>291.796632</ele>
        <time>2021-08-16T21:38:09.704Z</time>
      </trkpt>
      <trkpt lat="47.586939" lon="7.657267">
        <ele>293.040681</ele>
        <time>2021-08-16T21:38:18.711Z</time>
      </trkpt>
      <trkpt lat="47.586937" lon="7.657631">
        <ele>294.068396</ele>
        <time>2021-08-16T21:38:26.484Z</time>
      </trkpt>
      <trkpt lat="47.586943" lon="7.657946">
        <ele>294.958090</ele>
        <time>2021-08-16T21:38:33.649Z</time>
      </trkpt>
      <trkpt lat="47.586998" lon="7.659544">
        <ele>299.264954</ele>
        <time>2021-08-16T21:39:08.594Z</time>
      </trkpt>
      <trkpt lat="47.587017" lon="7.660284">
        <ele>301.090200</ele>
        <time>2021-08-16T21:39:23.241Z</time>
      </trkpt>
      <trkpt lat="47.587024" lon="7.660492">
        <ele>301.603508</ele>
        <time>2021-08-16T21:39:26.955Z</time>
      </trkpt>
      <trkpt lat="47.587015" lon="7.660615">
        <ele>301.908453</ele>
        <time>2021-08-16T21:39:29.172Z</time>
      </trkpt>
      <trkpt lat="47.587000" lon="7.660726">
        <ele>302.187479</ele>
        <time>2021-08-16T21:39:31.241Z</time>
      </trkpt>
      <trkpt lat="47.586967" lon="7.660813">
        <ele>302.433497</ele>
        <time>2021-08-16T21:39:33.086Z</time>
      </trkpt>
      <trkpt lat="47.586708" lon="7.661485">
        <ele>304.341178</ele>
        <time>2021-08-16T21:39:47.936Z</time>
      </trkpt>
      <trkpt lat="47.586507" lon="7.663146">
        <ele>309.439745</ele>
        <time>2021-08-16T21:40:22.182Z</time>
      </trkpt>
      <trkpt lat="47.586501" lon="7.663218">
        <ele>309.659413</ele>
        <time>2021-08-16T21:40:24.400Z</time>
      </trkpt>
      <trkpt lat="47.586481" lon="7.663467">
        <ele>310.418694</ele>
        <time>2021-08-16T21:40:30.241Z</time>
      </trkpt>
      <trkpt lat="47.586382" lon="7.664613">
        <ele>314.237695</ele>
        <time>2021-08-16T21:40:59.345Z</time>
      </trkpt>
      <trkpt lat="47.586337" lon="7.664940">
        <ele>315.471298</ele>
        <time>2021-08-16T21:41:08.478Z</time>
      </trkpt>
      <trkpt lat="47.586255" lon="7.665387">
        <ele>317.183581</ele>
        <time>2021-08-16T21:41:21.114Z</time>
      </trkpt>
      <trkpt lat="47.586073" lon="7.665946">
        <ele>319.477976</ele>
        <time>2021-08-16T21:41:36.024Z</time>
      </trkpt>
      <trkpt lat="47.585976" lon="7.666166">
        <ele>320.449509</ele>
        <time>2021-08-16T21:41:42.739Z</time>
      </trkpt>
      <trkpt lat="47.585693" lon="7.666670">
        <ele>322.594757</ele>
        <time>2021-08-16T21:41:57.997Z</time>
      </trkpt>
      <trkpt lat="47.585548" lon="7.666929">
        <ele>323.210556</ele>
        <time>2021-08-16T21:42:06.049Z</time>
      </trkpt>
      <trkpt lat="47.585433" lon="7.667173">
        <ele>323.755138</ele>
        <time>2021-08-16T21:42:12.084Z</time>
      </trkpt>
      <trkpt lat="47.585355" lon="7.667337">
        <ele>324.122267</ele>
        <time>2021-08-16T21:42:16.138Z</time>
      </trkpt>
      <trkpt lat="47.585252" lon="7.667569">
        <ele>324.630407</ele>
        <time>2021-08-16T21:42:20.729Z</time>
      </trkpt>
      <trkpt lat="47.585156" lon="7.667797">
        <ele>325.122138</ele>
        <time>2021-08-16T21:42:25.772Z</time>
      </trkpt>
      <trkpt lat="47.585076" lon="7.668024">
        <ele>325.590709</ele>
        <time>2021-08-16T21:42:29.712Z</time>
      </trkpt>
      <trkpt lat="47.584991" lon="7.668565">
        <ele>326.606973</ele>
        <time>2021-08-16T21:42:37.071Z</time>
      </trkpt>
      <trkpt lat="47.584987" lon="7.668633">
        <ele>326.731852</ele>
        <time>2021-08-16T21:42:38.305Z</time>
      </trkpt>
      <trkpt lat="47.584984" lon="7.668707">
        <ele>326.867480</ele>
        <time>2021-08-16T21:42:39.256Z</time>
      </trkpt>
      <trkpt lat="47.585005" lon="7.669173">
        <ele>327.287684</ele>
        <time>2021-08-16T21:42:44.700Z</time>
      </trkpt>
      <trkpt lat="47.585100" lon="7.669952">
        <ele>327.530504</ele>
        <time>2021-08-16T21:42:51.850Z</time>
      </trkpt>
      <trkpt lat="47.585355" lon="7.671318">
        <ele>327.965253</ele>
        <time>2021-08-16T21:43:08.941Z</time>
      </trkpt>
      <trkpt lat="47.585404" lon="7.671489">
        <ele>328.026285</ele>
        <time>2021-08-16T21:43:10.475Z</time>
      </trkpt>
      <trkpt lat="47.585424" lon="7.671571">
        <ele>328.079569</ele>
        <time>2021-08-16T21:43:12.000Z</time>
      </trkpt>
      <trkpt lat="47.585539" lon="7.671938">
        <ele>328.326854</ele>
        <time>2021-08-16T21:43:15.910Z</time>
      </trkpt>
      <trkpt lat="47.585545" lon="7.672001">
        <ele>328.365734</ele>
        <time>2021-08-16T21:43:16.870Z</time>
      </trkpt>
      <trkpt lat="47.585545" lon="7.672019">
        <ele>328.376733</ele>
        <time>2021-08-16T21:43:17.166Z</time>
      </trkpt>
      <trkpt lat="47.585543" lon="7.672092">
        <ele>328.421378</ele>
        <time>2021-08-16T21:43:18.228Z</time>
      </trkpt>
      <trkpt lat="47.585549" lon="7.672172">
        <ele>328.470566</ele>
        <time>2021-08-16T21:43:19.378Z</time>
      </trkpt>
      <trkpt lat="47.585586" lon="7.672395">
        <ele>328.610898</ele>
        <time>2021-08-16T21:43:21.382Z</time>
      </trkpt>
      <trkpt lat="47.585619" lon="7.672464">
        <ele>328.662586</ele>
        <time>2021-08-16T21:43:22.153Z</time>
      </trkpt>
      <trkpt lat="47.585668" lon="7.672754">
        <ele>328.845274</ele>
        <time>2021-08-16T21:43:26.189Z</time>
      </trkpt>
      <trkpt lat="47.585727" lon="7.673021">
        <ele>329.016964</ele>
        <time>2021-08-16T21:43:28.917Z</time>
      </trkpt>
      <trkpt lat="47.585762" lon="7.673153">
        <ele>329.103634</ele>
        <time>2021-08-16T21:43:31.224Z</time>
      </trkpt>
      <trkpt lat="47.585881" lon="7.673564">
        <ele>329.376948</ele>
        <time>2021-08-16T21:43:36.830Z</time>
      </trkpt>
      <trkpt lat="47.586072" lon="7.674192">
        <ele>329.967931</ele>
        <time>2021-08-16T21:43:47.683Z</time>
      </trkpt>
      <trkpt lat="47.586282" lon="7.674868">
        <ele>330.937513</ele>
        <time>2021-08-16T21:43:58.685Z</time>
      </trkpt>
      <trkpt lat="47.586570" lon="7.675797">
        <ele>332.269487</ele>
        <time>2021-08-16T21:44:13.417Z</time>
      </trkpt>
      <trkpt lat="47.587035" lon="7.676810">
        <ele>334.115212</ele>
        <time>2021-08-16T21:44:33.775Z</time>
      </trkpt>
      <trkpt lat="47.587298" lon="7.677566">
        <ele>335.594848</ele>
        <time>2021-08-16T21:44:48.505Z</time>
      </trkpt>
      <trkpt lat="47.587354" lon="7.677825">
        <ele>336.067945</ele>
        <time>2021-08-16T21:44:53.469Z</time>
      </trkpt>
      <trkpt lat="47.587436" lon="7.678335">
        <ele>336.979914</ele>
        <time>2021-08-16T21:45:02.416Z</time>
      </trkpt>
      <trkpt lat="47.587540" lon="7.679268">
        <ele>338.635808</ele>
        <time>2021-08-16T21:45:18.350Z</time>
      </trkpt>
      <trkpt lat="47.587744" lon="7.680442">
        <ele>340.771391</ele>
        <time>2021-08-16T21:45:39.317Z</time>
      </trkpt>
      <trkpt lat="47.588280" lon="7.682046">
        <ele>343.823173</ele>
        <time>2021-08-16T21:46:09.755Z</time>
      </trkpt>
      <trkpt lat="47.588285" lon="7.682079">
        <ele>343.878629</ele>
        <time>2021-08-16T21:46:10.902Z</time>
      </trkpt>
      <trkpt lat="47.588321" lon="7.682306">
        <ele>344.260971</ele>
        <time>2021-08-16T21:46:14.096Z</time>
      </trkpt>
      <trkpt lat="47.588331" lon="7.682568">
        <ele>344.691237</ele>
        <time>2021-08-16T21:46:17.743Z</time>
      </trkpt>
      <trkpt lat="47.588267" lon="7.683225">
        <ele>345.779638</ele>
        <time>2021-08-16T21:46:28.200Z</time>
      </trkpt>
      <trkpt lat="47.588213" lon="7.683697">
        <ele>346.564591</ele>
        <time>2021-08-16T21:46:36.386Z</time>
      </trkpt>
      <trkpt lat="47.588141" lon="7.684098">
        <ele>347.406244</ele>
        <time>2021-08-16T21:46:43.670Z</time>
      </trkpt>
      <trkpt lat="47.588113" lon="7.684259">
        <ele>347.784965</ele>
        <time>2021-08-16T21:46:47.153Z</time>
      </trkpt>
      <trkpt lat="47.588065" lon="7.684505">
        <ele>348.368281</ele>
        <time>2021-08-16T21:46:51.648Z</time>
      </trkpt>
      <trkpt lat="47.588063" lon="7.684610">
        <ele>348.607545</ele>
        <time>2021-08-16T21:46:53.607Z</time>
      </trkpt>
      <trkpt lat="47.588091" lon="7.684905">
        <ele>349.286117</ele>
        <time>2021-08-16T21:46:58.716Z</time>
      </trkpt>
      <trkpt lat="47.588131" lon="7.685235">
        <ele>350.049832</ele>
        <time>2021-08-16T21:47:04.975Z</time>
      </trkpt>
      <trkpt lat="47.588151" lon="7.685579">
        <ele>350.836299</ele>
        <time>2021-08-16T21:47:11.423Z</time>
      </trkpt>
      <trkpt lat="47.588143" lon="7.686239">
        <ele>352.339886</ele>
        <time>2021-08-16T21:47:24.575Z</time>
      </trkpt>
      <trkpt lat="47.588160" lon="7.687151">
        <ele>355.056220</ele>
        <time>2021-08-16T21:47:44.530Z</time>
      </trkpt>
      <trkpt lat="47.588146" lon="7.687409">
        <ele>355.894483</ele>
        <time>2021-08-16T21:47:51.099Z</time>
      </trkpt>
      <trkpt lat="47.588078" lon="7.688097">
        <ele>358.146451</ele>
        <time>2021-08-16T21:48:08.053Z</time>
      </trkpt>
      <trkpt lat="47.588009" lon="7.688724">
        <ele>360.203922</ele>
        <time>2021-08-16T21:48:22.463Z</time>
      </trkpt>
      <trkpt lat="47.588000" lon="7.688805">
        <ele>360.469786</ele>
        <time>2021-08-16T21:48:24.565Z</time>
      </trkpt>
      <trkpt lat="47.587966" lon="7.689143">
        <ele>361.575852</ele>
        <time>2021-08-16T21:48:32.259Z</time>
      </trkpt>
      <trkpt lat="47.587912" lon="7.689642">
        <ele>363.179663</ele>
        <time>2021-08-16T21:48:43.852Z</time>
      </trkpt>
      <trkpt lat="47.587732" lon="7.692362">
        <ele>371.638904</ele>
        <time>2021-08-16T21:49:46.191Z</time>
      </trkpt>
      <trkpt lat="47.587623" lon="7.693388">
        <ele>374.553288</ele>
        <time>2021-08-16T21:50:08.097Z</time>
      </trkpt>
      <trkpt lat="47.587605" lon="7.693523">
        <ele>374.939421</ele>
        <time>2021-08-16T21:50:11.073Z</time>
      </trkpt>
      <trkpt lat="47.587461" lon="7.694004">
        <ele>376.416063</ele>
        <time>2021-08-16T21:50:21.243Z</time>
      </trkpt>
      <trkpt lat="47.587399" lon="7.694138">
        <ele>376.872029</ele>
        <time>2021-08-16T21:50:24.377Z</time>
      </trkpt>
      <trkpt lat="47.587355" lon="7.694241">
        <ele>377.214134</ele>
        <time>2021-08-16T21:50:26.569Z</time>
      </trkpt>
      <trkpt lat="47.587293" lon="7.694407">
        <ele>377.819237</ele>
        <time>2021-08-16T21:50:30.186Z</time>
      </trkpt>
      <trkpt lat="47.587240" lon="7.694546">
        <ele>378.393024</ele>
        <time>2021-08-16T21:50:33.818Z</time>
      </trkpt>
      <trkpt lat="47.587185" lon="7.694749">
        <ele>379.179158</ele>
        <time>2021-08-16T21:50:38.733Z</time>
      </trkpt>
      <trkpt lat="47.587125" lon="7.694964">
        <ele>380.015282</ele>
        <time>2021-08-16T21:50:43.932Z</time>
      </trkpt>
      <trkpt lat="47.587076" lon="7.695397">
        <ele>381.593014</ele>
        <time>2021-08-16T21:50:53.723Z</time>
      </trkpt>
      <trkpt lat="47.587104" lon="7.696124">
        <ele>384.209740</ele>
        <time>2021-08-16T21:51:12.063Z</time>
      </trkpt>
      <trkpt lat="47.587152" lon="7.696499">
        <ele>385.581352</ele>
        <time>2021-08-16T21:51:22.459Z</time>
      </trkpt>
      <trkpt lat="47.587203" lon="7.696958">
        <ele>387.304442</ele>
        <time>2021-08-16T21:51:35.616Z</time>
      </trkpt>
      <trkpt lat="47.587195" lon="7.697486">
        <ele>389.737695</ele>
        <time>2021-08-16T21:51:50.397Z</time>
      </trkpt>
      <trkpt lat="47.587113" lon="7.698428">
        <ele>394.113748</ele>
        <time>2021-08-16T21:52:17.900Z</time>
      </trkpt>
      <trkpt lat="47.586792" lon="7.698373">
        <ele>396.321085</ele>
        <time>2021-08-16T21:52:32.320Z</time>
      </trkpt>
      <trkpt lat="47.585826" lon="7.698379">
        <ele>402.665646</ele>
        <time>2021-08-16T21:53:12.159Z</time>
      </trkpt>
      <trkpt lat="47.585351" lon="7.698544">
        <ele>405.760430</ele>
        <time>2021-08-16T21:53:30.469Z</time>
      </trkpt>
      <trkpt lat="47.584998" lon="7.698675">
        <ele>408.068786</ele>
        <time>2021-08-16T21:53:43.570Z</time>
      </trkpt>
      <trkpt lat="47.584483" lon="7.698786">
        <ele>411.635804</ele>
        <time>2021-08-16T21:54:04.135Z</time>
      </trkpt>
      <trkpt lat="47.583204" lon="7.698814">
        <ele>423.325300</ele>
        <time>2021-08-16T21:55:09.160Z</time>
      </trkpt>
      <trkpt lat="47.582704" lon="7.698936">
        <ele>428.207056</ele>
        <time>2021-08-16T21:55:38.051Z</time>
      </trkpt>
      <trkpt lat="47.582483" lon="7.699048">
        <ele>431.053708</ele>
        <time>2021-08-16T21:55:52.807Z</time>
      </trkpt>
      <trkpt lat="47.581867" lon="7.699553">
        <ele>439.633196</ele>
        <time>2021-08-16T21:56:39.729Z</time>
      </trkpt>
      <trkpt lat="47.581097" lon="7.700270">
        <ele>450.534628</ele>
        <time>2021-08-16T21:57:39.256Z</time>
      </trkpt>
      <trkpt lat="47.580855" lon="7.700494">
        <ele>453.615299</ele>
        <time>2021-08-16T21:57:56.516Z</time>
      </trkpt>
      <trkpt lat="47.580164" lon="7.701066">
        <ele>462.161202</ele>
        <time>2021-08-16T21:58:42.778Z</time>
      </trkpt>
      <trkpt lat="47.579420" lon="7.701212">
        <ele>469.703402</ele>
        <time>2021-08-16T21:59:24.654Z</time>
      </trkpt>
      <trkpt lat="47.578727" lon="7.701081">
        <ele>474.779121</ele>
        <time>2021-08-16T21:59:57.109Z</time>
      </trkpt>
      <trkpt lat="47.578229" lon="7.701002">
        <ele>478.417967</ele>
        <time>2021-08-16T22:00:18.452Z</time>
      </trkpt>
      <trkpt lat="47.578079" lon="7.700973">
        <ele>479.517012</ele>
        <time>2021-08-16T22:00:24.269Z</time>
      </trkpt>
      <trkpt lat="47.577347" lon="7.700798">
        <ele>482.994146</ele>
        <time>2021-08-16T22:00:49.762Z</time>
      </trkpt>
      <trkpt lat="47.576967" lon="7.700886">
        <ele>484.165276</ele>
        <time>2021-08-16T22:01:01.216Z</time>
      </trkpt>
      <trkpt lat="47.575795" lon="7.701398">
        <ele>487.607493</ele>
        <time>2021-08-16T22:01:27.436Z</time>
      </trkpt>
      <trkpt lat="47.575365" lon="7.701553">
        <ele>488.481991</ele>
        <time>2021-08-16T22:01:37.053Z</time>
      </trkpt>
      <trkpt lat="47.575256" lon="7.701586">
        <ele>488.701836</ele>
        <time>2021-08-16T22:01:39.476Z</time>
      </trkpt>
      <trkpt lat="47.575087" lon="7.701638">
        <ele>489.042920</ele>
        <time>2021-08-16T22:01:43.485Z</time>
      </trkpt>
      <trkpt lat="47.574915" lon="7.701638">
        <ele>489.382814</ele>
        <time>2021-08-16T22:01:47.308Z</time>
      </trkpt>
      <trkpt lat="47.574763" lon="7.701603">
        <ele>489.686788</ele>
        <time>2021-08-16T22:01:51.087Z</time>
      </trkpt>
      <trkpt lat="47.574305" lon="7.701458">
        <ele>490.612268</ele>
        <time>2021-08-16T22:02:02.194Z</time>
      </trkpt>
      <trkpt lat="47.572597" lon="7.700557">
        <ele>494.704637</ele>
        <time>2021-08-16T22:02:46.152Z</time>
      </trkpt>
      <trkpt lat="47.571718" lon="7.700291">
        <ele>495.645408</ele>
        <time>2021-08-16T22:03:06.125Z</time>
      </trkpt>
      <trkpt lat="47.571273" lon="7.700147">
        <ele>496.120900</ele>
        <time>2021-08-16T22:03:14.454Z</time>
      </trkpt>
      <trkpt lat="47.571068" lon="7.700068">
        <ele>496.342021</ele>
        <time>2021-08-16T22:03:17.748Z</time>
      </trkpt>
      <trkpt lat="47.570278" lon="7.699755">
        <ele>495.524838</ele>
        <time>2021-08-16T22:03:28.358Z</time>
      </trkpt>
      <trkpt lat="47.569386" lon="7.699378">
        <ele>493.821292</ele>
        <time>2021-08-16T22:03:38.499Z</time>
      </trkpt>
      <trkpt lat="47.569356" lon="7.699484">
        <ele>493.678854</ele>
        <time>2021-08-16T22:03:39.578Z</time>
      </trkpt>
      <trkpt lat="47.569356" lon="7.699484">
        <ele>493.678854</ele>
        <time>2021-08-16T22:03:39.585Z</time>
      </trkpt>
      <trkpt lat="47.569356" lon="7.699484">
        <ele>493.678854</ele>
        <time>2021-08-16T22:03:39.656Z</time>
      </trkpt>
      <trkpt lat="47.569386" lon="7.699378">
        <ele>493.536417</ele>
        <time>2021-08-16T22:03:41.003Z</time>
      </trkpt>
      <trkpt lat="47.569093" lon="7.699112">
        <ele>492.307566</ele>
        <time>2021-08-16T22:03:44.420Z</time>
      </trkpt>
      <trkpt lat="47.568602" lon="7.698487">
        <ele>489.255740</ele>
        <time>2021-08-16T22:03:50.635Z</time>
      </trkpt>
      <trkpt lat="47.567964" lon="7.697996">
        <ele>485.866043</ele>
        <time>2021-08-16T22:03:57.458Z</time>
      </trkpt>
      <trkpt lat="47.567166" lon="7.697504">
        <ele>479.610911</ele>
        <time>2021-08-16T22:04:05.310Z</time>
      </trkpt>
      <trkpt lat="47.566435" lon="7.697358">
        <ele>473.618446</ele>
        <time>2021-08-16T22:04:11.788Z</time>
      </trkpt>
      <trkpt lat="47.565744" lon="7.697318">
        <ele>466.856545</ele>
        <time>2021-08-16T22:04:17.730Z</time>
      </trkpt>
      <trkpt lat="47.565173" lon="7.697132">
        <ele>459.629504</ele>
        <time>2021-08-16T22:04:22.691Z</time>
      </trkpt>
      <trkpt lat="47.563259" lon="7.696241">
        <ele>433.843905</ele>
        <time>2021-08-16T22:04:39.474Z</time>
      </trkpt>
      <trkpt lat="47.562620" lon="7.695953">
        <ele>424.967848</ele>
        <time>2021-08-16T22:04:45.086Z</time>
      </trkpt>
      <trkpt lat="47.562128" lon="7.695702">
        <ele>418.786111</ele>
        <time>2021-08-16T22:04:49.479Z</time>
      </trkpt>
      <trkpt lat="47.561669" lon="7.695498">
        <ele>413.195729</ele>
        <time>2021-08-16T22:04:53.529Z</time>
      </trkpt>
      <trkpt lat="47.561053" lon="7.695338">
        <ele>405.899849</ele>
        <time>2021-08-16T22:04:58.852Z</time>
      </trkpt>
      <trkpt lat="47.560012" lon="7.695119">
        <ele>394.875455</ele>
        <time>2021-08-16T22:05:07.861Z</time>
      </trkpt>
      <trkpt lat="47.559078" lon="7.694904">
        <ele>385.299336</ele>
        <time>2021-08-16T22:05:15.998Z</time>
      </trkpt>
      <trkpt lat="47.558618" lon="7.694872">
        <ele>381.331531</ele>
        <time>2021-08-16T22:05:19.998Z</time>
      </trkpt>
      <trkpt lat="47.556836" lon="7.695079">
        <ele>366.553617</ele>
        <time>2021-08-16T22:05:35.753Z</time>
      </trkpt>
      <trkpt lat="47.555130" lon="7.694964">
        <ele>352.262314</ele>
        <time>2021-08-16T22:05:51.025Z</time>
      </trkpt>
      <trkpt lat="47.554864" lon="7.694875">
        <ele>349.085057</ele>
        <time>2021-08-16T22:05:53.389Z</time>
      </trkpt>
      <trkpt lat="47.554572" lon="7.694665">
        <ele>345.303335</ele>
        <time>2021-08-16T22:05:56.154Z</time>
      </trkpt>
      <trkpt lat="47.554384" lon="7.694448">
        <ele>342.526726</ele>
        <time>2021-08-16T22:05:58.187Z</time>
      </trkpt>
      <trkpt lat="47.554245" lon="7.694182">
        <ele>339.881389</ele>
        <time>2021-08-16T22:06:00.101Z</time>
      </trkpt>
      <trkpt lat="47.554028" lon="7.693827">
        <ele>336.115122</ele>
        <time>2021-08-16T22:06:02.779Z</time>
      </trkpt>
      <trkpt lat="47.553606" lon="7.693126">
        <ele>325.922941</ele>
        <time>2021-08-16T22:06:08.013Z</time>
      </trkpt>
      <trkpt lat="47.553281" lon="7.692750">
        <ele>318.957493</ele>
        <time>2021-08-16T22:06:11.425Z</time>
      </trkpt>
      <trkpt lat="47.553101" lon="7.692582">
        <ele>315.363841</ele>
        <time>2021-08-16T22:06:13.179Z</time>
      </trkpt>
      <trkpt lat="47.553059" lon="7.692566">
        <ele>314.631274</ele>
        <time>2021-08-16T22:06:13.534Z</time>
      </trkpt>
      <trkpt lat="47.552195" lon="7.692398">
        <ele>301.346151</ele>
        <time>2021-08-16T22:06:20.721Z</time>
      </trkpt>
      <trkpt lat="47.551995" lon="7.692291">
        <ele>298.857911</ele>
        <time>2021-08-16T22:06:22.476Z</time>
      </trkpt>
      <trkpt lat="47.551619" lon="7.692088">
        <ele>294.175060</ele>
        <time>2021-08-16T22:06:25.826Z</time>
      </trkpt>
      <trkpt lat="47.551568" lon="7.692024">
        <ele>293.392983</ele>
        <time>2021-08-16T22:06:26.412Z</time>
      </trkpt>
      <trkpt lat="47.551434" lon="7.691862">
        <ele>291.369198</ele>
        <time>2021-08-16T22:06:27.914Z</time>
      </trkpt>
      <trkpt lat="47.551182" lon="7.691473">
        <ele>287.110744</ele>
        <time>2021-08-16T22:06:31.132Z</time>
      </trkpt>
      <trkpt lat="47.551000" lon="7.691170">
        <ele>283.907245</ele>
        <time>2021-08-16T22:06:33.571Z</time>
      </trkpt>
      <trkpt lat="47.550764" lon="7.690746">
        <ele>282.149723</ele>
        <time>2021-08-16T22:06:36.912Z</time>
      </trkpt>
      <trkpt lat="47.550476" lon="7.690324">
        <ele>280.495571</ele>
        <time>2021-08-16T22:06:40.695Z</time>
      </trkpt>
      <trkpt lat="47.550112" lon="7.690714">
        <ele>278.661117</ele>
        <time>2021-08-16T22:06:45.268Z</time>
      </trkpt>
      <trkpt lat="47.549797" lon="7.691193">
        <ele>276.817763</ele>
        <time>2021-08-16T22:06:50.101Z</time>
      </trkpt>
      <trkpt lat="47.549695" lon="7.691435">
        <ele>276.167991</ele>
        <time>2021-08-16T22:06:52.262Z</time>
      </trkpt>
      <trkpt lat="47.549685" lon="7.691459">
        <ele>276.157567</ele>
        <time>2021-08-16T22:06:52.493Z</time>
      </trkpt>
      <trkpt lat="47.549325" lon="7.692315">
        <ele>275.784816</ele>
        <time>2021-08-16T22:07:01.042Z</time>
      </trkpt>
      <trkpt lat="47.549253" lon="7.692474">
        <ele>275.714052</ele>
        <time>2021-08-16T22:07:02.916Z</time>
      </trkpt>
      <trkpt lat="47.549216" lon="7.692540">
        <ele>275.682343</ele>
        <time>2021-08-16T22:07:03.708Z</time>
      </trkpt>
      <trkpt lat="47.549059" lon="7.692848">
        <ele>275.539696</ele>
        <time>2021-08-16T22:07:07.169Z</time>
      </trkpt>
      <trkpt lat="47.548974" lon="7.693002">
        <ele>275.466172</ele>
        <time>2021-08-16T22:07:09.113Z</time>
      </trkpt>
      <trkpt lat="47.548782" lon="7.693465">
        <ele>275.265337</ele>
        <time>2021-08-16T22:07:14.541Z</time>
      </trkpt>
      <trkpt lat="47.548638" lon="7.694044">
        <ele>275.237272</ele>
        <time>2021-08-16T22:07:21.113Z</time>
      </trkpt>
      <trkpt lat="47.548591" lon="7.694324">
        <ele>275.258346</ele>
        <time>2021-08-16T22:07:24.568Z</time>
      </trkpt>
      <trkpt lat="47.548452" lon="7.695145">
        <ele>275.320170</ele>
        <time>2021-08-16T22:07:34.265Z</time>
      </trkpt>
      <trkpt lat="47.548427" lon="7.695434">
        <ele>275.341451</ele>
        <time>2021-08-16T22:07:37.573Z</time>
      </trkpt>
      <trkpt lat="47.548417" lon="7.695616">
        <ele>275.354788</ele>
        <time>2021-08-16T22:07:39.339Z</time>
      </trkpt>
      <trkpt lat="47.548389" lon="7.696070">
        <ele>275.388087</ele>
        <time>2021-08-16T22:07:43.773Z</time>
      </trkpt>
      <trkpt lat="47.548339" lon="7.696589">
        <ele>275.183832</ele>
        <time>2021-08-16T22:07:48.230Z</time>
      </trkpt>
      <trkpt lat="47.548314" lon="7.696826">
        <ele>275.046661</ele>
        <time>2021-08-16T22:07:50.240Z</time>
      </trkpt>
      <trkpt lat="47.548314" lon="7.696826">
        <ele>275.046661</ele>
        <time>2021-08-16T22:07:50.261Z</time>
      </trkpt>
      <trkpt lat="47.548224" lon="7.697419">
        <ele>274.699093</ele>
        <time>2021-08-16T22:07:55.352Z</time>
      </trkpt>
      <trkpt lat="47.548069" lon="7.698253">
        <ele>274.204430</ele>
        <time>2021-08-16T22:08:02.411Z</time>
      </trkpt>
      <trkpt lat="47.547999" lon="7.698586">
        <ele>274.004985</ele>
        <time>2021-08-16T22:08:05.460Z</time>
      </trkpt>
      <trkpt lat="47.547999" lon="7.698586">
        <ele>274.004985</ele>
        <time>2021-08-16T22:08:05.466Z</time>
      </trkpt>
      <trkpt lat="47.547970" lon="7.698727">
        <ele>273.920695</ele>
        <time>2021-08-16T22:08:06.726Z</time>
      </trkpt>
      <trkpt lat="47.547913" lon="7.699038">
        <ele>273.767433</ele>
        <time>2021-08-16T22:08:09.575Z</time>
      </trkpt>
      <trkpt lat="47.547903" lon="7.699114">
        <ele>273.733060</ele>
        <time>2021-08-16T22:08:10.136Z</time>
      </trkpt>
      <trkpt lat="47.547900" lon="7.699136">
        <ele>273.723096</ele>
        <time>2021-08-16T22:08:10.332Z</time>
      </trkpt>
      <trkpt lat="47.547846" lon="7.699539">
        <ele>273.540704</ele>
        <time>2021-08-16T22:08:13.938Z</time>
      </trkpt>
      <trkpt lat="47.547753" lon="7.701064">
        <ele>272.860964</ele>
        <time>2021-08-16T22:08:27.104Z</time>
      </trkpt>
      <trkpt lat="47.547718" lon="7.701632">
        <ele>272.657112</ele>
        <time>2021-08-16T22:08:32.833Z</time>
      </trkpt>
      <trkpt lat="47.547586" lon="7.702759">
        <ele>272.446317</ele>
        <time>2021-08-16T22:08:43.022Z</time>
      </trkpt>
      <trkpt lat="47.547159" lon="7.704989">
        <ele>272.572358</ele>
        <time>2021-08-16T22:09:05.872Z</time>
      </trkpt>
      <trkpt lat="47.547129" lon="7.705131">
        <ele>272.628324</ele>
        <time>2021-08-16T22:09:07.644Z</time>
      </trkpt>
      <trkpt lat="47.547066" lon="7.705298">
        <ele>272.700284</ele>
        <time>2021-08-16T22:09:10.723Z</time>
      </trkpt>
      <trkpt lat="47.546975" lon="7.705444">
        <ele>272.775032</ele>
        <time>2021-08-16T22:09:14.112Z</time>
      </trkpt>
      <trkpt lat="47.546934" lon="7.705478">
        <ele>272.801215</ele>
        <time>2021-08-16T22:09:15.202Z</time>
      </trkpt>
      <trkpt lat="47.546903" lon="7.705523">
        <ele>272.825400</ele>
        <time>2021-08-16T22:09:16.235Z</time>
      </trkpt>
      <trkpt lat="47.546886" lon="7.705566">
        <ele>272.844144</ele>
        <time>2021-08-16T22:09:16.994Z</time>
      </trkpt>
      <trkpt lat="47.546875" lon="7.705615">
        <ele>272.863567</ele>
        <time>2021-08-16T22:09:17.748Z</time>
      </trkpt>
      <trkpt lat="47.546872" lon="7.705654">
        <ele>272.878332</ele>
        <time>2021-08-16T22:09:18.336Z</time>
      </trkpt>
      <trkpt lat="47.546900" lon="7.705760">
        <ele>272.921147</ele>
        <time>2021-08-16T22:09:20.235Z</time>
      </trkpt>
      <trkpt lat="47.546916" lon="7.705821">
        <ele>272.945763</ele>
        <time>2021-08-16T22:09:21.342Z</time>
      </trkpt>
      <trkpt lat="47.546947" lon="7.705856">
        <ele>272.967482</ele>
        <time>2021-08-16T22:09:22.380Z</time>
      </trkpt>
      <trkpt lat="47.546978" lon="7.705878">
        <ele>272.986636</ele>
        <time>2021-08-16T22:09:23.151Z</time>
      </trkpt>
      <trkpt lat="47.547004" lon="7.705887">
        <ele>273.001515</ele>
        <time>2021-08-16T22:09:23.789Z</time>
      </trkpt>
      <trkpt lat="47.547044" lon="7.705889">
        <ele>273.023818</ele>
        <time>2021-08-16T22:09:24.751Z</time>
      </trkpt>
      <trkpt lat="47.547083" lon="7.705874">
        <ele>273.046271</ele>
        <time>2021-08-16T22:09:25.676Z</time>
      </trkpt>
      <trkpt lat="47.547117" lon="7.705848">
        <ele>273.067593</ele>
        <time>2021-08-16T22:09:26.494Z</time>
      </trkpt>
      <trkpt lat="47.547211" lon="7.705906">
        <ele>273.124336</ele>
        <time>2021-08-16T22:09:28.998Z</time>
      </trkpt>
      <trkpt lat="47.547338" lon="7.705979">
        <ele>273.200247</ele>
        <time>2021-08-16T22:09:32.365Z</time>
      </trkpt>
      <trkpt lat="47.547385" lon="7.706034">
        <ele>273.242328</ele>
        <time>2021-08-16T22:09:33.495Z</time>
      </trkpt>
      <trkpt lat="47.547456" lon="7.706117">
        <ele>273.307223</ele>
        <time>2021-08-16T22:09:35.039Z</time>
      </trkpt>
      <trkpt lat="47.547565" lon="7.706271">
        <ele>273.415297</ele>
        <time>2021-08-16T22:09:38.107Z</time>
      </trkpt>
      <trkpt lat="47.547645" lon="7.706169">
        <ele>273.491030</ele>
        <time>2021-08-16T22:09:40.600Z</time>
      </trkpt>
      <trkpt lat="47.547718" lon="7.706083">
        <ele>273.557952</ele>
        <time>2021-08-16T22:09:42.725Z</time>
      </trkpt>
      <trkpt lat="47.547767" lon="7.706177">
        <ele>273.615474</ele>
        <time>2021-08-16T22:09:44.322Z</time>
      </trkpt>
      <trkpt lat="47.547779" lon="7.706281">
        <ele>273.666574</ele>
        <time>2021-08-16T22:09:45.766Z</time>
      </trkpt>
      <trkpt lat="47.547779" lon="7.706281">
        <ele>273.666574</ele>
        <time>2021-08-16T22:09:45.788Z</time>
      </trkpt>
      <trkpt lat="47.547774" lon="7.706385">
        <ele>273.717070</ele>
        <time>2021-08-16T22:09:46.992Z</time>
      </trkpt>
      <trkpt lat="47.547770" lon="7.706493">
        <ele>273.769456</ele>
        <time>2021-08-16T22:09:48.254Z</time>
      </trkpt>
      <trkpt lat="47.547782" lon="7.706642">
        <ele>273.842131</ele>
        <time>2021-08-16T22:09:49.919Z</time>
      </trkpt>
      <trkpt lat="47.547886" lon="7.707559">
        <ele>274.292476</ele>
        <time>2021-08-16T22:10:01.227Z</time>
      </trkpt>
      <trkpt lat="47.547969" lon="7.708286">
        <ele>274.546476</ele>
        <time>2021-08-16T22:10:09.083Z</time>
      </trkpt>
      <trkpt lat="47.548718" lon="7.711675">
        <ele>275.403051</ele>
        <time>2021-08-16T22:10:46.641Z</time>
      </trkpt>
      <trkpt lat="47.548964" lon="7.712473">
        <ele>275.742809</ele>
        <time>2021-08-16T22:10:57.678Z</time>
      </trkpt>
      <trkpt lat="47.549551" lon="7.713795">
        <ele>276.336586</ele>
        <time>2021-08-16T22:11:17.621Z</time>
      </trkpt>
      <trkpt lat="47.549644" lon="7.714162">
        <ele>276.481061</ele>
        <time>2021-08-16T22:11:22.198Z</time>
      </trkpt>
      <trkpt lat="47.549908" lon="7.715097">
        <ele>276.854588</ele>
        <time>2021-08-16T22:11:33.188Z</time>
      </trkpt>
      <trkpt lat="47.549978" lon="7.715484">
        <ele>276.912564</ele>
        <time>2021-08-16T22:11:37.248Z</time>
      </trkpt>
      <trkpt lat="47.550037" lon="7.715872">
        <ele>276.834601</ele>
        <time>2021-08-16T22:11:41.235Z</time>
      </trkpt>
      <trkpt lat="47.550065" lon="7.716105">
        <ele>276.788210</ele>
        <time>2021-08-16T22:11:43.575Z</time>
      </trkpt>
      <trkpt lat="47.550088" lon="7.716261">
        <ele>276.756909</ele>
        <time>2021-08-16T22:11:45.050Z</time>
      </trkpt>
      <trkpt lat="47.550264" lon="7.717130">
        <ele>276.579063</ele>
        <time>2021-08-16T22:11:53.090Z</time>
      </trkpt>
      <trkpt lat="47.550700" lon="7.718579">
        <ele>276.294558</ele>
        <time>2021-08-16T22:12:07.613Z</time>
      </trkpt>
      <trkpt lat="47.550904" lon="7.719258">
        <ele>276.174041</ele>
        <time>2021-08-16T22:12:14.914Z</time>
      </trkpt>
      <trkpt lat="47.550953" lon="7.719585">
        <ele>276.119726</ele>
        <time>2021-08-16T22:12:18.213Z</time>
      </trkpt>
      <trkpt lat="47.550910" lon="7.720574">
        <ele>275.962067</ele>
        <time>2021-08-16T22:12:27.597Z</time>
      </trkpt>
      <trkpt lat="47.550965" lon="7.720874">
        <ele>275.916738</ele>
        <time>2021-08-16T22:12:30.420Z</time>
      </trkpt>
      <trkpt lat="47.551056" lon="7.721158">
        <ele>275.870898</ele>
        <time>2021-08-16T22:12:33.376Z</time>
      </trkpt>
      <trkpt lat="47.551208" lon="7.721582">
        <ele>275.800894</ele>
        <time>2021-08-16T22:12:37.904Z</time>
      </trkpt>
      <trkpt lat="47.551366" lon="7.721998">
        <ele>275.731292</ele>
        <time>2021-08-16T22:12:42.444Z</time>
      </trkpt>
      <trkpt lat="47.551616" lon="7.722641">
        <ele>275.623092</ele>
        <time>2021-08-16T22:12:49.473Z</time>
      </trkpt>
      <trkpt lat="47.551732" lon="7.722977">
        <ele>275.634641</ele>
        <time>2021-08-16T22:12:53.151Z</time>
      </trkpt>
      <trkpt lat="47.551860" lon="7.723495">
        <ele>275.718632</ele>
        <time>2021-08-16T22:12:58.641Z</time>
      </trkpt>
      <trkpt lat="47.552212" lon="7.724918">
        <ele>275.949393</ele>
        <time>2021-08-16T22:13:15.013Z</time>
      </trkpt>
      <trkpt lat="47.552325" lon="7.725243">
        <ele>276.005058</ele>
        <time>2021-08-16T22:13:19.355Z</time>
      </trkpt>
      <trkpt lat="47.553028" lon="7.727114">
        <ele>276.830420</ele>
        <time>2021-08-16T22:13:44.048Z</time>
      </trkpt>
      <trkpt lat="47.553123" lon="7.727311">
        <ele>276.923974</ele>
        <time>2021-08-16T22:13:46.814Z</time>
      </trkpt>
      <trkpt lat="47.553188" lon="7.727446">
        <ele>276.988050</ele>
        <time>2021-08-16T22:13:48.666Z</time>
      </trkpt>
      <trkpt lat="47.553253" lon="7.727551">
        <ele>277.047884</ele>
        <time>2021-08-16T22:13:50.257Z</time>
      </trkpt>
      <trkpt lat="47.553838" lon="7.728124">
        <ele>277.725232</ele>
        <time>2021-08-16T22:14:02.953Z</time>
      </trkpt>
      <trkpt lat="47.553808" lon="7.728191">
        <ele>277.777646</ele>
        <time>2021-08-16T22:14:03.959Z</time>
      </trkpt>
      <trkpt lat="47.554098" lon="7.728466">
        <ele>278.110208</ele>
        <time>2021-08-16T22:14:10.540Z</time>
      </trkpt>
      <trkpt lat="47.554107" lon="7.728475">
        <ele>278.120696</ele>
        <time>2021-08-16T22:14:10.806Z</time>
      </trkpt>
      <trkpt lat="47.554379" lon="7.728698">
        <ele>278.420954</ele>
        <time>2021-08-16T22:14:16.858Z</time>
      </trkpt>
      <trkpt lat="47.554503" lon="7.728787">
        <ele>278.554036</ele>
        <time>2021-08-16T22:14:19.417Z</time>
      </trkpt>
      <trkpt lat="47.554645" lon="7.728883">
        <ele>278.704795</ele>
        <time>2021-08-16T22:14:22.837Z</time>
      </trkpt>
      <trkpt lat="47.555159" lon="7.729171">
        <ele>279.132660</ele>
        <time>2021-08-16T22:14:33.272Z</time>
      </trkpt>
      <trkpt lat="47.555310" lon="7.729256">
        <ele>279.253935</ele>
        <time>2021-08-16T22:14:36.757Z</time>
      </trkpt>
      <trkpt lat="47.555982" lon="7.729642">
        <ele>279.795052</ele>
        <time>2021-08-16T22:14:49.650Z</time>
      </trkpt>
      <trkpt lat="47.556120" lon="7.729737">
        <ele>279.909297</ele>
        <time>2021-08-16T22:14:51.833Z</time>
      </trkpt>
      <trkpt lat="47.556229" lon="7.729846">
        <ele>280.008027</ele>
        <time>2021-08-16T22:14:54.013Z</time>
      </trkpt>
      <trkpt lat="47.556305" lon="7.729996">
        <ele>280.103065</ele>
        <time>2021-08-16T22:14:56.096Z</time>
      </trkpt>
      <trkpt lat="47.556357" lon="7.730174">
        <ele>280.095215</ele>
        <time>2021-08-16T22:14:57.917Z</time>
      </trkpt>
      <trkpt lat="47.556427" lon="7.730477">
        <ele>280.035242</ele>
        <time>2021-08-16T22:15:01.557Z</time>
      </trkpt>
      <trkpt lat="47.556599" lon="7.731204">
        <ele>279.890980</ele>
        <time>2021-08-16T22:15:08.698Z</time>
      </trkpt>
      <trkpt lat="47.556635" lon="7.731437">
        <ele>279.846220</ele>
        <time>2021-08-16T22:15:10.996Z</time>
      </trkpt>
      <trkpt lat="47.556684" lon="7.732421">
        <ele>279.661455</ele>
        <time>2021-08-16T22:15:19.717Z</time>
      </trkpt>
      <trkpt lat="47.556695" lon="7.732526">
        <ele>279.641557</ele>
        <time>2021-08-16T22:15:20.686Z</time>
      </trkpt>
      <trkpt lat="47.556704" lon="7.732597">
        <ele>279.628029</ele>
        <time>2021-08-16T22:15:21.300Z</time>
      </trkpt>
      <trkpt lat="47.556773" lon="7.733074">
        <ele>279.435590</ele>
        <time>2021-08-16T22:15:25.570Z</time>
      </trkpt>
      <trkpt lat="47.556784" lon="7.733151">
        <ele>279.403938</ele>
        <time>2021-08-16T22:15:26.261Z</time>
      </trkpt>
      <trkpt lat="47.556872" lon="7.733723">
        <ele>279.168006</ele>
        <time>2021-08-16T22:15:31.623Z</time>
      </trkpt>
      <trkpt lat="47.556910" lon="7.733982">
        <ele>279.061416</ele>
        <time>2021-08-16T22:15:34.041Z</time>
      </trkpt>
      <trkpt lat="47.556947" lon="7.734300">
        <ele>278.931646</ele>
        <time>2021-08-16T22:15:36.953Z</time>
      </trkpt>
      <trkpt lat="47.556909" lon="7.735277">
        <ele>278.530904</ele>
        <time>2021-08-16T22:15:45.139Z</time>
      </trkpt>
      <trkpt lat="47.556652" lon="7.736450">
        <ele>277.794905</ele>
        <time>2021-08-16T22:15:55.859Z</time>
      </trkpt>
      <trkpt lat="47.556658" lon="7.736525">
        <ele>277.749832</ele>
        <time>2021-08-16T22:15:56.404Z</time>
      </trkpt>
      <trkpt lat="47.556614" lon="7.736602">
        <ele>277.689619</ele>
        <time>2021-08-16T22:15:57.269Z</time>
      </trkpt>
      <trkpt lat="47.556578" lon="7.736762">
        <ele>277.588966</ele>
        <time>2021-08-16T22:15:58.762Z</time>
      </trkpt>
      <trkpt lat="47.556486" lon="7.737232">
        <ele>277.296914</ele>
        <time>2021-08-16T22:16:02.873Z</time>
      </trkpt>
      <trkpt lat="47.556447" lon="7.737561">
        <ele>277.097564</ele>
        <time>2021-08-16T22:16:05.546Z</time>
      </trkpt>
      <trkpt lat="47.556422" lon="7.737881">
        <ele>276.907486</ele>
        <time>2021-08-16T22:16:08.265Z</time>
      </trkpt>
      <trkpt lat="47.556423" lon="7.738362">
        <ele>276.631344</ele>
        <time>2021-08-16T22:16:12.226Z</time>
      </trkpt>
      <trkpt lat="47.556427" lon="7.738558">
        <ele>276.518770</ele>
        <time>2021-08-16T22:16:13.780Z</time>
      </trkpt>
      <trkpt lat="47.556461" lon="7.739007">
        <ele>276.259383</ele>
        <time>2021-08-16T22:16:17.516Z</time>
      </trkpt>
      <trkpt lat="47.556492" lon="7.739412">
        <ele>276.025384</ele>
        <time>2021-08-16T22:16:21.168Z</time>
      </trkpt>
      <trkpt lat="47.556465" lon="7.739495">
        <ele>275.972487</ele>
        <time>2021-08-16T22:16:21.882Z</time>
      </trkpt>
      <trkpt lat="47.556308" lon="7.739926">
        <ele>275.691307</ele>
        <time>2021-08-16T22:16:26.214Z</time>
      </trkpt>
      <trkpt lat="47.556198" lon="7.740232">
        <ele>275.492265</ele>
        <time>2021-08-16T22:16:29.217Z</time>
      </trkpt>
      <trkpt lat="47.556109" lon="7.741529">
        <ele>275.281460</ele>
        <time>2021-08-16T22:16:40.605Z</time>
      </trkpt>
      <trkpt lat="47.555842" lon="7.742820">
        <ele>275.111617</ele>
        <time>2021-08-16T22:16:54.824Z</time>
      </trkpt>
      <trkpt lat="47.555722" lon="7.743661">
        <ele>275.078218</ele>
        <time>2021-08-16T22:17:03.963Z</time>
      </trkpt>
      <trkpt lat="47.555572" lon="7.744136">
        <ele>275.064930</ele>
        <time>2021-08-16T22:17:09.308Z</time>
      </trkpt>
      <trkpt lat="47.555416" lon="7.744384">
        <ele>275.056339</ele>
        <time>2021-08-16T22:17:12.663Z</time>
      </trkpt>
      <trkpt lat="47.555226" lon="7.744660">
        <ele>275.046349</ele>
        <time>2021-08-16T22:17:16.616Z</time>
      </trkpt>
      <trkpt lat="47.555182" lon="7.744738">
        <ele>275.043773</ele>
        <time>2021-08-16T22:17:17.526Z</time>
      </trkpt>
      <trkpt lat="47.555091" lon="7.744936">
        <ele>275.037703</ele>
        <time>2021-08-16T22:17:19.799Z</time>
      </trkpt>
      <trkpt lat="47.554910" lon="7.745450">
        <ele>274.940590</ele>
        <time>2021-08-16T22:17:25.239Z</time>
      </trkpt>
      <trkpt lat="47.554871" lon="7.745667">
        <ele>274.863009</ele>
        <time>2021-08-16T22:17:27.311Z</time>
      </trkpt>
      <trkpt lat="47.554853" lon="7.745965">
        <ele>274.759646</ele>
        <time>2021-08-16T22:17:30.003Z</time>
      </trkpt>
      <trkpt lat="47.554786" lon="7.747259">
        <ele>274.311287</ele>
        <time>2021-08-16T22:17:41.231Z</time>
      </trkpt>
      <trkpt lat="47.554319" lon="7.750058">
        <ele>273.401159</ele>
        <time>2021-08-16T22:18:07.058Z</time>
      </trkpt>
      <trkpt lat="47.554302" lon="7.750411">
        <ele>273.292140</ele>
        <time>2021-08-16T22:18:10.404Z</time>
      </trkpt>
      <trkpt lat="47.554273" lon="7.750704">
        <ele>273.277359</ele>
        <time>2021-08-16T22:18:13.255Z</time>
      </trkpt>
      <trkpt lat="47.554075" lon="7.752001">
        <ele>273.228057</ele>
        <time>2021-08-16T22:18:26.201Z</time>
      </trkpt>
      <trkpt lat="47.554122" lon="7.753011">
        <ele>273.190521</ele>
        <time>2021-08-16T22:18:36.564Z</time>
      </trkpt>
      <trkpt lat="47.554176" lon="7.753798">
        <ele>273.417927</ele>
        <time>2021-08-16T22:18:45.079Z</time>
      </trkpt>
      <trkpt lat="47.554275" lon="7.754160">
        <ele>273.537106</ele>
        <time>2021-08-16T22:18:49.399Z</time>
      </trkpt>
      <trkpt lat="47.554347" lon="7.754347">
        <ele>273.602796</ele>
        <time>2021-08-16T22:18:51.810Z</time>
      </trkpt>
      <trkpt lat="47.554452" lon="7.754585">
        <ele>273.689555</ele>
        <time>2021-08-16T22:18:55.092Z</time>
      </trkpt>
      <trkpt lat="47.554713" lon="7.755155">
        <ele>273.899726</ele>
        <time>2021-08-16T22:19:03.153Z</time>
      </trkpt>
      <trkpt lat="47.554777" lon="7.755293">
        <ele>273.950816</ele>
        <time>2021-08-16T22:19:05.159Z</time>
      </trkpt>
      <trkpt lat="47.554914" lon="7.755680">
        <ele>274.164404</ele>
        <time>2021-08-16T22:19:10.424Z</time>
      </trkpt>
      <trkpt lat="47.555039" lon="7.756348">
        <ele>274.582982</ele>
        <time>2021-08-16T22:19:18.935Z</time>
      </trkpt>
      <trkpt lat="47.555067" lon="7.756625">
        <ele>274.752108</ele>
        <time>2021-08-16T22:19:22.492Z</time>
      </trkpt>
      <trkpt lat="47.555069" lon="7.757021">
        <ele>274.991232</ele>
        <time>2021-08-16T22:19:27.460Z</time>
      </trkpt>
      <trkpt lat="47.555058" lon="7.757801">
        <ele>275.462322</ele>
        <time>2021-08-16T22:19:37.275Z</time>
      </trkpt>
      <trkpt lat="47.555025" lon="7.760185">
        <ele>276.672165</ele>
        <time>2021-08-16T22:20:06.601Z</time>
      </trkpt>
      <trkpt lat="47.555021" lon="7.760351">
        <ele>276.754592</ele>
        <time>2021-08-16T22:20:08.643Z</time>
      </trkpt>
      <trkpt lat="47.555137" lon="7.761950">
        <ele>277.119475</ele>
        <time>2021-08-16T22:20:26.521Z</time>
      </trkpt>
      <trkpt lat="47.555151" lon="7.762144">
        <ele>277.148503</ele>
        <time>2021-08-16T22:20:28.517Z</time>
      </trkpt>
      <trkpt lat="47.555160" lon="7.762248">
        <ele>277.164103</ele>
        <time>2021-08-16T22:20:29.592Z</time>
      </trkpt>
      <trkpt lat="47.555178" lon="7.762514">
        <ele>277.203877</ele>
        <time>2021-08-16T22:20:32.404Z</time>
      </trkpt>
      <trkpt lat="47.555215" lon="7.763047">
        <ele>277.283595</ele>
        <time>2021-08-16T22:20:37.711Z</time>
      </trkpt>
      <trkpt lat="47.555256" lon="7.763536">
        <ele>277.286146</ele>
        <time>2021-08-16T22:20:42.598Z</time>
      </trkpt>
      <trkpt lat="47.555344" lon="7.764439">
        <ele>277.058008</ele>
        <time>2021-08-16T22:20:51.499Z</time>
      </trkpt>
      <trkpt lat="47.555426" lon="7.764999">
        <ele>276.914722</ele>
        <time>2021-08-16T22:20:56.583Z</time>
      </trkpt>
      <trkpt lat="47.555465" lon="7.765253">
        <ele>276.849586</ele>
        <time>2021-08-16T22:20:58.903Z</time>
      </trkpt>
      <trkpt lat="47.555496" lon="7.765461">
        <ele>276.796323</ele>
        <time>2021-08-16T22:21:00.733Z</time>
      </trkpt>
      <trkpt lat="47.555631" lon="7.766213">
        <ele>276.511512</ele>
        <time>2021-08-16T22:21:07.711Z</time>
      </trkpt>
      <trkpt lat="47.555683" lon="7.766459">
        <ele>276.353759</ele>
        <time>2021-08-16T22:21:09.911Z</time>
      </trkpt>
      <trkpt lat="47.555705" lon="7.766563">
        <ele>276.287063</ele>
        <time>2021-08-16T22:21:11.275Z</time>
      </trkpt>
      <trkpt lat="47.555779" lon="7.766907">
        <ele>276.066115</ele>
        <time>2021-08-16T22:21:15.645Z</time>
      </trkpt>
      <trkpt lat="47.556180" lon="7.768445">
        <ele>275.057137</ele>
        <time>2021-08-16T22:21:35.066Z</time>
      </trkpt>
      <trkpt lat="47.556308" lon="7.768946">
        <ele>274.735680</ele>
        <time>2021-08-16T22:21:41.206Z</time>
      </trkpt>
      <trkpt lat="47.556325" lon="7.769016">
        <ele>274.691108</ele>
        <time>2021-08-16T22:21:42.010Z</time>
      </trkpt>
      <trkpt lat="47.556588" lon="7.770024">
        <ele>274.043623</ele>
        <time>2021-08-16T22:21:54.564Z</time>
      </trkpt>
      <trkpt lat="47.556644" lon="7.770245">
        <ele>273.902190</ele>
        <time>2021-08-16T22:21:57.369Z</time>
      </trkpt>
      <trkpt lat="47.556970" lon="7.771488">
        <ele>273.440206</ele>
        <time>2021-08-16T22:22:13.882Z</time>
      </trkpt>
      <trkpt lat="47.556998" lon="7.771574">
        <ele>273.440869</ele>
        <time>2021-08-16T22:22:15.087Z</time>
      </trkpt>
      <trkpt lat="47.556245" lon="7.771767">
        <ele>273.448739</ele>
        <time>2021-08-16T22:22:27.826Z</time>
      </trkpt>
      <trkpt lat="47.555543" lon="7.772035">
        <ele>273.314997</ele>
        <time>2021-08-16T22:22:39.176Z</time>
      </trkpt>
      <trkpt lat="47.555195" lon="7.772170">
        <ele>272.928372</ele>
        <time>2021-08-16T22:22:44.048Z</time>
      </trkpt>
      <trkpt lat="47.554965" lon="7.772257">
        <ele>272.673248</ele>
        <time>2021-08-16T22:22:46.890Z</time>
      </trkpt>
      <trkpt lat="47.554847" lon="7.772301">
        <ele>272.542471</ele>
        <time>2021-08-16T22:22:48.302Z</time>
      </trkpt>
      <trkpt lat="47.554114" lon="7.772582">
        <ele>271.728726</ele>
        <time>2021-08-16T22:22:57.120Z</time>
      </trkpt>
      <trkpt lat="47.554010" lon="7.772622">
        <ele>271.613246</ele>
        <time>2021-08-16T22:22:58.322Z</time>
      </trkpt>
      <trkpt lat="47.553961" lon="7.772642">
        <ele>271.558621</ele>
        <time>2021-08-16T22:22:58.921Z</time>
      </trkpt>
      <trkpt lat="47.553891" lon="7.772673">
        <ele>271.459031</ele>
        <time>2021-08-16T22:22:59.713Z</time>
      </trkpt>
      <trkpt lat="47.553451" lon="7.772879">
        <ele>270.712167</ele>
        <time>2021-08-16T22:23:04.739Z</time>
      </trkpt>
      <trkpt lat="47.553723" lon="7.774381">
        <ele>269.013414</ele>
        <time>2021-08-16T22:23:16.211Z</time>
      </trkpt>
      <trkpt lat="47.553832" lon="7.775040">
        <ele>268.693362</ele>
        <time>2021-08-16T22:23:22.507Z</time>
      </trkpt>
      <trkpt lat="47.553964" lon="7.775914">
        <ele>268.932810</ele>
        <time>2021-08-16T22:23:32.679Z</time>
      </trkpt>
      <trkpt lat="47.554120" lon="7.776876">
        <ele>269.197325</ele>
        <time>2021-08-16T22:23:44.386Z</time>
      </trkpt>
      <trkpt lat="47.554463" lon="7.778985">
        <ele>270.096295</ele>
        <time>2021-08-16T22:24:11.919Z</time>
      </trkpt>
      <trkpt lat="47.554487" lon="7.779153">
        <ele>270.174445</ele>
        <time>2021-08-16T22:24:13.719Z</time>
      </trkpt>
      <trkpt lat="47.554563" lon="7.779668">
        <ele>270.414358</ele>
        <time>2021-08-16T22:24:19.405Z</time>
      </trkpt>
      <trkpt lat="47.554700" lon="7.780547">
        <ele>270.395331</ele>
        <time>2021-08-16T22:24:29.246Z</time>
      </trkpt>
      <trkpt lat="47.554710" lon="7.780618">
        <ele>270.379268</ele>
        <time>2021-08-16T22:24:30.016Z</time>
      </trkpt>
      <trkpt lat="47.554742" lon="7.780852">
        <ele>270.326389</ele>
        <time>2021-08-16T22:24:32.429Z</time>
      </trkpt>
      <trkpt lat="47.554849" lon="7.781551">
        <ele>270.167644</ele>
        <time>2021-08-16T22:24:39.252Z</time>
      </trkpt>
      <trkpt lat="47.554902" lon="7.781936">
        <ele>270.080619</ele>
        <time>2021-08-16T22:24:42.669Z</time>
      </trkpt>
      <trkpt lat="47.554919" lon="7.782052">
        <ele>270.054329</ele>
        <time>2021-08-16T22:24:43.623Z</time>
      </trkpt>
      <trkpt lat="47.554925" lon="7.782093">
        <ele>270.045038</ele>
        <time>2021-08-16T22:24:43.920Z</time>
      </trkpt>
      <trkpt lat="47.555031" lon="7.782812">
        <ele>269.935066</ele>
        <time>2021-08-16T22:24:49.631Z</time>
      </trkpt>
      <trkpt lat="47.555156" lon="7.783560">
        <ele>269.906565</ele>
        <time>2021-08-16T22:24:57.177Z</time>
      </trkpt>
      <trkpt lat="47.555175" lon="7.783674">
        <ele>269.902223</ele>
        <time>2021-08-16T22:24:58.081Z</time>
      </trkpt>
      <trkpt lat="47.555284" lon="7.784197">
        <ele>269.881978</ele>
        <time>2021-08-16T22:25:04.377Z</time>
      </trkpt>
      <trkpt lat="47.555300" lon="7.784235">
        <ele>269.880322</ele>
        <time>2021-08-16T22:25:04.719Z</time>
      </trkpt>
      <trkpt lat="47.555461" lon="7.784621">
        <ele>269.863539</ele>
        <time>2021-08-16T22:25:10.145Z</time>
      </trkpt>
      <trkpt lat="47.555734" lon="7.784979">
        <ele>269.810046</ele>
        <time>2021-08-16T22:25:16.458Z</time>
      </trkpt>
      <trkpt lat="47.555794" lon="7.785053">
        <ele>269.765556</ele>
        <time>2021-08-16T22:25:17.733Z</time>
      </trkpt>
      <trkpt lat="47.555804" lon="7.785065">
        <ele>269.758222</ele>
        <time>2021-08-16T22:25:17.988Z</time>
      </trkpt>
      <trkpt lat="47.555928" lon="7.785221">
        <ele>269.665517</ele>
        <time>2021-08-16T22:25:21.154Z</time>
      </trkpt>
      <trkpt lat="47.556140" lon="7.785486">
        <ele>269.507445</ele>
        <time>2021-08-16T22:25:25.077Z</time>
      </trkpt>
      <trkpt lat="47.556247" lon="7.785618">
        <ele>269.428096</ele>
        <time>2021-08-16T22:25:27.334Z</time>
      </trkpt>
      <trkpt lat="47.556331" lon="7.785736">
        <ele>269.362130</ele>
        <time>2021-08-16T22:25:28.708Z</time>
      </trkpt>
      <trkpt lat="47.556519" lon="7.786031">
        <ele>269.206074</ele>
        <time>2021-08-16T22:25:32.260Z</time>
      </trkpt>
      <trkpt lat="47.556701" lon="7.786373">
        <ele>269.038559</ele>
        <time>2021-08-16T22:25:35.984Z</time>
      </trkpt>
      <trkpt lat="47.556785" lon="7.786722">
        <ele>268.896047</ele>
        <time>2021-08-16T22:25:38.804Z</time>
      </trkpt>
      <trkpt lat="47.556807" lon="7.786849">
        <ele>268.845618</ele>
        <time>2021-08-16T22:25:39.819Z</time>
      </trkpt>
      <trkpt lat="47.556812" lon="7.787001">
        <ele>268.742765</ele>
        <time>2021-08-16T22:25:40.918Z</time>
      </trkpt>
      <trkpt lat="47.556783" lon="7.787207">
        <ele>268.559225</ele>
        <time>2021-08-16T22:25:42.480Z</time>
      </trkpt>
      <trkpt lat="47.556685" lon="7.787412">
        <ele>268.340110</ele>
        <time>2021-08-16T22:25:44.368Z</time>
      </trkpt>
      <trkpt lat="47.556658" lon="7.787468">
        <ele>268.280083</ele>
        <time>2021-08-16T22:25:44.852Z</time>
      </trkpt>
      <trkpt lat="47.556539" lon="7.787710">
        <ele>268.018922</ele>
        <time>2021-08-16T22:25:47.084Z</time>
      </trkpt>
      <trkpt lat="47.556357" lon="7.788058">
        <ele>267.634922</ele>
        <time>2021-08-16T22:25:50.347Z</time>
      </trkpt>
      <trkpt lat="47.556249" lon="7.788270">
        <ele>267.403246</ele>
        <time>2021-08-16T22:25:52.385Z</time>
      </trkpt>
      <trkpt lat="47.556137" lon="7.788488">
        <ele>267.164277</ele>
        <time>2021-08-16T22:25:54.376Z</time>
      </trkpt>
      <trkpt lat="47.556111" lon="7.788537">
        <ele>267.109911</ele>
        <time>2021-08-16T22:25:54.833Z</time>
      </trkpt>
      <trkpt lat="47.556069" lon="7.788614">
        <ele>267.023558</ele>
        <time>2021-08-16T22:25:55.651Z</time>
      </trkpt>
      <trkpt lat="47.555936" lon="7.788828">
        <ele>266.769814</ele>
        <time>2021-08-16T22:25:57.911Z</time>
      </trkpt>
      <trkpt lat="47.555085" lon="7.789685">
        <ele>268.102680</ele>
        <time>2021-08-16T22:26:22.906Z</time>
      </trkpt>
      <trkpt lat="47.555062" lon="7.789726">
        <ele>268.173270</ele>
        <time>2021-08-16T22:26:24.062Z</time>
      </trkpt>
      <trkpt lat="47.555052" lon="7.789771">
        <ele>268.235999</ele>
        <time>2021-08-16T22:26:24.980Z</time>
      </trkpt>
      <trkpt lat="47.555031" lon="7.789894">
        <ele>268.403986</ele>
        <time>2021-08-16T22:26:27.765Z</time>
      </trkpt>
      <trkpt lat="47.554999" lon="7.790090">
        <ele>268.670983</ele>
        <time>2021-08-16T22:26:32.638Z</time>
      </trkpt>
      <trkpt lat="47.554865" lon="7.790678">
        <ele>269.492706</ele>
        <time>2021-08-16T22:26:46.769Z</time>
      </trkpt>
      <trkpt lat="47.554858" lon="7.790696">
        <ele>269.520213</ele>
        <time>2021-08-16T22:26:47.766Z</time>
      </trkpt>
      <trkpt lat="47.554788" lon="7.790844">
        <ele>269.759502</ele>
        <time>2021-08-16T22:26:53.345Z</time>
      </trkpt>
      <trkpt lat="47.554756" lon="7.790897">
        <ele>269.853661</ele>
        <time>2021-08-16T22:26:55.916Z</time>
      </trkpt>
      <trkpt lat="47.554911" lon="7.791459">
        <ele>270.597484</ele>
        <time>2021-08-16T22:27:08.878Z</time>
      </trkpt>
      <trkpt lat="47.555027" lon="7.791948">
        <ele>271.218520</ele>
        <time>2021-08-16T22:27:19.249Z</time>
      </trkpt>
      <trkpt lat="47.555085" lon="7.792163">
        <ele>271.495940</ele>
        <time>2021-08-16T22:27:23.901Z</time>
      </trkpt>
      <trkpt lat="47.555127" lon="7.792307">
        <ele>271.683896</ele>
        <time>2021-08-16T22:27:26.519Z</time>
      </trkpt>
      <trkpt lat="47.555237" lon="7.792734">
        <ele>272.231510</ele>
        <time>2021-08-16T22:27:34.717Z</time>
      </trkpt>
      <trkpt lat="47.555277" lon="7.793131">
        <ele>272.712445</ele>
        <time>2021-08-16T22:27:41.143Z</time>
      </trkpt>
      <trkpt lat="47.555274" lon="7.793423">
        <ele>273.062343</ele>
        <time>2021-08-16T22:27:45.431Z</time>
      </trkpt>
      <trkpt lat="47.555281" lon="7.793955">
        <ele>273.633053</ele>
        <time>2021-08-16T22:27:53.435Z</time>
      </trkpt>
      <trkpt lat="47.555282" lon="7.794033">
        <ele>273.713526</ele>
        <time>2021-08-16T22:27:54.647Z</time>
      </trkpt>
      <trkpt lat="47.555288" lon="7.794318">
        <ele>274.007649</ele>
        <time>2021-08-16T22:27:59.200Z</time>
      </trkpt>
      <trkpt lat="47.555288" lon="7.794496">
        <ele>274.191257</ele>
        <time>2021-08-16T22:28:01.900Z</time>
      </trkpt>
      <trkpt lat="47.555308" lon="7.794498">
        <ele>274.221896</ele>
        <time>2021-08-16T22:28:02.362Z</time>
      </trkpt>
      <trkpt lat="47.555432" lon="7.795493">
        <ele>275.265598</ele>
        <time>2021-08-16T22:28:19.713Z</time>
      </trkpt>
      <trkpt lat="47.555436" lon="7.795522">
        <ele>275.296130</ele>
        <time>2021-08-16T22:28:20.250Z</time>
      </trkpt>
      <trkpt lat="47.555438" lon="7.795535">
        <ele>275.309883</ele>
        <time>2021-08-16T22:28:20.498Z</time>
      </trkpt>
      <trkpt lat="47.555451" lon="7.795635">
        <ele>275.414930</ele>
        <time>2021-08-16T22:28:22.441Z</time>
      </trkpt>
      <trkpt lat="47.555456" lon="7.795684">
        <ele>275.466049</ele>
        <time>2021-08-16T22:28:23.589Z</time>
      </trkpt>
      <trkpt lat="47.555444" lon="7.795749">
        <ele>275.535560</ele>
        <time>2021-08-16T22:28:24.967Z</time>
      </trkpt>
      <trkpt lat="47.555454" lon="7.795902">
        <ele>275.694119</ele>
        <time>2021-08-16T22:28:27.793Z</time>
      </trkpt>
      <trkpt lat="47.555467" lon="7.795984">
        <ele>275.781005</ele>
        <time>2021-08-16T22:28:29.584Z</time>
      </trkpt>
      <trkpt lat="47.555492" lon="7.796158">
        <ele>275.964509</ele>
        <time>2021-08-16T22:28:32.723Z</time>
      </trkpt>
      <trkpt lat="47.555529" lon="7.796462">
        <ele>276.677310</ele>
        <time>2021-08-16T22:28:38.584Z</time>
      </trkpt>
      <trkpt lat="47.555544" lon="7.796747">
        <ele>277.341590</ele>
        <time>2021-08-16T22:28:44.517Z</time>
      </trkpt>
      <trkpt lat="47.555486" lon="7.796849">
        <ele>277.651530</ele>
        <time>2021-08-16T22:28:48.240Z</time>
      </trkpt>
      <trkpt lat="47.555263" lon="7.796971">
        <ele>278.470035</ele>
        <time>2021-08-16T22:28:56.201Z</time>
      </trkpt>
      <trkpt lat="47.555241" lon="7.796953">
        <ele>278.556567</ele>
        <time>2021-08-16T22:28:57.307Z</time>
      </trkpt>
      <trkpt lat="47.555102" lon="7.797022">
        <ele>279.061319</ele>
        <time>2021-08-16T22:29:02.084Z</time>
      </trkpt>
      <trkpt lat="47.555043" lon="7.797058">
        <ele>279.281020</ele>
        <time>2021-08-16T22:29:03.974Z</time>
      </trkpt>
      <trkpt lat="47.554934" lon="7.797124">
        <ele>279.686460</ele>
        <time>2021-08-16T22:29:07.190Z</time>
      </trkpt>
      <trkpt lat="47.554802" lon="7.797205">
        <ele>280.178400</ele>
        <time>2021-08-16T22:29:12.261Z</time>
      </trkpt>
      <trkpt lat="47.554702" lon="7.797265">
        <ele>280.549881</ele>
        <time>2021-08-16T22:29:15.257Z</time>
      </trkpt>
      <trkpt lat="47.554384" lon="7.797459">
        <ele>281.734003</ele>
        <time>2021-08-16T22:29:24.818Z</time>
      </trkpt>
      <trkpt lat="47.554256" lon="7.797539">
        <ele>282.200988</ele>
        <time>2021-08-16T22:29:27.859Z</time>
      </trkpt>
      <trkpt lat="47.554176" lon="7.797585">
        <ele>282.430287</ele>
        <time>2021-08-16T22:29:30.856Z</time>
      </trkpt>
      <trkpt lat="47.554176" lon="7.797585">
        <ele>282.430287</ele>
        <time>2021-08-16T22:29:30.859Z</time>
      </trkpt>
      <trkpt lat="47.554176" lon="7.797585">
        <ele>282.430287</ele>
        <time>2021-08-16T22:29:30.895Z</time>
      </trkpt>
      <trkpt lat="47.554225" lon="7.797729">
        <ele>282.721113</ele>
        <time>2021-08-16T22:29:34.018Z</time>
      </trkpt>
      <trkpt lat="47.554569" lon="7.798771">
        <ele>284.812997</ele>
        <time>2021-08-16T22:29:57.874Z</time>
      </trkpt>
      <trkpt lat="47.554580" lon="7.798805">
        <ele>284.880992</ele>
        <time>2021-08-16T22:29:58.460Z</time>
      </trkpt>
      <trkpt lat="47.554652" lon="7.799037">
        <ele>285.341487</ele>
        <time>2021-08-16T22:30:04.140Z</time>
      </trkpt>
      <trkpt lat="47.554785" lon="7.799447">
        <ele>286.161839</ele>
        <time>2021-08-16T22:30:13.352Z</time>
      </trkpt>
      <trkpt lat="47.554919" lon="7.799767">
        <ele>286.840971</ele>
        <time>2021-08-16T22:30:20.998Z</time>
      </trkpt>
      <trkpt lat="47.555022" lon="7.799940">
        <ele>287.275142</ele>
        <time>2021-08-16T22:30:25.903Z</time>
      </trkpt>
      <trkpt lat="47.554155" lon="7.800510">
        <ele>289.968644</ele>
        <time>2021-08-16T22:30:55.366Z</time>
      </trkpt>
      <trkpt lat="47.553909" lon="7.800673">
        <ele>290.733882</ele>
        <time>2021-08-16T22:31:04.397Z</time>
      </trkpt>
      <trkpt lat="47.553850" lon="7.800751">
        <ele>290.958420</ele>
        <time>2021-08-16T22:31:06.750Z</time>
      </trkpt>
      <trkpt lat="47.553794" lon="7.800894">
        <ele>291.275277</ele>
        <time>2021-08-16T22:31:10.746Z</time>
      </trkpt>
      <trkpt lat="47.553782" lon="7.800961">
        <ele>291.408129</ele>
        <time>2021-08-16T22:31:12.339Z</time>
      </trkpt>
      <trkpt lat="47.553823" lon="7.801201">
        <ele>291.882600</ele>
        <time>2021-08-16T22:31:17.629Z</time>
      </trkpt>
      <trkpt lat="47.553954" lon="7.801475">
        <ele>292.379597</ele>
        <time>2021-08-16T22:31:25.245Z</time>
      </trkpt>
      <trkpt lat="47.554367" lon="7.802333">
        <ele>293.742653</ele>
        <time>2021-08-16T22:31:46.291Z</time>
      </trkpt>
      <trkpt lat="47.554402" lon="7.802456">
        <ele>293.915300</ele>
        <time>2021-08-16T22:31:48.684Z</time>
      </trkpt>
      <trkpt lat="47.554459" lon="7.802666">
        <ele>294.208051</ele>
        <time>2021-08-16T22:31:52.713Z</time>
      </trkpt>
      <trkpt lat="47.554639" lon="7.803656">
        <ele>295.529195</ele>
        <time>2021-08-16T22:32:10.237Z</time>
      </trkpt>
      <trkpt lat="47.554726" lon="7.804275">
        <ele>296.002853</ele>
        <time>2021-08-16T22:32:20.381Z</time>
      </trkpt>
      <trkpt lat="47.554769" lon="7.804587">
        <ele>296.241404</ele>
        <time>2021-08-16T22:32:25.777Z</time>
      </trkpt>
      <trkpt lat="47.554808" lon="7.804930">
        <ele>296.501975</ele>
        <time>2021-08-16T22:32:31.175Z</time>
      </trkpt>
      <trkpt lat="47.554810" lon="7.805056">
        <ele>296.596391</ele>
        <time>2021-08-16T22:32:33.631Z</time>
      </trkpt>
      <trkpt lat="47.554809" lon="7.805192">
        <ele>296.698278</ele>
        <time>2021-08-16T22:32:35.882Z</time>
      </trkpt>
      <trkpt lat="47.554671" lon="7.805184">
        <ele>296.851575</ele>
        <time>2021-08-16T22:32:38.387Z</time>
      </trkpt>
      <trkpt lat="47.554473" lon="7.805173">
        <ele>297.071511</ele>
        <time>2021-08-16T22:32:42.640Z</time>
      </trkpt>
      <trkpt lat="47.554101" lon="7.805153">
        <ele>297.484704</ele>
        <time>2021-08-16T22:32:50.041Z</time>
      </trkpt>
      <trkpt lat="47.554046" lon="7.805148">
        <ele>297.540170</ele>
        <time>2021-08-16T22:32:56.255Z</time>
      </trkpt>
      <trkpt lat="47.554101" lon="7.805153">
        <ele>297.588416</ele>
        <time>2021-08-16T22:33:02.520Z</time>
      </trkpt>
      <trkpt lat="47.553755" lon="7.805120">
        <ele>297.891983</ele>
        <time>2021-08-16T22:33:09.080Z</time>
      </trkpt>
      <trkpt lat="47.553314" lon="7.805062">
        <ele>298.279619</ele>
        <time>2021-08-16T22:33:16.754Z</time>
      </trkpt>
      <trkpt lat="47.553326" lon="7.804924">
        <ele>298.361839</ele>
        <time>2021-08-16T22:33:18.669Z</time>
      </trkpt>
      <trkpt lat="47.553276" lon="7.804918">
        <ele>298.405760</ele>
        <time>2021-08-16T22:33:19.814Z</time>
      </trkpt>
      <trkpt lat="47.553211" lon="7.804952">
        <ele>298.466113</ele>
        <time>2021-08-16T22:33:21.260Z</time>
      </trkpt>
      <trkpt lat="47.552737" lon="7.804819">
        <ele>298.888500</ele>
        <time>2021-08-16T22:33:32.226Z</time>
      </trkpt>
      <trkpt lat="47.552734" lon="7.804819">
        <ele>298.891127</ele>
        <time>2021-08-16T22:33:32.343Z</time>
      </trkpt>
      <trkpt lat="47.552313" lon="7.804725">
        <ele>299.287346</ele>
        <time>2021-08-16T22:33:43.088Z</time>
      </trkpt>
      <trkpt lat="47.552281" lon="7.804747">
        <ele>299.322489</ele>
        <time>2021-08-16T22:33:43.931Z</time>
      </trkpt>
      <trkpt lat="47.552011" lon="7.804535">
        <ele>299.626893</ele>
        <time>2021-08-16T22:33:52.574Z</time>
      </trkpt>
      <trkpt lat="47.551731" lon="7.804667">
        <ele>299.919603</ele>
        <time>2021-08-16T22:34:00.186Z</time>
      </trkpt>
      <trkpt lat="47.551709" lon="7.805000">
        <ele>300.144566</ele>
        <time>2021-08-16T22:34:05.076Z</time>
      </trkpt>
      <trkpt lat="47.551687" lon="7.805375">
        <ele>300.397648</ele>
        <time>2021-08-16T22:34:11.271Z</time>
      </trkpt>
      <trkpt lat="47.551681" lon="7.805477">
        <ele>300.466487</ele>
        <time>2021-08-16T22:34:12.959Z</time>
      </trkpt>
      <trkpt lat="47.551671" lon="7.806117">
        <ele>300.884285</ele>
        <time>2021-08-16T22:34:22.667Z</time>
      </trkpt>
      <trkpt lat="47.551651" lon="7.806246">
        <ele>300.875030</ele>
        <time>2021-08-16T22:34:25.424Z</time>
      </trkpt>
      <trkpt lat="47.551895" lon="7.806278">
        <ele>300.849653</ele>
        <time>2021-08-16T22:34:28.931Z</time>
      </trkpt>
      <trkpt lat="47.552015" lon="7.806307">
        <ele>300.837057</ele>
        <time>2021-08-16T22:34:31.622Z</time>
      </trkpt>
      <trkpt lat="47.552068" lon="7.806445">
        <ele>300.825955</ele>
        <time>2021-08-16T22:34:33.012Z</time>
      </trkpt>
      <trkpt lat="47.552398" lon="7.808880">
        <ele>300.401157</ele>
        <time>2021-08-16T22:34:55.366Z</time>
      </trkpt>
      <trkpt lat="47.552566" lon="7.810386">
        <ele>299.722145</ele>
        <time>2021-08-16T22:35:08.420Z</time>
      </trkpt>
      <trkpt lat="47.552711" lon="7.812955">
        <ele>298.600719</ele>
        <time>2021-08-16T22:35:31.104Z</time>
      </trkpt>
      <trkpt lat="47.552844" lon="7.816432">
        <ele>297.362815</ele>
        <time>2021-08-16T22:36:01.692Z</time>
      </trkpt>
      <trkpt lat="47.552948" lon="7.819358">
        <ele>297.782353</ele>
        <time>2021-08-16T22:36:33.012Z</time>
      </trkpt>
      <trkpt lat="47.552896" lon="7.820699">
        <ele>298.367631</ele>
        <time>2021-08-16T22:36:49.136Z</time>
      </trkpt>
      <trkpt lat="47.552567" lon="7.824508">
        <ele>300.256102</ele>
        <time>2021-08-16T22:37:35.737Z</time>
      </trkpt>
      <trkpt lat="47.552491" lon="7.827227">
        <ele>301.712706</ele>
        <time>2021-08-16T22:38:07.548Z</time>
      </trkpt>
      <trkpt lat="47.552515" lon="7.828094">
        <ele>302.530213</ele>
        <time>2021-08-16T22:38:19.282Z</time>
      </trkpt>
      <trkpt lat="47.552477" lon="7.828294">
        <ele>302.725961</ele>
        <time>2021-08-16T22:38:21.905Z</time>
      </trkpt>
      <trkpt lat="47.552421" lon="7.828481">
        <ele>302.918702</ele>
        <time>2021-08-16T22:38:24.841Z</time>
      </trkpt>
      <trkpt lat="47.552404" lon="7.828582">
        <ele>303.016771</ele>
        <time>2021-08-16T22:38:26.528Z</time>
      </trkpt>
      <trkpt lat="47.552416" lon="7.828822">
        <ele>303.243500</ele>
        <time>2021-08-16T22:38:29.770Z</time>
      </trkpt>
      <trkpt lat="47.552554" lon="7.829266">
        <ele>303.704028</ele>
        <time>2021-08-16T22:38:37.131Z</time>
      </trkpt>
      <trkpt lat="47.552645" lon="7.830686">
        <ele>306.205258</ele>
        <time>2021-08-16T22:39:00.483Z</time>
      </trkpt>
      <trkpt lat="47.552690" lon="7.832598">
        <ele>309.760160</ele>
        <time>2021-08-16T22:39:36.024Z</time>
      </trkpt>
      <trkpt lat="47.552616" lon="7.832891">
        <ele>310.366821</ele>
        <time>2021-08-16T22:39:41.399Z</time>
      </trkpt>
      <trkpt lat="47.552556" lon="7.832977">
        <ele>310.606680</ele>
        <time>2021-08-16T22:39:44.131Z</time>
      </trkpt>
      <trkpt lat="47.552511" lon="7.833072">
        <ele>310.831748</ele>
        <time>2021-08-16T22:39:46.158Z</time>
      </trkpt>
      <trkpt lat="47.552467" lon="7.833198">
        <ele>311.106855</ele>
        <time>2021-08-16T22:39:48.563Z</time>
      </trkpt>
      <trkpt lat="47.552452" lon="7.833284">
        <ele>311.279105</ele>
        <time>2021-08-16T22:39:50.176Z</time>
      </trkpt>
      <trkpt lat="47.552696" lon="7.833789">
        <ele>312.483477</ele>
        <time>2021-08-16T22:40:01.230Z</time>
      </trkpt>
      <trkpt lat="47.552700" lon="7.833938">
        <ele>312.772644</ele>
        <time>2021-08-16T22:40:04.169Z</time>
      </trkpt>
      <trkpt lat="47.552714" lon="7.835010">
        <ele>314.482831</ele>
        <time>2021-08-16T22:40:22.684Z</time>
      </trkpt>
      <trkpt lat="47.552719" lon="7.836790">
        <ele>316.672302</ele>
        <time>2021-08-16T22:40:48.009Z</time>
      </trkpt>
      <trkpt lat="47.552697" lon="7.838068">
        <ele>318.048730</ele>
        <time>2021-08-16T22:41:05.678Z</time>
      </trkpt>
      <trkpt lat="47.552736" lon="7.838578">
        <ele>318.569932</ele>
        <time>2021-08-16T22:41:12.821Z</time>
      </trkpt>
      <trkpt lat="47.552802" lon="7.839009">
        <ele>319.018723</ele>
        <time>2021-08-16T22:41:19.054Z</time>
      </trkpt>
      <trkpt lat="47.552893" lon="7.839350">
        <ele>319.391082</ele>
        <time>2021-08-16T22:41:24.160Z</time>
      </trkpt>
      <trkpt lat="47.552939" lon="7.839526">
        <ele>319.582737</ele>
        <time>2021-08-16T22:41:26.860Z</time>
      </trkpt>
      <trkpt lat="47.553231" lon="7.841529">
        <ele>321.744136</ele>
        <time>2021-08-16T22:41:57.046Z</time>
      </trkpt>
      <trkpt lat="47.553216" lon="7.841849">
        <ele>322.084147</ele>
        <time>2021-08-16T22:42:01.590Z</time>
      </trkpt>
      <trkpt lat="47.553123" lon="7.842222">
        <ele>322.505637</ele>
        <time>2021-08-16T22:42:06.834Z</time>
      </trkpt>
      <trkpt lat="47.553133" lon="7.842431">
        <ele>322.695221</ele>
        <time>2021-08-16T22:42:09.970Z</time>
      </trkpt>
      <trkpt lat="47.552833" lon="7.842495">
        <ele>322.967096</ele>
        <time>2021-08-16T22:42:17.276Z</time>
      </trkpt>
      <trkpt lat="47.552380" lon="7.842592">
        <ele>323.377658</ele>
        <time>2021-08-16T22:42:28.320Z</time>
      </trkpt>
      <trkpt lat="47.551922" lon="7.842704">
        <ele>323.794042</ele>
        <time>2021-08-16T22:42:38.884Z</time>
      </trkpt>
      <trkpt lat="47.551668" lon="7.842770">
        <ele>324.025357</ele>
        <time>2021-08-16T22:42:44.842Z</time>
      </trkpt>
      <trkpt lat="47.551454" lon="7.842815">
        <ele>324.219239</ele>
        <time>2021-08-16T22:42:49.559Z</time>
      </trkpt>
      <trkpt lat="47.551344" lon="7.844621">
        <ele>325.469341</ele>
        <time>2021-08-16T22:43:12.277Z</time>
      </trkpt>
      <trkpt lat="47.551283" lon="7.845531">
        <ele>326.103139</ele>
        <time>2021-08-16T22:43:24.669Z</time>
      </trkpt>
      <trkpt lat="47.551205" lon="7.846694">
        <ele>327.247572</ele>
        <time>2021-08-16T22:43:40.342Z</time>
      </trkpt>
      <trkpt lat="47.551184" lon="7.847206">
        <ele>327.751534</ele>
        <time>2021-08-16T22:43:47.747Z</time>
      </trkpt>
      <trkpt lat="47.551196" lon="7.847517">
        <ele>328.057586</ele>
        <time>2021-08-16T22:43:52.298Z</time>
      </trkpt>
      <trkpt lat="47.551669" lon="7.848083">
        <ele>328.942517</ele>
        <time>2021-08-16T22:44:05.248Z</time>
      </trkpt>
      <trkpt lat="47.551242" lon="7.848702">
        <ele>329.811623</ele>
        <time>2021-08-16T22:44:17.807Z</time>
      </trkpt>
      <trkpt lat="47.550975" lon="7.849066">
        <ele>330.339486</ele>
        <time>2021-08-16T22:44:25.132Z</time>
      </trkpt>
      <trkpt lat="47.550810" lon="7.849346">
        <ele>330.704474</ele>
        <time>2021-08-16T22:44:31.538Z</time>
      </trkpt>
      <trkpt lat="47.550488" lon="7.850081">
        <ele>331.460818</ele>
        <time>2021-08-16T22:44:47.032Z</time>
      </trkpt>
      <trkpt lat="47.550333" lon="7.850434">
        <ele>331.676527</ele>
        <time>2021-08-16T22:44:54.372Z</time>
      </trkpt>
      <trkpt lat="47.550009" lon="7.851173">
        <ele>332.127908</ele>
        <time>2021-08-16T22:45:08.991Z</time>
      </trkpt>
      <trkpt lat="47.549652" lon="7.851969">
        <ele>332.617444</ele>
        <time>2021-08-16T22:45:22.813Z</time>
      </trkpt>
      <trkpt lat="47.549535" lon="7.852225">
        <ele>332.712319</ele>
        <time>2021-08-16T22:45:26.974Z</time>
      </trkpt>
      <trkpt lat="47.549285" lon="7.852784">
        <ele>332.712319</ele>
        <time>2021-08-16T22:45:35.882Z</time>
      </trkpt>
      <trkpt lat="47.549708" lon="7.853279">
        <ele>332.712319</ele>
        <time>2021-08-16T22:45:46.626Z</time>
      </trkpt>
      <trkpt lat="47.549826" lon="7.853406">
        <ele>332.712319</ele>
        <time>2021-08-16T22:45:49.406Z</time>
      </trkpt>
    </trkseg>
  </trk>
</gpx>